Time,TemperatureF,DewpointF,PressureIn,WindDirection,WindDirectionDegrees,WindSpeedMPH,WindSpeedGustMPH,Humidity,HourlyPrecipIn,Conditions,Clouds,dailyrainin,SoftwareType,DateUTC
2013-03-13 00:00:00,61.1,47.6,30.05,East,98,1.0,0.0,61,0.00,,---,0.00,VWS V14.01,2013-03-13 07:00:00,
2013-03-13 00:01:00,61.3,47.8,30.05,East,98,1.0,0.0,61,0.00,,---,0.00,VWS V14.01,2013-03-13 07:01:00,
2013-03-13 00:02:00,61.4,47.8,30.05,East,98,1.0,0.0,61,0.00,,---,0.00,VWS V14.01,2013-03-13 07:02:00,
2013-03-13 00:03:00,61.6,48.0,30.05,East,98,0.0,0.0,61,0.00,,---,0.00,VWS V14.01,2013-03-13 07:03:00,
2013-03-13 00:04:00,61.8,47.8,30.06,East,98,0.0,0.0,60,0.00,,---,0.00,VWS V14.01,2013-03-13 07:04:00,
2013-03-13 00:05:00,61.9,47.9,30.05,East,98,0.0,0.0,60,0.00,,---,0.00,VWS V14.01,2013-03-13 07:05:00,
2013-03-13 00:06:00,62.1,48.1,30.06,East,98,0.0,0.0,60,0.00,,---,0.00,VWS V14.01,2013-03-13 07:06:00,
2013-03-13 00:07:00,62.3,48.2,30.06,East,98,0.0,0.0,60,0.00,,---,0.00,VWS V14.01,2013-03-13 07:07:00,
2013-03-13 00:08:00,62.5,48.9,30.06,East,98,0.0,0.0,61,0.00,,---,0.00,VWS V14.01,2013-03-13 07:08:00,
2013-03-13 00:09:00,62.7,48.6,30.06,East,98,0.0,0.0,60,0.00,,---,0.00,VWS V14.01,2013-03-13 07:09:00,
2013-03-13 00:10:00,62.9,48.8,30.06,East,98,0.0,0.0,60,0.00,,---,0.00,VWS V14.01,2013-03-13 07:10:00,
2013-03-13 00:11:00,63.1,49.0,30.06,East,98,0.0,0.0,60,0.00,,---,0.00,VWS V14.01,2013-03-13 07:11:00,
2013-03-13 00:12:00,63.3,48.7,30.06,East,98,0.0,0.0,59,0.00,,---,0.00,VWS V14.01,2013-03-13 07:12:00,
2013-03-13 00:13:00,63.4,48.8,30.06,East,98,0.0,0.0,59,0.00,,---,0.00,VWS V14.01,2013-03-13 07:13:00,
2013-03-13 00:14:00,63.5,48.5,30.06,East,98,0.0,0.0,58,0.00,,---,0.00,VWS V14.01,2013-03-13 07:14:00,
2013-03-13 00:15:00,63.7,48.7,30.06,East,98,0.0,0.0,58,0.00,,---,0.00,VWS V14.01,2013-03-13 07:15:00,
2013-03-13 00:16:00,63.8,49.2,30.06,East,98,0.0,0.0,59,0.00,,---,0.00,VWS V14.01,2013-03-13 07:16:00,
2013-03-13 00:17:00,64.0,48.9,30.06,East,98,1.0,0.0,58,0.00,,---,0.00,VWS V14.01,2013-03-13 07:17:00,
2013-03-13 00:18:00,64.2,48.7,30.06,East,98,0.0,0.0,57,0.00,,---,0.00,VWS V14.01,2013-03-13 07:18:00,
2013-03-13 00:19:00,64.3,49.2,30.06,East,98,0.0,0.0,58,0.00,,---,0.00,VWS V14.01,2013-03-13 07:19:00,
2013-03-13 00:20:00,64.5,49.0,30.06,East,98,0.0,0.0,57,0.00,,---,0.00,VWS V14.01,2013-03-13 07:20:00,
2013-03-13 00:21:00,64.6,49.0,30.06,East,98,0.0,0.0,57,0.00,,---,0.00,VWS V14.01,2013-03-13 07:21:00,
2013-03-13 00:22:00,64.8,49.2,30.06,East,98,0.0,0.0,57,0.00,,---,0.00,VWS V14.01,2013-03-13 07:22:00,
2013-03-13 00:23:00,64.9,49.8,30.06,East,98,0.0,0.0,58,0.00,,---,0.00,VWS V14.01,2013-03-13 07:23:00,
2013-03-13 00:24:00,65.1,50.0,30.06,NE,45,0.0,0.0,58,0.00,,---,0.00,VWS V14.01,2013-03-13 07:24:00,
2013-03-13 00:25:00,65.3,50.2,30.06,NE,45,0.0,0.0,58,0.00,,---,0.00,VWS V14.01,2013-03-13 07:25:00,
2013-03-13 00:26:00,65.5,49.9,30.06,NE,45,0.0,0.0,57,0.00,,---,0.00,VWS V14.01,2013-03-13 07:26:00,
2013-03-13 00:27:00,65.7,49.6,30.06,NE,47,2.0,0.0,56,0.00,,---,0.00,VWS V14.01,2013-03-13 07:27:00,
2013-03-13 00:28:00,65.8,49.2,30.06,NE,40,2.0,0.0,55,0.00,,---,0.00,VWS V14.01,2013-03-13 07:28:00,
2013-03-13 00:29:00,65.9,49.3,30.06,NE,40,0.0,0.0,55,0.00,,---,0.00,VWS V14.01,2013-03-13 07:29:00,
2013-03-13 00:30:00,66.1,49.5,30.06,NE,40,0.0,0.0,55,0.00,,---,0.00,VWS V14.01,2013-03-13 07:30:00,
2013-03-13 00:31:00,66.3,50.2,30.06,NE,40,0.0,0.0,56,0.00,,---,0.00,VWS V14.01,2013-03-13 07:31:00,
2013-03-13 00:32:00,66.4,50.2,30.06,NE,48,0.0,0.0,56,0.00,,---,0.00,VWS V14.01,2013-03-13 07:32:00,
2013-03-13 00:33:00,66.6,50.0,30.06,NE,48,0.0,0.0,55,0.00,,---,0.00,VWS V14.01,2013-03-13 07:33:00,
2013-03-13 00:34:00,66.7,49.5,30.06,NE,49,0.0,0.0,54,0.00,,---,0.00,VWS V14.01,2013-03-13 07:34:00,
2013-03-13 00:35:00,66.8,49.1,30.06,NE,49,0.0,0.0,53,0.00,,---,0.00,VWS V14.01,2013-03-13 07:35:00,
2013-03-13 00:36:00,67.0,49.3,30.06,NE,49,0.0,0.0,53,0.00,,---,0.00,VWS V14.01,2013-03-13 07:36:00,
2013-03-13 00:37:00,67.1,49.9,30.06,North,10,0.0,0.0,54,0.00,,---,0.00,VWS V14.01,2013-03-13 07:37:00,
2013-03-13 00:38:00,67.3,50.1,30.06,WSW,253,1.0,0.0,54,0.00,,---,0.00,VWS V14.01,2013-03-13 07:38:00,
2013-03-13 00:39:00,67.4,49.2,30.06,WSW,250,0.0,0.0,52,0.00,,---,0.00,VWS V14.01,2013-03-13 07:39:00,
2013-03-13 00:40:00,67.5,49.3,30.06,WSW,251,0.0,0.0,52,0.00,,---,0.00,VWS V14.01,2013-03-13 07:40:00,
2013-03-13 00:41:00,67.6,49.9,30.06,WSW,256,1.0,0.0,53,0.00,,---,0.00,VWS V14.01,2013-03-13 07:41:00,
2013-03-13 00:42:00,67.8,49.5,30.06,WSW,256,0.0,0.0,52,0.00,,---,0.00,VWS V14.01,2013-03-13 07:42:00,
2013-03-13 00:43:00,67.9,49.7,30.06,WSW,256,0.0,0.0,52,0.00,,---,0.00,VWS V14.01,2013-03-13 07:43:00,
2013-03-13 00:44:00,68.0,49.7,30.06,WSW,257,2.0,0.0,52,0.00,,---,0.00,VWS V14.01,2013-03-13 07:44:00,
2013-03-13 00:45:00,68.2,49.4,30.06,WSW,257,0.0,0.0,51,0.00,,---,0.00,VWS V14.01,2013-03-13 07:45:00,
2013-03-13 00:46:00,68.3,50.5,30.06,WSW,258,0.0,0.0,53,0.00,,---,0.00,VWS V14.01,2013-03-13 07:46:00,
2013-03-13 00:47:00,68.5,51.2,30.06,WSW,244,0.0,0.0,54,0.00,,---,0.00,VWS V14.01,2013-03-13 07:47:00,
2013-03-13 00:48:00,68.5,51.2,30.06,WSW,243,0.0,0.0,54,0.00,,---,0.00,VWS V14.01,2013-03-13 07:48:00,
2013-03-13 00:49:00,68.6,50.8,30.06,WSW,244,0.0,0.0,53,0.00,,---,0.00,VWS V14.01,2013-03-13 07:49:00,
2013-03-13 00:50:00,68.7,50.9,30.06,WSW,251,0.0,0.0,53,0.00,,---,0.00,VWS V14.01,2013-03-13 07:50:00,
2013-03-13 00:51:00,68.8,51.5,30.06,WSW,251,0.0,0.0,54,0.00,,---,0.00,VWS V14.01,2013-03-13 07:51:00,
2013-03-13 00:52:00,68.9,51.6,30.06,WSW,251,0.0,0.0,54,0.00,,---,0.00,VWS V14.01,2013-03-13 07:52:00,
2013-03-13 00:53:00,69.0,50.7,30.06,WSW,252,0.0,0.0,52,0.00,,---,0.00,VWS V14.01,2013-03-13 07:53:00,
2013-03-13 00:54:00,69.1,50.8,30.06,WSW,251,0.0,0.0,52,0.00,,---,0.00,VWS V14.01,2013-03-13 07:54:00,
2013-03-13 00:55:00,69.2,51.4,30.06,WSW,251,0.0,0.0,53,0.00,,---,0.00,VWS V14.01,2013-03-13 07:55:00,
2013-03-13 00:56:00,69.4,52.0,30.06,WSW,251,0.0,0.0,54,0.00,,---,0.00,VWS V14.01,2013-03-13 07:56:00,
2013-03-13 00:57:00,69.5,52.2,30.06,North,355,0.0,0.0,54,0.00,,---,0.00,VWS V14.01,2013-03-13 07:57:00,
2013-03-13 00:58:00,69.6,51.7,30.06,North,355,0.0,0.0,53,0.00,,---,0.00,VWS V14.01,2013-03-13 07:58:00,
2013-03-13 00:59:00,69.7,51.3,30.06,WNW,297,0.0,0.0,52,0.00,,---,0.00,VWS V14.01,2013-03-13 07:59:00,
2013-03-13 01:00:00,69.9,52.0,30.06,WNW,300,0.0,0.0,53,0.00,,---,0.00,VWS V14.01,2013-03-13 08:00:00,
2013-03-13 01:01:00,70.0,51.1,30.06,NW,310,0.0,0.0,51,0.00,,---,0.00,VWS V14.01,2013-03-13 08:01:00,
2013-03-13 01:02:00,70.1,51.7,30.05,NW,310,0.0,0.0,52,0.00,,---,0.00,VWS V14.01,2013-03-13 08:02:00,
2013-03-13 01:03:00,70.2,51.2,30.05,NW,310,0.0,0.0,51,0.00,,---,0.00,VWS V14.01,2013-03-13 08:03:00,
2013-03-13 01:04:00,70.4,50.3,30.05,SSE,148,0.0,0.0,49,0.00,,---,0.00,VWS V14.01,2013-03-13 08:04:00,
2013-03-13 01:05:00,70.5,50.4,30.05,SSE,148,0.0,0.0,49,0.00,,---,0.00,VWS V14.01,2013-03-13 08:05:00,
2013-03-13 01:06:00,70.6,51.1,30.05,SSE,148,0.0,0.0,50,0.00,,---,0.00,VWS V14.01,2013-03-13 08:06:00,
2013-03-13 01:07:00,70.6,51.1,30.06,NE,34,1.0,0.0,50,0.00,,---,0.00,VWS V14.01,2013-03-13 08:07:00,
2013-03-13 01:08:00,70.7,51.2,30.06,NW,320,0.0,0.0,50,0.00,,---,0.00,VWS V14.01,2013-03-13 08:08:00,
2013-03-13 01:09:00,70.8,51.8,30.06,NE,38,1.0,0.0,51,0.00,,---,0.00,VWS V14.01,2013-03-13 08:09:00,
2013-03-13 01:10:00,70.9,50.8,30.05,NE,38,1.0,0.0,49,0.00,,---,0.00,VWS V14.01,2013-03-13 08:10:00,
2013-03-13 01:11:00,71.0,50.9,30.05,ENE,60,0.0,0.0,49,0.00,,---,0.00,VWS V14.01,2013-03-13 08:11:00,
2013-03-13 01:12:00,71.1,51.0,30.06,NNE,15,5.0,0.0,49,0.00,,---,0.00,VWS V14.01,2013-03-13 08:12:00,
2013-03-13 01:13:00,71.2,52.2,30.06,NNW,340,1.0,0.0,51,0.00,,---,0.00,VWS V14.01,2013-03-13 08:13:00,
2013-03-13 01:14:00,71.2,51.6,30.06,NNW,340,0.0,0.0,50,0.00,,---,0.00,VWS V14.01,2013-03-13 08:14:00,
2013-03-13 01:15:00,71.3,51.7,30.06,NNW,342,0.0,0.0,50,0.00,,---,0.00,VWS V14.01,2013-03-13 08:15:00,
2013-03-13 01:16:00,71.4,52.3,30.06,NE,39,0.0,0.0,51,0.00,,---,0.00,VWS V14.01,2013-03-13 08:16:00,
2013-03-13 01:17:00,71.4,51.8,30.06,East,100,0.0,0.0,50,0.00,,---,0.00,VWS V14.01,2013-03-13 08:17:00,
2013-03-13 01:18:00,71.4,51.8,30.06,North,11,2.0,0.0,50,0.00,,---,0.00,VWS V14.01,2013-03-13 08:18:00,
2013-03-13 01:19:00,71.5,51.9,30.06,NE,44,0.0,0.0,50,0.00,,---,0.00,VWS V14.01,2013-03-13 08:19:00,
2013-03-13 01:20:00,71.5,52.4,30.06,NE,49,4.0,0.0,51,0.00,,---,0.00,VWS V14.01,2013-03-13 08:20:00,
2013-03-13 01:21:00,71.6,52.5,30.06,NE,53,2.0,0.0,51,0.00,,---,0.00,VWS V14.01,2013-03-13 08:21:00,
2013-03-13 01:22:00,71.6,52.0,30.06,ENE,74,1.0,0.0,50,0.00,,---,0.00,VWS V14.01,2013-03-13 08:22:00,
2013-03-13 01:23:00,71.6,51.5,30.06,ENE,76,0.0,0.0,49,0.00,,---,0.00,VWS V14.01,2013-03-13 08:23:00,
2013-03-13 01:24:00,71.7,52.1,30.06,NNE,29,2.0,0.0,50,0.00,,---,0.00,VWS V14.01,2013-03-13 08:24:00,
2013-03-13 01:25:00,71.7,52.6,30.06,NNW,333,1.0,0.0,51,0.00,,---,0.00,VWS V14.01,2013-03-13 08:25:00,
2013-03-13 01:26:00,71.8,52.2,30.06,NE,39,1.0,0.0,50,0.00,,---,0.00,VWS V14.01,2013-03-13 08:26:00,
2013-03-13 01:27:00,71.9,51.7,30.06,NNE,17,2.0,0.0,49,0.00,,---,0.00,VWS V14.01,2013-03-13 08:27:00,
2013-03-13 01:28:00,72.0,51.8,30.05,NE,43,3.0,0.0,49,0.00,,---,0.00,VWS V14.01,2013-03-13 08:28:00,
2013-03-13 01:29:00,72.1,51.9,30.05,NW,324,0.0,0.0,49,0.00,,---,0.00,VWS V14.01,2013-03-13 08:29:00,
2013-03-13 01:30:00,72.2,52.0,30.05,East,92,4.0,0.0,49,0.00,,---,0.00,VWS V14.01,2013-03-13 08:30:00,
2013-03-13 01:31:00,72.3,52.1,30.05,NNE,13,0.0,0.0,49,0.00,,---,0.00,VWS V14.01,2013-03-13 08:31:00,
2013-03-13 01:32:00,72.3,52.1,30.05,ENE,57,1.0,0.0,49,0.00,,---,0.00,VWS V14.01,2013-03-13 08:32:00,
2013-03-13 01:33:00,72.4,53.3,30.05,NE,53,1.0,0.0,51,0.00,,---,0.00,VWS V14.01,2013-03-13 08:33:00,
2013-03-13 01:34:00,72.5,52.3,30.05,NE,50,1.0,0.0,49,0.00,,---,0.00,VWS V14.01,2013-03-13 08:34:00,
2013-03-13 01:35:00,72.5,52.3,30.05,NE,51,0.0,0.0,49,0.00,,---,0.00,VWS V14.01,2013-03-13 08:35:00,
2013-03-13 01:36:00,72.6,52.4,30.05,NE,49,0.0,0.0,49,0.00,,---,0.00,VWS V14.01,2013-03-13 08:36:00,
2013-03-13 01:37:00,72.7,52.5,30.05,North,355,2.0,0.0,49,0.00,,---,0.00,VWS V14.01,2013-03-13 08:37:00,
2013-03-13 01:38:00,72.8,52.5,30.05,NNW,331,2.0,0.0,49,0.00,,---,0.00,VWS V14.01,2013-03-13 08:38:00,
2013-03-13 01:39:00,72.9,52.6,30.05,NNE,28,2.0,0.0,49,0.00,,---,0.00,VWS V14.01,2013-03-13 08:39:00,
2013-03-13 01:40:00,73.0,52.7,30.05,NNW,329,4.0,0.0,49,0.00,,---,0.00,VWS V14.01,2013-03-13 08:40:00,
2013-03-13 01:41:00,73.1,52.8,30.05,NW,324,0.0,0.0,49,0.00,,---,0.00,VWS V14.01,2013-03-13 08:41:00,
2013-03-13 01:42:00,73.2,53.5,30.05,NNW,342,0.0,0.0,50,0.00,,---,0.00,VWS V14.01,2013-03-13 08:42:00,
2013-03-13 01:43:00,73.3,53.0,30.05,ENE,73,1.0,0.0,49,0.00,,---,0.00,VWS V14.01,2013-03-13 08:43:00,
2013-03-13 01:44:00,73.2,52.9,30.05,NNW,344,2.0,0.0,49,0.00,,---,0.00,VWS V14.01,2013-03-13 08:44:00,
2013-03-13 01:45:00,73.2,53.5,30.05,NE,38,1.0,0.0,50,0.00,,---,0.00,VWS V14.01,2013-03-13 08:45:00,
2013-03-13 01:46:00,73.2,53.5,30.05,NNE,26,1.0,0.0,50,0.00,,---,0.00,VWS V14.01,2013-03-13 08:46:00,
2013-03-13 01:47:00,73.3,54.1,30.05,NE,41,2.0,0.0,51,0.00,,---,0.00,VWS V14.01,2013-03-13 08:47:00,
2013-03-13 01:48:00,73.3,54.1,30.05,ENE,65,1.0,0.0,51,0.00,,---,0.00,VWS V14.01,2013-03-13 08:48:00,
2013-03-13 01:49:00,73.3,54.1,30.05,NNE,22,2.0,0.0,51,0.00,,---,0.00,VWS V14.01,2013-03-13 08:49:00,
2013-03-13 01:50:00,73.4,54.2,30.05,NE,40,2.0,0.0,51,0.00,,---,0.00,VWS V14.01,2013-03-13 08:50:00,
2013-03-13 01:51:00,73.5,54.3,30.06,NNW,341,6.0,0.0,51,0.00,,---,0.00,VWS V14.01,2013-03-13 08:51:00,
2013-03-13 01:52:00,73.6,53.8,30.06,NW,325,3.0,0.0,50,0.00,,---,0.00,VWS V14.01,2013-03-13 08:52:00,
2013-03-13 01:53:00,73.5,53.7,30.06,NW,313,1.0,0.0,50,0.00,,---,0.00,VWS V14.01,2013-03-13 08:53:00,
2013-03-13 01:54:00,73.2,53.5,30.05,WNW,296,1.0,0.0,50,0.00,,---,0.00,VWS V14.01,2013-03-13 08:54:00,
2013-03-13 01:55:00,73.0,53.8,30.05,NW,314,0.0,0.0,51,0.00,,---,0.00,VWS V14.01,2013-03-13 08:55:00,
2013-03-13 01:56:00,72.9,53.7,30.05,NE,38,1.0,0.0,51,0.00,,---,0.00,VWS V14.01,2013-03-13 08:56:00,
2013-03-13 01:57:00,72.8,53.6,30.05,ENE,57,0.0,0.0,51,0.00,,---,0.00,VWS V14.01,2013-03-13 08:57:00,
2013-03-13 01:58:00,72.7,53.5,30.05,NE,53,2.0,0.0,51,0.00,,---,0.00,VWS V14.01,2013-03-13 08:58:00,
2013-03-13 01:59:00,72.6,53.5,30.05,NE,36,0.0,0.0,51,0.00,,---,0.00,VWS V14.01,2013-03-13 08:59:00,
2013-03-13 02:00:00,72.6,53.5,30.05,NE,37,0.0,0.0,51,0.00,,---,0.00,VWS V14.01,2013-03-13 09:00:00,
2013-03-13 02:01:00,72.7,53.5,30.05,NE,43,3.0,0.0,51,0.00,,---,0.00,VWS V14.01,2013-03-13 09:01:00,
2013-03-13 02:02:00,72.7,53.5,30.05,NNW,331,4.0,0.0,51,0.00,,---,0.00,VWS V14.01,2013-03-13 09:02:00,
2013-03-13 02:03:00,72.8,53.6,30.05,NNW,336,4.0,0.0,51,0.00,,---,0.00,VWS V14.01,2013-03-13 09:03:00,
2013-03-13 02:04:00,73.0,53.8,30.05,NNE,28,0.0,0.0,51,0.00,,---,0.00,VWS V14.01,2013-03-13 09:04:00,
2013-03-13 02:05:00,73.1,54.5,30.05,NE,35,5.0,0.0,52,0.00,,---,0.00,VWS V14.01,2013-03-13 09:05:00,
2013-03-13 02:06:00,73.2,54.0,30.05,NE,40,0.0,0.0,51,0.00,,---,0.00,VWS V14.01,2013-03-13 09:06:00,
2013-03-13 02:07:00,73.3,53.6,30.05,NE,35,0.0,0.0,50,0.00,,---,0.00,VWS V14.01,2013-03-13 09:07:00,
2013-03-13 02:08:00,73.3,53.6,30.05,NE,35,0.0,0.0,50,0.00,,---,0.00,VWS V14.01,2013-03-13 09:08:00,
2013-03-13 02:09:00,73.4,53.7,30.05,NW,307,0.0,0.0,50,0.00,,---,0.00,VWS V14.01,2013-03-13 09:09:00,
2013-03-13 02:10:00,73.3,53.6,30.05,NNW,327,0.0,0.0,50,0.00,,---,0.00,VWS V14.01,2013-03-13 09:10:00,
2013-03-13 02:11:00,73.3,54.1,30.05,NNW,338,3.0,0.0,51,0.00,,---,0.00,VWS V14.01,2013-03-13 09:11:00,
2013-03-13 02:12:00,73.3,54.1,30.05,North,5,0.0,0.0,51,0.00,,---,0.00,VWS V14.01,2013-03-13 09:12:00,
2013-03-13 02:13:00,73.3,53.6,30.05,East,84,0.0,0.0,50,0.00,,---,0.00,VWS V14.01,2013-03-13 09:13:00,
2013-03-13 02:14:00,73.3,53.6,30.05,NNE,21,2.0,0.0,50,0.00,,---,0.00,VWS V14.01,2013-03-13 09:14:00,
2013-03-13 02:15:00,73.3,54.6,30.05,NE,45,1.0,0.0,52,0.00,,---,0.00,VWS V14.01,2013-03-13 09:15:00,
2013-03-13 02:16:00,73.3,54.1,30.05,NE,46,0.0,0.0,51,0.00,,---,0.00,VWS V14.01,2013-03-13 09:16:00,
2013-03-13 02:17:00,73.3,54.1,30.05,West,272,2.0,0.0,51,0.00,,---,0.00,VWS V14.01,2013-03-13 09:17:00,
2013-03-13 02:18:00,73.3,53.6,30.05,NW,307,0.0,0.0,50,0.00,,---,0.00,VWS V14.01,2013-03-13 09:18:00,
2013-03-13 02:19:00,73.2,53.5,30.05,West,281,0.0,0.0,50,0.00,,---,0.00,VWS V14.01,2013-03-13 09:19:00,
2013-03-13 02:20:00,73.2,53.5,30.05,WNW,284,0.0,0.0,50,0.00,,---,0.00,VWS V14.01,2013-03-13 09:20:00,
2013-03-13 02:21:00,73.1,53.9,30.05,North,360,2.0,0.0,51,0.00,,---,0.00,VWS V14.01,2013-03-13 09:21:00,
2013-03-13 02:22:00,73.2,54.0,30.05,NE,44,2.0,0.0,51,0.00,,---,0.00,VWS V14.01,2013-03-13 09:22:00,
2013-03-13 02:23:00,73.2,54.0,30.05,NE,38,1.0,0.0,51,0.00,,---,0.00,VWS V14.01,2013-03-13 09:23:00,
2013-03-13 02:24:00,73.3,54.1,30.05,NE,37,0.0,0.0,51,0.00,,---,0.00,VWS V14.01,2013-03-13 09:24:00,
2013-03-13 02:25:00,73.3,54.1,30.05,NE,38,0.0,0.0,51,0.00,,---,0.00,VWS V14.01,2013-03-13 09:25:00,
2013-03-13 02:26:00,73.4,54.2,30.05,NE,46,0.0,0.0,51,0.00,,---,0.00,VWS V14.01,2013-03-13 09:26:00,
2013-03-13 02:27:00,73.5,54.3,30.05,NNE,30,2.0,0.0,51,0.00,,---,0.00,VWS V14.01,2013-03-13 09:27:00,
2013-03-13 02:28:00,73.6,53.8,30.05,NNE,32,3.0,0.0,50,0.00,,---,0.00,VWS V14.01,2013-03-13 09:28:00,
2013-03-13 02:29:00,73.8,54.0,30.05,NNW,334,3.0,0.0,50,0.00,,---,0.00,VWS V14.01,2013-03-13 09:29:00,
2013-03-13 02:30:00,73.9,53.6,30.05,NNE,26,0.0,0.0,49,0.00,,---,0.00,VWS V14.01,2013-03-13 09:30:00,
2013-03-13 02:31:00,73.9,53.6,30.05,NNE,26,0.0,0.0,49,0.00,,---,0.00,VWS V14.01,2013-03-13 09:31:00,
2013-03-13 02:32:00,74.0,53.7,30.04,NNW,338,1.0,0.0,49,0.00,,---,0.00,VWS V14.01,2013-03-13 09:32:00,
2013-03-13 02:33:00,74.0,54.2,30.04,NNW,336,0.0,0.0,50,0.00,,---,0.00,VWS V14.01,2013-03-13 09:33:00,
2013-03-13 02:34:00,74.0,54.2,30.04,NNE,21,2.0,0.0,50,0.00,,---,0.00,VWS V14.01,2013-03-13 09:34:00,
2013-03-13 02:35:00,74.1,53.7,30.04,NE,50,1.0,0.0,49,0.00,,---,0.00,VWS V14.01,2013-03-13 09:35:00,
2013-03-13 02:36:00,74.2,53.8,30.04,NE,43,2.0,0.0,49,0.00,,---,0.00,VWS V14.01,2013-03-13 09:36:00,
2013-03-13 02:37:00,74.3,54.5,30.04,NE,54,1.0,0.0,50,0.00,,---,0.00,VWS V14.01,2013-03-13 09:37:00,
2013-03-13 02:38:00,74.4,54.0,30.04,NE,54,0.0,0.0,49,0.00,,---,0.00,VWS V14.01,2013-03-13 09:38:00,
2013-03-13 02:39:00,74.6,54.2,30.04,NE,34,1.0,0.0,49,0.00,,---,0.00,VWS V14.01,2013-03-13 09:39:00,
2013-03-13 02:40:00,74.7,54.3,30.04,NNE,30,0.0,0.0,49,0.00,,---,0.00,VWS V14.01,2013-03-13 09:40:00,
2013-03-13 02:41:00,74.9,53.9,30.04,North,5,0.0,0.0,48,0.00,,---,0.00,VWS V14.01,2013-03-13 09:41:00,
2013-03-13 02:42:00,75.0,54.6,30.04,NNE,17,0.0,0.0,49,0.00,,---,0.00,VWS V14.01,2013-03-13 09:42:00,
2013-03-13 02:43:00,75.1,54.1,30.04,West,271,1.0,0.0,48,0.00,,---,0.00,VWS V14.01,2013-03-13 09:43:00,
2013-03-13 02:44:00,75.1,53.5,30.04,NW,323,1.0,0.0,47,0.00,,---,0.00,VWS V14.01,2013-03-13 09:44:00,
2013-03-13 02:45:00,75.2,54.2,30.04,NW,324,1.0,0.0,48,0.00,,---,0.00,VWS V14.01,2013-03-13 09:45:00,
2013-03-13 02:46:00,75.2,53.6,30.04,North,11,0.0,0.0,47,0.00,,---,0.00,VWS V14.01,2013-03-13 09:46:00,
2013-03-13 02:47:00,75.2,53.6,30.04,NE,42,0.0,0.0,47,0.00,,---,0.00,VWS V14.01,2013-03-13 09:47:00,
2013-03-13 02:48:00,75.2,54.2,30.04,NE,41,5.0,0.0,48,0.00,,---,0.00,VWS V14.01,2013-03-13 09:48:00,
2013-03-13 02:49:00,75.2,53.6,30.04,ENE,59,3.0,0.0,47,0.00,,---,0.00,VWS V14.01,2013-03-13 09:49:00,
2013-03-13 02:50:00,75.3,53.7,30.04,NE,53,1.0,0.0,47,0.00,,---,0.00,VWS V14.01,2013-03-13 09:50:00,
2013-03-13 02:51:00,75.4,53.8,30.04,NE,40,0.0,0.0,47,0.00,,---,0.00,VWS V14.01,2013-03-13 09:51:00,
2013-03-13 02:52:00,75.5,53.9,30.04,NNE,13,0.0,0.0,47,0.00,,---,0.00,VWS V14.01,2013-03-13 09:52:00,
2013-03-13 02:53:00,75.5,53.3,30.04,NNW,340,1.0,0.0,46,0.00,,---,0.00,VWS V14.01,2013-03-13 09:53:00,
2013-03-13 02:54:00,75.5,53.3,30.04,NNE,24,4.0,0.0,46,0.00,,---,0.00,VWS V14.01,2013-03-13 09:54:00,
2013-03-13 02:55:00,75.5,53.3,30.04,ENE,65,1.0,0.0,46,0.00,,---,0.00,VWS V14.01,2013-03-13 09:55:00,
2013-03-13 02:56:00,75.5,53.3,30.04,ENE,77,2.0,0.0,46,0.00,,---,0.00,VWS V14.01,2013-03-13 09:56:00,
2013-03-13 02:57:00,75.5,53.3,30.04,ENE,59,0.0,0.0,46,0.00,,---,0.00,VWS V14.01,2013-03-13 09:57:00,
2013-03-13 02:58:00,75.4,53.2,30.04,ENE,59,1.0,0.0,46,0.00,,---,0.00,VWS V14.01,2013-03-13 09:58:00,
2013-03-13 02:59:00,75.4,53.8,30.04,NE,46,0.0,0.0,47,0.00,,---,0.00,VWS V14.01,2013-03-13 09:59:00,
2013-03-13 03:00:00,75.5,53.9,30.04,ENE,78,0.0,0.0,47,0.00,,---,0.00,VWS V14.01,2013-03-13 10:00:00,
2013-03-13 03:01:00,75.5,53.3,30.04,ESE,104,1.0,0.0,46,0.00,,---,0.00,VWS V14.01,2013-03-13 10:01:00,
2013-03-13 03:02:00,75.5,53.3,30.03,ESE,105,0.0,0.0,46,0.00,,---,0.00,VWS V14.01,2013-03-13 10:02:00,
2013-03-13 03:03:00,75.5,53.9,30.03,ESE,103,0.0,0.0,47,0.00,,---,0.00,VWS V14.01,2013-03-13 10:03:00,
2013-03-13 03:04:00,75.5,54.5,30.03,NNE,19,0.0,0.0,48,0.00,,---,0.00,VWS V14.01,2013-03-13 10:04:00,
2013-03-13 03:05:00,75.6,54.0,30.03,NNE,22,0.0,0.0,47,0.00,,---,0.00,VWS V14.01,2013-03-13 10:05:00,
2013-03-13 03:06:00,75.7,54.1,30.03,East,91,0.0,0.0,47,0.00,,---,0.00,VWS V14.01,2013-03-13 10:06:00,
2013-03-13 03:07:00,75.7,53.5,30.03,ENE,77,0.0,0.0,46,0.00,,---,0.00,VWS V14.01,2013-03-13 10:07:00,
2013-03-13 03:08:00,75.8,54.2,30.03,NNE,13,1.0,0.0,47,0.00,,---,0.00,VWS V14.01,2013-03-13 10:08:00,
2013-03-13 03:09:00,75.9,56.0,30.03,North,9,0.0,0.0,50,0.00,,---,0.00,VWS V14.01,2013-03-13 10:09:00,
2013-03-13 03:10:00,76.0,55.5,30.03,North,5,1.0,0.0,49,0.00,,---,0.00,VWS V14.01,2013-03-13 10:10:00,
2013-03-13 03:11:00,76.1,55.0,30.03,NNE,22,3.0,0.0,48,0.00,,---,0.00,VWS V14.01,2013-03-13 10:11:00,
2013-03-13 03:12:00,76.2,53.9,30.03,WNW,286,2.0,0.0,46,0.00,,---,0.00,VWS V14.01,2013-03-13 10:12:00,
2013-03-13 03:13:00,76.2,53.9,30.03,West,279,5.0,0.0,46,0.00,,---,0.00,VWS V14.01,2013-03-13 10:13:00,
2013-03-13 03:14:00,76.1,53.8,30.03,West,269,0.0,0.0,46,0.00,,---,0.00,VWS V14.01,2013-03-13 10:14:00,
2013-03-13 03:15:00,75.9,54.2,30.03,NW,305,2.0,0.0,47,0.00,,---,0.00,VWS V14.01,2013-03-13 10:15:00,
2013-03-13 03:16:00,75.8,54.2,30.03,WNW,296,0.0,0.0,47,0.00,,---,0.00,VWS V14.01,2013-03-13 10:16:00,
2013-03-13 03:17:00,75.8,53.6,30.03,West,276,0.0,0.0,46,0.00,,---,0.00,VWS V14.01,2013-03-13 10:17:00,
2013-03-13 03:18:00,75.8,53.6,30.03,NNW,346,0.0,0.0,46,0.00,,---,0.00,VWS V14.01,2013-03-13 10:18:00,
2013-03-13 03:19:00,75.8,54.7,30.03,NW,310,1.0,0.0,48,0.00,,---,0.00,VWS V14.01,2013-03-13 10:19:00,
2013-03-13 03:20:00,75.8,53.0,30.03,NW,309,0.0,0.0,45,0.00,,---,0.00,VWS V14.01,2013-03-13 10:20:00,
2013-03-13 03:21:00,75.9,53.1,30.03,North,351,0.0,0.0,45,0.00,,---,0.00,VWS V14.01,2013-03-13 10:21:00,
2013-03-13 03:22:00,76.1,53.8,30.03,NNE,23,4.0,0.0,46,0.00,,---,0.00,VWS V14.01,2013-03-13 10:22:00,
2013-03-13 03:23:00,76.1,53.8,30.03,NNE,32,4.0,0.0,46,0.00,,---,0.00,VWS V14.01,2013-03-13 10:23:00,
2013-03-13 03:24:00,76.3,53.4,30.03,NNE,31,1.0,0.0,45,0.00,,---,0.00,VWS V14.01,2013-03-13 10:24:00,
2013-03-13 03:25:00,76.4,54.1,30.03,NNE,30,0.0,0.0,46,0.00,,---,0.00,VWS V14.01,2013-03-13 10:25:00,
2013-03-13 03:26:00,76.5,54.8,30.02,North,355,1.0,0.0,47,0.00,,---,0.00,VWS V14.01,2013-03-13 10:26:00,
2013-03-13 03:27:00,76.5,54.8,30.02,NW,314,0.0,0.0,47,0.00,,---,0.00,VWS V14.01,2013-03-13 10:27:00,
2013-03-13 03:28:00,76.6,53.7,30.02,WNW,284,2.0,0.0,45,0.00,,---,0.00,VWS V14.01,2013-03-13 10:28:00,
2013-03-13 03:29:00,76.7,53.8,30.02,NE,34,0.0,0.0,45,0.00,,---,0.00,VWS V14.01,2013-03-13 10:29:00,
2013-03-13 03:30:00,76.7,53.8,30.02,NW,307,0.0,0.0,45,0.00,,---,0.00,VWS V14.01,2013-03-13 10:30:00,
2013-03-13 03:31:00,76.8,53.9,30.02,WNW,299,1.0,0.0,45,0.00,,---,0.00,VWS V14.01,2013-03-13 10:31:00,
2013-03-13 03:32:00,76.9,53.3,30.02,WNW,296,0.0,0.0,44,0.00,,---,0.00,VWS V14.01,2013-03-13 10:32:00,
2013-03-13 03:33:00,77.0,53.4,30.02,West,274,0.0,0.0,44,0.00,,---,0.00,VWS V14.01,2013-03-13 10:33:00,
2013-03-13 03:34:00,77.1,54.2,30.02,NW,310,0.0,0.0,45,0.00,,---,0.00,VWS V14.01,2013-03-13 10:34:00,
2013-03-13 03:35:00,77.1,54.2,30.02,NNW,340,0.0,0.0,45,0.00,,---,0.00,VWS V14.01,2013-03-13 10:35:00,
2013-03-13 03:36:00,77.2,53.6,30.02,NNW,338,0.0,0.0,44,0.00,,---,0.00,VWS V14.01,2013-03-13 10:36:00,
2013-03-13 03:37:00,77.3,54.3,30.02,NW,306,1.0,0.0,45,0.00,,---,0.00,VWS V14.01,2013-03-13 10:37:00,
2013-03-13 03:38:00,77.4,53.8,30.02,NNE,12,1.0,0.0,44,0.00,,---,0.00,VWS V14.01,2013-03-13 10:38:00,
2013-03-13 03:39:00,77.5,53.9,30.02,North,360,0.0,0.0,44,0.00,,---,0.00,VWS V14.01,2013-03-13 10:39:00,
2013-03-13 03:40:00,77.6,54.6,30.02,North,355,0.0,0.0,45,0.00,,---,0.00,VWS V14.01,2013-03-13 10:40:00,
2013-03-13 03:41:00,77.7,53.5,30.02,NNE,16,1.0,0.0,43,0.00,,---,0.00,VWS V14.01,2013-03-13 10:41:00,
2013-03-13 03:42:00,77.7,53.5,30.02,NNE,16,0.0,0.0,43,0.00,,---,0.00,VWS V14.01,2013-03-13 10:42:00,
2013-03-13 03:43:00,77.8,54.2,30.02,North,11,0.0,0.0,44,0.00,,---,0.00,VWS V14.01,2013-03-13 10:43:00,
2013-03-13 03:44:00,77.8,53.5,30.02,NNE,21,0.0,0.0,43,0.00,,---,0.00,VWS V14.01,2013-03-13 10:44:00,
2013-03-13 03:45:00,77.8,54.2,30.02,SSE,153,0.0,0.0,44,0.00,,---,0.00,VWS V14.01,2013-03-13 10:45:00,
2013-03-13 03:46:00,77.7,53.5,30.02,SSW,210,1.0,0.0,43,0.00,,---,0.00,VWS V14.01,2013-03-13 10:46:00,
2013-03-13 03:47:00,77.5,52.6,30.01,South,180,0.0,0.0,42,0.00,,---,0.00,VWS V14.01,2013-03-13 10:47:00,
2013-03-13 03:48:00,77.3,52.5,30.02,SSW,192,0.0,0.0,42,0.00,,---,0.00,VWS V14.01,2013-03-13 10:48:00,
2013-03-13 03:49:00,77.1,52.3,30.01,SSW,194,0.0,0.0,42,0.00,,---,0.00,VWS V14.01,2013-03-13 10:49:00,
2013-03-13 03:50:00,77.0,53.4,30.01,NW,307,1.0,0.0,44,0.00,,---,0.00,VWS V14.01,2013-03-13 10:50:00,
2013-03-13 03:51:00,76.8,52.6,30.01,WNW,302,2.0,0.0,43,0.00,,---,0.00,VWS V14.01,2013-03-13 10:51:00,
2013-03-13 03:52:00,76.7,52.5,30.01,NNW,342,1.0,0.0,43,0.00,,---,0.00,VWS V14.01,2013-03-13 10:52:00,
2013-03-13 03:53:00,76.7,52.5,30.01,West,272,1.0,0.0,43,0.00,,---,0.00,VWS V14.01,2013-03-13 10:53:00,
2013-03-13 03:54:00,76.6,52.5,30.01,NNW,344,0.0,0.0,43,0.00,,---,0.00,VWS V14.01,2013-03-13 10:54:00,
2013-03-13 03:55:00,76.6,52.5,30.01,North,349,1.0,0.0,43,0.00,,---,0.00,VWS V14.01,2013-03-13 10:55:00,
2013-03-13 03:56:00,76.7,52.5,30.02,NNW,343,0.0,0.0,43,0.00,,---,0.00,VWS V14.01,2013-03-13 10:56:00,
2013-03-13 03:57:00,76.8,53.3,30.01,NNW,343,0.0,0.0,44,0.00,,---,0.00,VWS V14.01,2013-03-13 10:57:00,
2013-03-13 03:58:00,76.8,53.3,30.01,NNW,338,0.0,0.0,44,0.00,,---,0.00,VWS V14.01,2013-03-13 10:58:00,
2013-03-13 03:59:00,76.9,53.3,30.01,NNW,328,1.0,0.0,44,0.00,,---,0.00,VWS V14.01,2013-03-13 10:59:00,
2013-03-13 04:00:00,76.8,52.6,30.01,NNW,327,0.0,0.0,43,0.00,,---,0.00,VWS V14.01,2013-03-13 11:00:00,
2013-03-13 04:01:00,76.9,52.7,30.01,NNE,26,1.0,0.0,43,0.00,,---,0.00,VWS V14.01,2013-03-13 11:01:00,
2013-03-13 04:02:00,76.9,53.3,30.01,NNE,25,0.0,0.0,44,0.00,,---,0.00,VWS V14.01,2013-03-13 11:02:00,
2013-03-13 04:03:00,77.0,54.1,30.01,NNE,25,0.0,0.0,45,0.00,,---,0.00,VWS V14.01,2013-03-13 11:03:00,
2013-03-13 04:04:00,77.0,54.1,30.01,NNE,29,0.0,0.0,45,0.00,,---,0.00,VWS V14.01,2013-03-13 11:04:00,
2013-03-13 04:05:00,77.1,54.8,30.01,NNE,28,1.0,0.0,46,0.00,,---,0.00,VWS V14.01,2013-03-13 11:05:00,
2013-03-13 04:06:00,77.2,54.2,30.01,NNW,332,0.0,0.0,45,0.00,,---,0.00,VWS V14.01,2013-03-13 11:06:00,
2013-03-13 04:07:00,77.2,54.2,30.01,NE,37,0.0,0.0,45,0.00,,---,0.00,VWS V14.01,2013-03-13 11:07:00,
2013-03-13 04:08:00,77.3,54.3,30.01,NE,48,0.0,0.0,45,0.00,,---,0.00,VWS V14.01,2013-03-13 11:08:00,
2013-03-13 04:09:00,77.3,53.7,30.01,NE,40,1.0,0.0,44,0.00,,---,0.00,VWS V14.01,2013-03-13 11:09:00,
2013-03-13 04:10:00,77.4,55.0,30.01,NNE,29,3.0,0.0,46,0.00,,---,0.00,VWS V14.01,2013-03-13 11:10:00,
2013-03-13 04:11:00,77.5,53.9,30.01,NW,312,4.0,0.0,44,0.00,,---,0.00,VWS V14.01,2013-03-13 11:11:00,
2013-03-13 04:12:00,77.6,53.4,30.01,NNE,23,3.0,0.0,43,0.00,,---,0.00,VWS V14.01,2013-03-13 11:12:00,
2013-03-13 04:13:00,77.6,54.0,30.01,NE,46,2.0,0.0,44,0.00,,---,0.00,VWS V14.01,2013-03-13 11:13:00,
2013-03-13 04:14:00,77.7,54.1,30.01,NNE,22,0.0,0.0,44,0.00,,---,0.00,VWS V14.01,2013-03-13 11:14:00,
2013-03-13 04:15:00,77.8,53.5,30.01,NNW,332,1.0,0.0,43,0.00,,---,0.00,VWS V14.01,2013-03-13 11:15:00,
2013-03-13 04:16:00,77.8,53.5,30.01,NNW,331,0.0,0.0,43,0.00,,---,0.00,VWS V14.01,2013-03-13 11:16:00,
2013-03-13 04:17:00,77.9,53.6,30.01,NNE,19,1.0,0.0,43,0.00,,---,0.00,VWS V14.01,2013-03-13 11:17:00,
2013-03-13 04:18:00,78.0,53.7,30.01,NNE,18,0.0,0.0,43,0.00,,---,0.00,VWS V14.01,2013-03-13 11:18:00,
2013-03-13 04:19:00,78.0,54.3,30.01,NE,55,1.0,0.0,44,0.00,,---,0.00,VWS V14.01,2013-03-13 11:19:00,
2013-03-13 04:20:00,77.9,53.6,30.01,ESE,113,1.0,0.0,43,0.00,,---,0.00,VWS V14.01,2013-03-13 11:20:00,
2013-03-13 04:21:00,77.9,54.3,30.01,NE,53,1.0,0.0,44,0.00,,---,0.00,VWS V14.01,2013-03-13 11:21:00,
2013-03-13 04:22:00,77.8,53.5,30.01,NNE,24,3.0,0.0,43,0.00,,---,0.00,VWS V14.01,2013-03-13 11:22:00,
2013-03-13 04:23:00,77.8,53.5,30.01,NNE,32,7.0,0.0,43,0.00,,---,0.00,VWS V14.01,2013-03-13 11:23:00,
2013-03-13 04:24:00,77.9,53.0,30.01,NE,40,1.0,0.0,42,0.00,,---,0.00,VWS V14.01,2013-03-13 11:24:00,
2013-03-13 04:25:00,78.0,53.1,30.01,North,9,5.0,0.0,42,0.00,,---,0.00,VWS V14.01,2013-03-13 11:25:00,
2013-03-13 04:26:00,78.1,53.2,30.01,NNE,31,4.0,0.0,42,0.00,,---,0.00,VWS V14.01,2013-03-13 11:26:00,
2013-03-13 04:27:00,78.2,53.2,30.01,ENE,67,2.0,0.0,42,0.00,,---,0.00,VWS V14.01,2013-03-13 11:27:00,
2013-03-13 04:28:00,78.3,53.3,30.01,NE,34,4.0,0.0,42,0.00,,---,0.00,VWS V14.01,2013-03-13 11:28:00,
2013-03-13 04:29:00,78.3,53.3,30.01,WNW,292,1.0,0.0,42,0.00,,---,0.00,VWS V14.01,2013-03-13 11:29:00,
2013-03-13 04:30:00,78.3,52.7,30.01,NNE,13,1.0,0.0,41,0.00,,---,0.00,VWS V14.01,2013-03-13 11:30:00,
2013-03-13 04:31:00,78.2,53.2,30.01,NNE,26,3.0,0.0,42,0.00,,---,0.00,VWS V14.01,2013-03-13 11:31:00,
2013-03-13 04:32:00,78.1,53.2,30.01,NNW,348,0.0,0.0,42,0.00,,---,0.00,VWS V14.01,2013-03-13 11:32:00,
2013-03-13 04:33:00,78.1,53.8,30.01,West,268,0.0,0.0,43,0.00,,---,0.00,VWS V14.01,2013-03-13 11:33:00,
2013-03-13 04:34:00,78.0,53.7,30.01,West,270,0.0,0.0,43,0.00,,---,0.00,VWS V14.01,2013-03-13 11:34:00,
2013-03-13 04:35:00,77.9,53.6,30.01,NE,46,1.0,0.0,43,0.00,,---,0.00,VWS V14.01,2013-03-13 11:35:00,
2013-03-13 04:36:00,77.9,53.0,30.01,NE,37,0.0,0.0,42,0.00,,---,0.00,VWS V14.01,2013-03-13 11:36:00,
2013-03-13 04:37:00,77.9,53.6,30.01,NNE,13,1.0,0.0,43,0.00,,---,0.00,VWS V14.01,2013-03-13 11:37:00,
2013-03-13 04:38:00,77.9,53.6,30.01,NE,56,2.0,0.0,43,0.00,,---,0.00,VWS V14.01,2013-03-13 11:38:00,
2013-03-13 04:39:00,78.0,53.7,30.01,NNE,27,1.0,0.0,43,0.00,,---,0.00,VWS V14.01,2013-03-13 11:39:00,
2013-03-13 04:40:00,78.2,53.9,30.01,NNW,327,1.0,0.0,43,0.00,,---,0.00,VWS V14.01,2013-03-13 11:40:00,
2013-03-13 04:41:00,78.3,53.3,30.01,NW,306,0.0,0.0,42,0.00,,---,0.00,VWS V14.01,2013-03-13 11:41:00,
2013-03-13 04:42:00,78.4,53.4,30.01,North,355,3.0,0.0,42,0.00,,---,0.00,VWS V14.01,2013-03-13 11:42:00,
2013-03-13 04:43:00,78.6,53.0,30.01,NNW,329,1.0,0.0,41,0.00,,---,0.00,VWS V14.01,2013-03-13 11:43:00,
2013-03-13 04:44:00,78.7,53.0,30.01,WNW,302,0.0,0.0,41,0.00,,---,0.00,VWS V14.01,2013-03-13 11:44:00,
2013-03-13 04:45:00,78.6,53.6,30.01,WNW,300,1.0,0.0,42,0.00,,---,0.00,VWS V14.01,2013-03-13 11:45:00,
2013-03-13 04:46:00,78.4,52.8,30.01,WNW,297,0.0,0.0,41,0.00,,---,0.00,VWS V14.01,2013-03-13 11:46:00,
2013-03-13 04:47:00,78.3,53.3,30.01,WNW,302,0.0,0.0,42,0.00,,---,0.00,VWS V14.01,2013-03-13 11:47:00,
2013-03-13 04:48:00,78.2,53.2,30.01,NW,316,2.0,0.0,42,0.00,,---,0.00,VWS V14.01,2013-03-13 11:48:00,
2013-03-13 04:49:00,78.1,53.2,30.00,NE,42,1.0,0.0,42,0.00,,---,0.00,VWS V14.01,2013-03-13 11:49:00,
2013-03-13 04:50:00,78.0,53.7,30.00,NNE,20,0.0,0.0,43,0.00,,---,0.00,VWS V14.01,2013-03-13 11:50:00,
2013-03-13 04:51:00,78.0,53.1,30.00,NNW,341,2.0,0.0,42,0.00,,---,0.00,VWS V14.01,2013-03-13 11:51:00,
2013-03-13 04:52:00,78.0,53.1,30.00,North,11,0.0,0.0,42,0.00,,---,0.00,VWS V14.01,2013-03-13 11:52:00,
2013-03-13 04:53:00,78.1,53.8,30.01,East,94,1.0,0.0,43,0.00,,---,0.00,VWS V14.01,2013-03-13 11:53:00,
2013-03-13 04:54:00,78.2,53.2,30.00,ENE,57,3.0,0.0,42,0.00,,---,0.00,VWS V14.01,2013-03-13 11:54:00,
2013-03-13 04:55:00,78.2,53.2,30.00,NE,49,2.0,0.0,42,0.00,,---,0.00,VWS V14.01,2013-03-13 11:55:00,
2013-03-13 04:56:00,78.3,53.3,30.00,NE,46,1.0,0.0,42,0.00,,---,0.00,VWS V14.01,2013-03-13 11:56:00,
2013-03-13 04:57:00,78.4,53.4,30.00,ENE,71,2.0,0.0,42,0.00,,---,0.00,VWS V14.01,2013-03-13 11:57:00,
2013-03-13 04:58:00,78.5,53.5,30.00,ESE,123,4.0,0.0,42,0.00,,---,0.00,VWS V14.01,2013-03-13 11:58:00,
2013-03-13 04:59:00,78.5,54.2,30.00,North,360,2.0,0.0,43,0.00,,---,0.00,VWS V14.01,2013-03-13 11:59:00,
2013-03-13 05:00:00,78.6,54.3,30.00,ENE,63,1.0,0.0,43,0.00,,---,0.00,VWS V14.01,2013-03-13 12:00:00,
2013-03-13 05:01:00,78.6,53.6,30.00,NNE,22,3.0,0.0,42,0.00,,---,0.00,VWS V14.01,2013-03-13 12:01:00,
2013-03-13 05:02:00,78.7,53.7,30.00,NE,55,2.0,0.0,42,0.00,,---,0.00,VWS V14.01,2013-03-13 12:02:00,
2013-03-13 05:03:00,78.7,54.3,30.00,ESE,106,4.0,0.0,43,0.00,,---,0.00,VWS V14.01,2013-03-13 12:03:00,
2013-03-13 05:04:00,78.7,54.3,30.00,NE,51,0.0,0.0,43,0.00,,---,0.00,VWS V14.01,2013-03-13 12:04:00,
2013-03-13 05:05:00,78.7,54.3,30.00,ENE,61,3.0,0.0,43,0.00,,---,0.00,VWS V14.01,2013-03-13 12:05:00,
2013-03-13 05:06:00,78.6,53.6,30.00,NNW,327,3.0,0.0,42,0.00,,---,0.00,VWS V14.01,2013-03-13 12:06:00,
2013-03-13 05:07:00,78.6,54.3,30.00,NNW,336,3.0,0.0,43,0.00,,---,0.00,VWS V14.01,2013-03-13 12:07:00,
2013-03-13 05:08:00,78.6,54.3,30.00,NNE,17,0.0,0.0,43,0.00,,---,0.00,VWS V14.01,2013-03-13 12:08:00,
2013-03-13 05:09:00,78.6,53.6,30.00,NNE,27,3.0,0.0,42,0.00,,---,0.00,VWS V14.01,2013-03-13 12:09:00,
2013-03-13 05:10:00,78.6,54.3,30.00,NNW,328,1.0,0.0,43,0.00,,---,0.00,VWS V14.01,2013-03-13 12:10:00,
2013-03-13 05:11:00,78.7,54.3,30.00,North,355,0.0,0.0,43,0.00,,---,0.00,VWS V14.01,2013-03-13 12:11:00,
2013-03-13 05:12:00,78.6,54.3,30.00,West,275,0.0,0.0,43,0.00,,---,0.00,VWS V14.01,2013-03-13 12:12:00,
2013-03-13 05:13:00,78.5,54.8,30.00,ENE,69,3.0,0.0,44,0.00,,---,0.00,VWS V14.01,2013-03-13 12:13:00,
2013-03-13 05:14:00,78.3,54.0,30.00,ENE,73,1.0,0.0,43,0.00,,---,0.00,VWS V14.01,2013-03-13 12:14:00,
2013-03-13 05:15:00,78.1,54.4,30.00,NE,53,1.0,0.0,44,0.00,,---,0.00,VWS V14.01,2013-03-13 12:15:00,
2013-03-13 05:16:00,78.0,54.3,30.00,NE,44,1.0,0.0,44,0.00,,---,0.00,VWS V14.01,2013-03-13 12:16:00,
2013-03-13 05:17:00,77.9,54.3,30.00,NNE,23,0.0,0.0,44,0.00,,---,0.00,VWS V14.01,2013-03-13 12:17:00,
2013-03-13 05:18:00,77.9,54.9,30.00,NNE,32,2.0,0.0,45,0.00,,---,0.00,VWS V14.01,2013-03-13 12:18:00,
2013-03-13 05:19:00,77.9,54.9,30.00,NE,42,1.0,0.0,45,0.00,,---,0.00,VWS V14.01,2013-03-13 12:19:00,
2013-03-13 05:20:00,78.0,54.3,30.00,NNE,12,1.0,0.0,44,0.00,,---,0.00,VWS V14.01,2013-03-13 12:20:00,
2013-03-13 05:21:00,78.0,54.3,30.00,NE,49,4.0,0.0,44,0.00,,---,0.00,VWS V14.01,2013-03-13 12:21:00,
2013-03-13 05:22:00,78.0,54.3,30.00,North,11,1.0,0.0,44,0.00,,---,0.00,VWS V14.01,2013-03-13 12:22:00,
2013-03-13 05:23:00,78.1,55.0,30.00,NNW,340,1.0,0.0,45,0.00,,---,0.00,VWS V14.01,2013-03-13 12:23:00,
2013-03-13 05:24:00,78.0,55.0,30.00,NE,53,1.0,0.0,45,0.00,,---,0.00,VWS V14.01,2013-03-13 12:24:00,
2013-03-13 05:25:00,77.9,54.3,30.00,North,5,2.0,0.0,44,0.00,,---,0.00,VWS V14.01,2013-03-13 12:25:00,
2013-03-13 05:26:00,77.9,54.3,30.00,NNW,336,1.0,0.0,44,0.00,,---,0.00,VWS V14.01,2013-03-13 12:26:00,
2013-03-13 05:27:00,77.9,54.3,30.00,NW,306,0.0,0.0,44,0.00,,---,0.00,VWS V14.01,2013-03-13 12:27:00,
2013-03-13 05:28:00,77.8,54.2,30.00,WNW,298,0.0,0.0,44,0.00,,---,0.00,VWS V14.01,2013-03-13 12:28:00,
2013-03-13 05:29:00,77.7,54.1,30.00,NE,50,3.0,0.0,44,0.00,,---,0.00,VWS V14.01,2013-03-13 12:29:00,
2013-03-13 05:30:00,77.5,53.3,30.00,NE,46,1.0,0.0,43,0.00,,---,0.00,VWS V14.01,2013-03-13 12:30:00,
2013-03-13 05:31:00,77.5,53.3,30.00,NE,53,1.0,0.0,43,0.00,,---,0.00,VWS V14.01,2013-03-13 12:31:00,
2013-03-13 05:32:00,77.4,53.8,30.00,NE,44,2.0,0.0,44,0.00,,---,0.00,VWS V14.01,2013-03-13 12:32:00,
2013-03-13 05:33:00,77.3,53.1,30.00,ENE,73,1.0,0.0,43,0.00,,---,0.00,VWS V14.01,2013-03-13 12:33:00,
2013-03-13 05:34:00,77.2,53.0,30.00,East,84,0.0,0.0,43,0.00,,---,0.00,VWS V14.01,2013-03-13 12:34:00,
2013-03-13 05:35:00,77.1,52.9,30.00,NE,53,1.0,0.0,43,0.00,,---,0.00,VWS V14.01,2013-03-13 12:35:00,
2013-03-13 05:36:00,77.0,52.8,30.00,NE,53,0.0,0.0,43,0.00,,---,0.00,VWS V14.01,2013-03-13 12:36:00,
2013-03-13 05:37:00,76.9,53.3,30.00,ENE,62,2.0,0.0,44,0.00,,---,0.00,VWS V14.01,2013-03-13 12:37:00,
2013-03-13 05:38:00,76.8,53.3,30.00,NE,42,1.0,0.0,44,0.00,,---,0.00,VWS V14.01,2013-03-13 12:38:00,
2013-03-13 05:39:00,76.7,53.2,30.00,ENE,74,1.0,0.0,44,0.00,,---,0.00,VWS V14.01,2013-03-13 12:39:00,
2013-03-13 05:40:00,76.7,53.2,30.00,ESE,115,4.0,0.0,44,0.00,,---,0.00,VWS V14.01,2013-03-13 12:40:00,
2013-03-13 05:41:00,76.6,53.1,30.00,ESE,113,1.0,0.0,44,0.00,,---,0.00,VWS V14.01,2013-03-13 12:41:00,
2013-03-13 05:42:00,76.5,53.0,30.00,ESE,113,0.0,0.0,44,0.00,,---,0.00,VWS V14.01,2013-03-13 12:42:00,
2013-03-13 05:43:00,76.4,53.5,30.00,East,88,1.0,0.0,45,0.00,,---,0.00,VWS V14.01,2013-03-13 12:43:00,
2013-03-13 05:44:00,76.3,52.8,30.00,North,9,0.0,0.0,44,0.00,,---,0.00,VWS V14.01,2013-03-13 12:44:00,
2013-03-13 05:45:00,76.2,52.7,30.00,NNE,15,0.0,0.0,44,0.00,,---,0.00,VWS V14.01,2013-03-13 12:45:00,
2013-03-13 05:46:00,76.2,53.3,30.00,ENE,75,0.0,0.0,45,0.00,,---,0.00,VWS V14.01,2013-03-13 12:46:00,
2013-03-13 05:47:00,76.2,52.7,29.99,ENE,75,0.0,0.0,44,0.00,,---,0.00,VWS V14.01,2013-03-13 12:47:00,
2013-03-13 05:48:00,76.1,53.2,29.99,NNW,340,2.0,0.0,45,0.00,,---,0.00,VWS V14.01,2013-03-13 12:48:00,
2013-03-13 05:49:00,76.2,53.3,30.00,NNW,334,0.0,0.0,45,0.00,,---,0.00,VWS V14.01,2013-03-13 12:49:00,
2013-03-13 05:50:00,76.2,53.3,30.00,NW,326,2.0,0.0,45,0.00,,---,0.00,VWS V14.01,2013-03-13 12:50:00,
2013-03-13 05:51:00,76.1,52.6,30.00,West,279,0.0,0.0,44,0.00,,---,0.00,VWS V14.01,2013-03-13 12:51:00,
2013-03-13 05:52:00,75.9,52.5,30.00,NW,321,0.0,0.0,44,0.00,,---,0.00,VWS V14.01,2013-03-13 12:52:00,
2013-03-13 05:53:00,75.8,52.4,30.00,NNE,24,1.0,0.0,44,0.00,,---,0.00,VWS V14.01,2013-03-13 12:53:00,
2013-03-13 05:54:00,75.7,52.9,30.00,NE,42,1.0,0.0,45,0.00,,---,0.00,VWS V14.01,2013-03-13 12:54:00,
2013-03-13 05:55:00,75.7,52.9,30.00,NNE,15,1.0,0.0,45,0.00,,---,0.00,VWS V14.01,2013-03-13 12:55:00,
2013-03-13 05:56:00,75.7,52.3,29.99,WNW,288,4.0,0.0,44,0.00,,---,0.00,VWS V14.01,2013-03-13 12:56:00,
2013-03-13 05:57:00,75.6,52.8,29.99,NW,320,1.0,0.0,45,0.00,,---,0.00,VWS V14.01,2013-03-13 12:57:00,
2013-03-13 05:58:00,75.4,52.6,29.99,NW,320,0.0,0.0,45,0.00,,---,0.00,VWS V14.01,2013-03-13 12:58:00,
2013-03-13 05:59:00,75.4,52.0,29.99,NNW,328,1.0,0.0,44,0.00,,---,0.00,VWS V14.01,2013-03-13 12:59:00,
2013-03-13 06:00:00,75.4,52.0,29.99,NNW,328,0.0,0.0,44,0.00,,---,0.00,VWS V14.01,2013-03-13 13:00:00,
2013-03-13 06:01:00,75.3,51.9,29.99,NNW,327,0.0,0.0,44,0.00,,---,0.00,VWS V14.01,2013-03-13 13:01:00,
2013-03-13 06:02:00,75.4,53.2,29.99,North,9,1.0,0.0,46,0.00,,---,0.00,VWS V14.01,2013-03-13 13:02:00,
2013-03-13 06:03:00,75.4,53.2,29.99,NNE,14,0.0,0.0,46,0.00,,---,0.00,VWS V14.01,2013-03-13 13:03:00,
2013-03-13 06:04:00,75.4,52.0,29.99,NNE,13,0.0,0.0,44,0.00,,---,0.00,VWS V14.01,2013-03-13 13:04:00,
2013-03-13 06:05:00,75.4,52.0,29.99,NNE,15,0.0,0.0,44,0.00,,---,0.00,VWS V14.01,2013-03-13 13:05:00,
2013-03-13 06:06:00,75.4,51.4,29.99,NNE,15,0.0,0.0,43,0.00,,---,0.00,VWS V14.01,2013-03-13 13:06:00,
2013-03-13 06:07:00,75.4,52.0,29.99,NNE,15,0.0,0.0,44,0.00,,---,0.00,VWS V14.01,2013-03-13 13:07:00,
2013-03-13 06:08:00,75.5,52.1,29.99,NNE,17,5.0,0.0,44,0.00,,---,0.00,VWS V14.01,2013-03-13 13:08:00,
2013-03-13 06:09:00,75.6,52.2,29.99,NNE,28,2.0,0.0,44,0.00,,---,0.00,VWS V14.01,2013-03-13 13:09:00,
2013-03-13 06:10:00,75.7,51.6,29.99,NNE,24,0.0,0.0,43,0.00,,---,0.00,VWS V14.01,2013-03-13 13:10:00,
2013-03-13 06:11:00,75.8,52.4,29.99,NNE,24,0.0,0.0,44,0.00,,---,0.00,VWS V14.01,2013-03-13 13:11:00,
2013-03-13 06:12:00,75.8,51.7,29.99,West,281,2.0,0.0,43,0.00,,---,0.00,VWS V14.01,2013-03-13 13:12:00,
2013-03-13 06:13:00,75.8,51.7,29.99,NNE,32,1.0,0.0,43,0.00,,---,0.00,VWS V14.01,2013-03-13 13:13:00,
2013-03-13 06:14:00,75.9,51.8,29.99,NNE,27,1.0,0.0,43,0.00,,---,0.00,VWS V14.01,2013-03-13 13:14:00,
2013-03-13 06:15:00,75.9,52.5,29.99,NNW,344,3.0,0.0,44,0.00,,---,0.00,VWS V14.01,2013-03-13 13:15:00,
2013-03-13 06:16:00,76.0,52.5,29.99,NNW,346,1.0,0.0,44,0.00,,---,0.00,VWS V14.01,2013-03-13 13:16:00,
2013-03-13 06:17:00,76.0,51.9,29.99,North,349,0.0,0.0,43,0.00,,---,0.00,VWS V14.01,2013-03-13 13:17:00,
2013-03-13 06:18:00,76.0,52.5,29.99,North,349,0.0,0.0,44,0.00,,---,0.00,VWS V14.01,2013-03-13 13:18:00,
2013-03-13 06:19:00,76.1,52.0,29.99,East,83,0.0,0.0,43,0.00,,---,0.00,VWS V14.01,2013-03-13 13:19:00,
2013-03-13 06:20:00,76.2,52.1,29.99,East,83,0.0,0.0,43,0.00,,---,0.00,VWS V14.01,2013-03-13 13:20:00,
2013-03-13 06:21:00,76.2,51.5,29.99,ENE,76,0.0,0.0,42,0.00,,---,0.00,VWS V14.01,2013-03-13 13:21:00,
2013-03-13 06:22:00,76.3,52.2,29.99,ENE,76,0.0,0.0,43,0.00,,---,0.00,VWS V14.01,2013-03-13 13:22:00,
2013-03-13 06:23:00,76.2,51.5,29.99,ENE,76,0.0,0.0,42,0.00,,---,0.00,VWS V14.01,2013-03-13 13:23:00,
2013-03-13 06:24:00,76.2,51.5,29.99,ENE,76,0.0,0.0,42,0.00,,---,0.00,VWS V14.01,2013-03-13 13:24:00,
2013-03-13 06:25:00,76.2,52.1,29.99,ENE,76,0.0,0.0,43,0.00,,---,0.00,VWS V14.01,2013-03-13 13:25:00,
2013-03-13 06:26:00,76.1,51.4,29.99,ENE,76,0.0,0.0,42,0.00,,---,0.00,VWS V14.01,2013-03-13 13:26:00,
2013-03-13 06:27:00,76.1,51.4,29.99,ENE,76,0.0,0.0,42,0.00,,---,0.00,VWS V14.01,2013-03-13 13:27:00,
2013-03-13 06:28:00,76.0,52.5,29.99,ENE,76,0.0,0.0,44,0.00,,---,0.00,VWS V14.01,2013-03-13 13:28:00,
2013-03-13 06:29:00,76.0,53.2,29.99,ENE,76,0.0,0.0,45,0.00,,---,0.00,VWS V14.01,2013-03-13 13:29:00,
2013-03-13 06:30:00,76.0,52.5,29.99,East,91,2.0,0.0,44,0.00,,---,0.00,VWS V14.01,2013-03-13 13:30:00,
2013-03-13 06:31:00,75.9,51.8,29.99,East,91,0.0,0.0,43,0.00,,---,0.00,VWS V14.01,2013-03-13 13:31:00,
2013-03-13 06:32:00,75.9,51.8,29.99,East,91,0.0,0.0,43,0.00,,---,0.00,VWS V14.01,2013-03-13 13:32:00,
2013-03-13 06:33:00,75.9,51.8,29.99,East,91,0.0,0.0,43,0.00,,---,0.00,VWS V14.01,2013-03-13 13:33:00,
2013-03-13 06:34:00,75.9,52.5,29.99,NW,316,0.0,0.0,44,0.00,,---,0.00,VWS V14.01,2013-03-13 13:34:00,
2013-03-13 06:35:00,75.9,52.5,29.99,West,270,1.0,0.0,44,0.00,,---,0.00,VWS V14.01,2013-03-13 13:35:00,
2013-03-13 06:36:00,75.9,52.5,29.99,North,351,2.0,0.0,44,0.00,,---,0.00,VWS V14.01,2013-03-13 13:36:00,
2013-03-13 06:37:00,75.9,52.5,29.99,NE,42,2.0,0.0,44,0.00,,---,0.00,VWS V14.01,2013-03-13 13:37:00,
2013-03-13 06:38:00,76.0,51.9,29.99,NNW,330,1.0,0.0,43,0.00,,---,0.00,VWS V14.01,2013-03-13 13:38:00,
2013-03-13 06:39:00,76.0,52.5,29.99,NNE,20,3.0,0.0,44,0.00,,---,0.00,VWS V14.01,2013-03-13 13:39:00,
2013-03-13 06:40:00,76.0,51.9,29.99,NE,38,1.0,0.0,43,0.00,,---,0.00,VWS V14.01,2013-03-13 13:40:00,
2013-03-13 06:41:00,76.0,51.9,29.99,WNW,292,1.0,0.0,43,0.00,,---,0.00,VWS V14.01,2013-03-13 13:41:00,
2013-03-13 06:42:00,76.0,51.9,29.99,NW,315,2.0,0.0,43,0.00,,---,0.00,VWS V14.01,2013-03-13 13:42:00,
2013-03-13 06:43:00,76.1,52.0,29.99,NE,38,1.0,0.0,43,0.00,,---,0.00,VWS V14.01,2013-03-13 13:43:00,
2013-03-13 06:44:00,76.1,52.0,29.99,NNW,338,5.0,0.0,43,0.00,,---,0.00,VWS V14.01,2013-03-13 13:44:00,
2013-03-13 06:45:00,76.1,52.0,29.99,North,9,1.0,0.0,43,0.00,,---,0.00,VWS V14.01,2013-03-13 13:45:00,
2013-03-13 06:46:00,76.1,52.0,29.99,North,9,0.0,0.0,43,0.00,,---,0.00,VWS V14.01,2013-03-13 13:46:00,
2013-03-13 06:47:00,76.2,52.1,29.99,NE,45,0.0,0.0,43,0.00,,---,0.00,VWS V14.01,2013-03-13 13:47:00,
2013-03-13 06:48:00,76.2,51.5,29.98,NE,41,0.0,0.0,42,0.00,,---,0.00,VWS V14.01,2013-03-13 13:48:00,
2013-03-13 06:49:00,76.2,52.1,29.98,NE,39,1.0,0.0,43,0.00,,---,0.00,VWS V14.01,2013-03-13 13:49:00,
2013-03-13 06:50:00,76.2,51.5,29.98,NE,40,0.0,0.0,42,0.00,,---,0.00,VWS V14.01,2013-03-13 13:50:00,
2013-03-13 06:51:00,76.2,51.5,29.98,NNE,24,5.0,0.0,42,0.00,,---,0.00,VWS V14.01,2013-03-13 13:51:00,
2013-03-13 06:52:00,76.1,51.4,29.98,North,360,2.0,0.0,42,0.00,,---,0.00,VWS V14.01,2013-03-13 13:52:00,
2013-03-13 06:53:00,76.1,51.4,29.98,NNW,335,0.0,0.0,42,0.00,,---,0.00,VWS V14.01,2013-03-13 13:53:00,
2013-03-13 06:54:00,76.1,52.0,29.98,NNE,29,0.0,0.0,43,0.00,,---,0.00,VWS V14.01,2013-03-13 13:54:00,
2013-03-13 06:55:00,76.2,52.1,29.99,NNE,21,3.0,0.0,43,0.00,,---,0.00,VWS V14.01,2013-03-13 13:55:00,
2013-03-13 06:56:00,76.2,51.5,29.99,NE,36,1.0,0.0,42,0.00,,---,0.00,VWS V14.01,2013-03-13 13:56:00,
2013-03-13 06:57:00,76.2,51.5,29.99,NE,36,0.0,0.0,42,0.00,,---,0.00,VWS V14.01,2013-03-13 13:57:00,
2013-03-13 06:58:00,76.2,51.5,29.99,NNE,30,3.0,0.0,42,0.00,,---,0.00,VWS V14.01,2013-03-13 13:58:00,
2013-03-13 06:59:00,76.2,51.5,29.99,NNE,22,0.0,0.0,42,0.00,,---,0.00,VWS V14.01,2013-03-13 13:59:00,
2013-03-13 07:00:00,76.2,51.5,29.99,NNE,26,0.0,0.0,42,0.00,,---,0.00,VWS V14.01,2013-03-13 14:00:00,
2013-03-13 07:01:00,76.2,51.5,29.99,NE,41,0.0,0.0,42,0.00,,---,0.00,VWS V14.01,2013-03-13 14:01:00,
2013-03-13 07:02:00,76.1,51.4,29.99,NE,49,0.0,0.0,42,0.00,,---,0.00,VWS V14.01,2013-03-13 14:02:00,
2013-03-13 07:03:00,76.1,50.7,29.99,NE,51,0.0,0.0,41,0.00,,---,0.00,VWS V14.01,2013-03-13 14:03:00,
2013-03-13 07:04:00,76.0,50.6,29.99,ENE,58,0.0,0.0,41,0.00,,---,0.00,VWS V14.01,2013-03-13 14:04:00,
2013-03-13 07:05:00,76.0,51.3,29.99,ENE,59,0.0,0.0,42,0.00,,---,0.00,VWS V14.01,2013-03-13 14:05:00,
2013-03-13 07:06:00,75.9,51.8,29.99,NE,45,1.0,0.0,43,0.00,,---,0.00,VWS V14.01,2013-03-13 14:06:00,
2013-03-13 07:07:00,75.9,51.8,29.99,West,279,3.0,0.0,43,0.00,,---,0.00,VWS V14.01,2013-03-13 14:07:00,
2013-03-13 07:08:00,75.9,50.5,29.99,West,281,2.0,0.0,41,0.00,,---,0.00,VWS V14.01,2013-03-13 14:08:00,
2013-03-13 07:09:00,75.8,50.5,29.98,West,278,1.0,0.0,41,0.00,,---,0.00,VWS V14.01,2013-03-13 14:09:00,
2013-03-13 07:10:00,75.7,50.4,29.98,West,277,0.0,0.0,41,0.00,,---,0.00,VWS V14.01,2013-03-13 14:10:00,
2013-03-13 07:11:00,75.7,50.4,29.98,West,277,0.0,0.0,41,0.00,,---,0.00,VWS V14.01,2013-03-13 14:11:00,
2013-03-13 07:12:00,75.6,50.3,29.98,West,278,0.0,0.0,41,0.00,,---,0.00,VWS V14.01,2013-03-13 14:12:00,
2013-03-13 07:13:00,75.6,50.9,29.98,West,278,0.0,0.0,42,0.00,,---,0.00,VWS V14.01,2013-03-13 14:13:00,
2013-03-13 07:14:00,75.5,50.8,29.98,North,355,0.0,0.0,42,0.00,,---,0.00,VWS V14.01,2013-03-13 14:14:00,
2013-03-13 07:15:00,75.5,50.8,29.98,NNE,22,0.0,0.0,42,0.00,,---,0.00,VWS V14.01,2013-03-13 14:15:00,
2013-03-13 07:16:00,75.5,50.8,29.98,NNE,22,0.0,0.0,42,0.00,,---,0.00,VWS V14.01,2013-03-13 14:16:00,
2013-03-13 07:17:00,75.5,50.8,29.98,North,355,2.0,0.0,42,0.00,,---,0.00,VWS V14.01,2013-03-13 14:17:00,
2013-03-13 07:18:00,75.5,50.8,29.98,NNE,31,2.0,0.0,42,0.00,,---,0.00,VWS V14.01,2013-03-13 14:18:00,
2013-03-13 07:19:00,75.4,50.7,29.98,NNE,29,2.0,0.0,42,0.00,,---,0.00,VWS V14.01,2013-03-13 14:19:00,
2013-03-13 07:20:00,75.5,50.8,29.98,NNE,29,0.0,0.0,42,0.00,,---,0.00,VWS V14.01,2013-03-13 14:20:00,
2013-03-13 07:21:00,75.5,50.8,29.98,NNE,18,0.0,0.0,42,0.00,,---,0.00,VWS V14.01,2013-03-13 14:21:00,
2013-03-13 07:22:00,75.5,50.8,29.98,NNE,16,1.0,0.0,42,0.00,,---,0.00,VWS V14.01,2013-03-13 14:22:00,
2013-03-13 07:23:00,75.5,50.8,29.98,NNE,17,1.0,0.0,42,0.00,,---,0.00,VWS V14.01,2013-03-13 14:23:00,
2013-03-13 07:24:00,75.5,50.8,29.98,NNE,16,0.0,0.0,42,0.00,,---,0.00,VWS V14.01,2013-03-13 14:24:00,
2013-03-13 07:25:00,75.5,51.5,29.98,NNE,16,0.0,0.0,43,0.00,,---,0.00,VWS V14.01,2013-03-13 14:25:00,
2013-03-13 07:26:00,75.5,51.5,29.98,NNE,16,0.0,0.0,43,0.00,,---,0.00,VWS V14.01,2013-03-13 14:26:00,
2013-03-13 07:27:00,75.5,52.1,29.98,NNE,16,0.0,0.0,44,0.00,,---,0.00,VWS V14.01,2013-03-13 14:27:00,
2013-03-13 07:28:00,75.5,52.7,29.98,NNE,16,0.0,0.0,45,0.00,,---,0.00,VWS V14.01,2013-03-13 14:28:00,
2013-03-13 07:29:00,75.5,52.1,29.98,SW,221,0.0,0.0,44,0.00,,---,0.00,VWS V14.01,2013-03-13 14:29:00,
2013-03-13 07:30:00,75.4,53.2,29.98,SW,221,0.0,0.0,46,0.00,,---,0.00,VWS V14.01,2013-03-13 14:30:00,
2013-03-13 07:31:00,75.4,52.0,29.98,SW,219,1.0,0.0,44,0.00,,---,0.00,VWS V14.01,2013-03-13 14:31:00,
2013-03-13 07:32:00,75.3,51.3,29.98,SW,228,0.0,0.0,43,0.00,,---,0.00,VWS V14.01,2013-03-13 14:32:00,
2013-03-13 07:33:00,75.3,51.3,29.98,SW,225,0.0,0.0,43,0.00,,---,0.00,VWS V14.01,2013-03-13 14:33:00,
2013-03-13 07:34:00,75.2,50.6,29.98,SW,225,0.0,0.0,42,0.00,,---,0.00,VWS V14.01,2013-03-13 14:34:00,
2013-03-13 07:35:00,75.2,51.8,29.97,SW,225,1.0,0.0,44,0.00,,---,0.00,VWS V14.01,2013-03-13 14:35:00,
2013-03-13 07:36:00,75.1,51.1,29.97,SW,224,0.0,0.0,43,0.00,,---,0.00,VWS V14.01,2013-03-13 14:36:00,
2013-03-13 07:37:00,75.1,50.5,29.97,SW,236,1.0,0.0,42,0.00,,---,0.00,VWS V14.01,2013-03-13 14:37:00,
2013-03-13 07:38:00,75.0,50.4,29.97,WSW,248,0.0,0.0,42,0.00,,---,0.00,VWS V14.01,2013-03-13 14:38:00,
2013-03-13 07:39:00,75.0,50.4,29.97,WNW,282,1.0,0.0,42,0.00,,---,0.00,VWS V14.01,2013-03-13 14:39:00,
2013-03-13 07:40:00,75.0,50.4,29.97,WNW,291,0.0,0.0,42,0.00,,---,0.00,VWS V14.01,2013-03-13 14:40:00,
2013-03-13 07:41:00,74.9,50.9,29.97,WNW,292,0.0,0.0,43,0.00,,---,0.00,VWS V14.01,2013-03-13 14:41:00,
2013-03-13 07:42:00,74.9,51.5,29.97,WNW,291,0.0,0.0,44,0.00,,---,0.00,VWS V14.01,2013-03-13 14:42:00,
2013-03-13 07:43:00,74.9,52.2,29.97,WNW,291,0.0,0.0,45,0.00,,---,0.00,VWS V14.01,2013-03-13 14:43:00,
2013-03-13 07:44:00,74.9,52.2,29.97,WNW,292,0.0,0.0,45,0.00,,---,0.00,VWS V14.01,2013-03-13 14:44:00,
2013-03-13 07:45:00,74.8,51.5,29.97,WNW,292,0.0,0.0,44,0.00,,---,0.00,VWS V14.01,2013-03-13 14:45:00,
2013-03-13 07:46:00,74.8,51.5,29.97,ENE,65,2.0,0.0,44,0.00,,---,0.00,VWS V14.01,2013-03-13 14:46:00,
2013-03-13 07:47:00,74.8,50.2,29.97,ENE,66,1.0,0.0,42,0.00,,---,0.00,VWS V14.01,2013-03-13 14:47:00,
2013-03-13 07:48:00,74.7,50.1,29.97,ENE,66,0.0,0.0,42,0.00,,---,0.00,VWS V14.01,2013-03-13 14:48:00,
2013-03-13 07:49:00,74.7,50.7,29.97,ENE,66,0.0,0.0,43,0.00,,---,0.00,VWS V14.01,2013-03-13 14:49:00,
2013-03-13 07:50:00,74.7,50.7,29.97,ENE,66,0.0,0.0,43,0.00,,---,0.00,VWS V14.01,2013-03-13 14:50:00,
2013-03-13 07:51:00,74.6,50.7,29.97,ENE,65,0.0,0.0,43,0.00,,---,0.00,VWS V14.01,2013-03-13 14:51:00,
2013-03-13 07:52:00,74.6,51.3,29.97,ENE,66,0.0,0.0,44,0.00,,---,0.00,VWS V14.01,2013-03-13 14:52:00,
2013-03-13 07:53:00,74.6,51.3,29.97,ENE,66,0.0,0.0,44,0.00,,---,0.00,VWS V14.01,2013-03-13 14:53:00,
2013-03-13 07:54:00,74.6,51.3,29.97,ENE,66,0.0,0.0,44,0.00,,---,0.00,VWS V14.01,2013-03-13 14:54:00,
2013-03-13 07:55:00,74.5,51.2,29.97,ENE,67,0.0,0.0,44,0.00,,---,0.00,VWS V14.01,2013-03-13 14:55:00,
2013-03-13 07:56:00,74.5,51.2,29.97,ENE,66,0.0,0.0,44,0.00,,---,0.00,VWS V14.01,2013-03-13 14:56:00,
2013-03-13 07:57:00,74.5,51.2,29.97,ENE,66,0.0,0.0,44,0.00,,---,0.00,VWS V14.01,2013-03-13 14:57:00,
2013-03-13 07:58:00,74.5,52.4,29.97,ENE,66,0.0,0.0,46,0.00,,---,0.00,VWS V14.01,2013-03-13 14:58:00,
2013-03-13 07:59:00,74.4,52.3,29.97,ENE,66,0.0,0.0,46,0.00,,---,0.00,VWS V14.01,2013-03-13 14:59:00,
2013-03-13 08:00:00,74.4,52.3,29.97,ENE,66,0.0,0.0,46,0.00,,---,0.00,VWS V14.01,2013-03-13 15:00:00,
2013-03-13 08:01:00,74.4,52.3,29.97,ENE,66,0.0,0.0,46,0.00,,---,0.00,VWS V14.01,2013-03-13 15:01:00,
2013-03-13 08:02:00,74.3,52.2,29.97,ENE,66,1.0,0.0,46,0.00,,---,0.00,VWS V14.01,2013-03-13 15:02:00,
2013-03-13 08:03:00,74.3,50.4,29.97,East,86,0.0,0.0,43,0.00,,---,0.00,VWS V14.01,2013-03-13 15:03:00,
2013-03-13 08:04:00,74.2,49.0,29.97,East,86,0.0,0.0,41,0.00,,---,0.00,VWS V14.01,2013-03-13 15:04:00,
2013-03-13 08:05:00,74.2,49.7,29.97,East,86,0.0,0.0,42,0.00,,---,0.00,VWS V14.01,2013-03-13 15:05:00,
2013-03-13 08:06:00,74.1,49.6,29.97,East,86,0.0,0.0,42,0.00,,---,0.00,VWS V14.01,2013-03-13 15:06:00,
2013-03-13 08:07:00,74.1,50.2,29.97,East,86,0.0,0.0,43,0.00,,---,0.00,VWS V14.01,2013-03-13 15:07:00,
2013-03-13 08:08:00,74.1,50.8,29.97,East,88,0.0,0.0,44,0.00,,---,0.00,VWS V14.01,2013-03-13 15:08:00,
2013-03-13 08:09:00,74.1,49.6,29.97,East,86,0.0,0.0,42,0.00,,---,0.00,VWS V14.01,2013-03-13 15:09:00,
2013-03-13 08:10:00,74.0,50.1,29.97,East,86,0.0,0.0,43,0.00,,---,0.00,VWS V14.01,2013-03-13 15:10:00,
2013-03-13 08:11:00,74.0,50.1,29.97,East,86,0.0,0.0,43,0.00,,---,0.00,VWS V14.01,2013-03-13 15:11:00,
2013-03-13 08:12:00,74.0,50.1,29.97,East,86,0.0,0.0,43,0.00,,---,0.00,VWS V14.01,2013-03-13 15:12:00,
2013-03-13 08:13:00,73.9,49.4,29.97,East,86,0.0,0.0,42,0.00,,---,0.00,VWS V14.01,2013-03-13 15:13:00,
2013-03-13 08:14:00,73.9,50.6,29.97,East,86,0.0,0.0,44,0.00,,---,0.00,VWS V14.01,2013-03-13 15:14:00,
2013-03-13 08:15:00,73.9,50.6,29.97,East,86,0.0,0.0,44,0.00,,---,0.00,VWS V14.01,2013-03-13 15:15:00,
2013-03-13 08:16:00,73.9,50.6,29.97,North,9,1.0,0.0,44,0.00,,---,0.00,VWS V14.01,2013-03-13 15:16:00,
2013-03-13 08:17:00,73.8,50.5,29.97,North,10,0.0,0.0,44,0.00,,---,0.00,VWS V14.01,2013-03-13 15:17:00,
2013-03-13 08:18:00,73.8,50.5,29.97,North,11,0.0,0.0,44,0.00,,---,0.00,VWS V14.01,2013-03-13 15:18:00,
2013-03-13 08:19:00,73.8,49.9,29.97,North,10,0.0,0.0,43,0.00,,---,0.00,VWS V14.01,2013-03-13 15:19:00,
2013-03-13 08:20:00,73.8,50.5,29.97,North,11,0.0,0.0,44,0.00,,---,0.00,VWS V14.01,2013-03-13 15:20:00,
2013-03-13 08:21:00,73.7,51.1,29.97,North,10,0.0,0.0,45,0.00,,---,0.00,VWS V14.01,2013-03-13 15:21:00,
2013-03-13 08:22:00,73.7,51.1,29.97,North,10,0.0,0.0,45,0.00,,---,0.00,VWS V14.01,2013-03-13 15:22:00,
2013-03-13 08:23:00,73.6,51.0,29.97,North,10,0.0,0.0,45,0.00,,---,0.00,VWS V14.01,2013-03-13 15:23:00,
2013-03-13 08:24:00,73.6,51.0,29.97,North,10,0.0,0.0,45,0.00,,---,0.00,VWS V14.01,2013-03-13 15:24:00,
2013-03-13 08:25:00,73.5,50.9,29.97,North,10,0.0,0.0,45,0.00,,---,0.00,VWS V14.01,2013-03-13 15:25:00,
2013-03-13 08:26:00,73.5,50.9,29.97,North,10,0.0,0.0,45,0.00,,---,0.00,VWS V14.01,2013-03-13 15:26:00,
2013-03-13 08:27:00,73.4,51.4,29.97,North,10,0.0,0.0,46,0.00,,---,0.00,VWS V14.01,2013-03-13 15:27:00,
2013-03-13 08:28:00,73.4,51.4,29.97,North,10,0.0,0.0,46,0.00,,---,0.00,VWS V14.01,2013-03-13 15:28:00,
2013-03-13 08:29:00,73.3,51.3,29.97,North,10,0.0,0.0,46,0.00,,---,0.00,VWS V14.01,2013-03-13 15:29:00,
2013-03-13 08:30:00,73.3,51.3,29.97,North,10,0.0,0.0,46,0.00,,---,0.00,VWS V14.01,2013-03-13 15:30:00,
2013-03-13 08:31:00,73.3,51.3,29.97,North,11,0.0,0.0,46,0.00,,---,0.00,VWS V14.01,2013-03-13 15:31:00,
2013-03-13 08:32:00,73.2,51.2,29.97,North,10,0.0,0.0,46,0.00,,---,0.00,VWS V14.01,2013-03-13 15:32:00,
2013-03-13 08:33:00,73.2,51.8,29.97,North,10,0.0,0.0,47,0.00,,---,0.00,VWS V14.01,2013-03-13 15:33:00,
2013-03-13 08:34:00,73.1,51.7,29.97,North,10,0.0,0.0,47,0.00,,---,0.00,VWS V14.01,2013-03-13 15:34:00,
2013-03-13 08:35:00,73.1,51.7,29.97,North,10,0.0,0.0,47,0.00,,---,0.00,VWS V14.01,2013-03-13 15:35:00,
2013-03-13 08:36:00,73.1,51.1,29.97,North,10,0.0,0.0,46,0.00,,---,0.00,VWS V14.01,2013-03-13 15:36:00,
2013-03-13 08:37:00,73.0,51.0,29.97,North,10,0.0,0.0,46,0.00,,---,0.00,VWS V14.01,2013-03-13 15:37:00,
2013-03-13 08:38:00,73.0,51.0,29.97,North,10,0.0,0.0,46,0.00,,---,0.00,VWS V14.01,2013-03-13 15:38:00,
2013-03-13 08:39:00,73.0,51.0,29.97,North,11,0.0,0.0,46,0.00,,---,0.00,VWS V14.01,2013-03-13 15:39:00,
2013-03-13 08:40:00,72.9,52.1,29.97,North,10,0.0,0.0,48,0.00,,---,0.00,VWS V14.01,2013-03-13 15:40:00,
2013-03-13 08:41:00,72.8,52.0,29.97,North,10,0.0,0.0,48,0.00,,---,0.00,VWS V14.01,2013-03-13 15:41:00,
2013-03-13 08:42:00,72.7,53.0,29.97,North,10,0.0,0.0,50,0.00,,---,0.00,VWS V14.01,2013-03-13 15:42:00,
2013-03-13 08:43:00,72.6,52.9,29.97,North,10,0.0,0.0,50,0.00,,---,0.00,VWS V14.01,2013-03-13 15:43:00,
2013-03-13 08:44:00,72.5,52.3,29.97,North,10,0.0,0.0,49,0.00,,---,0.00,VWS V14.01,2013-03-13 15:44:00,
2013-03-13 08:45:00,72.4,52.7,29.97,North,10,0.0,0.0,50,0.00,,---,0.00,VWS V14.01,2013-03-13 15:45:00,
2013-03-13 08:46:00,72.3,53.2,29.97,North,10,0.0,0.0,51,0.00,,---,0.00,VWS V14.01,2013-03-13 15:46:00,
2013-03-13 08:47:00,72.1,53.0,29.97,North,10,0.0,0.0,51,0.00,,---,0.00,VWS V14.01,2013-03-13 15:47:00,
2013-03-13 08:48:00,71.9,52.8,29.97,North,11,0.0,0.0,51,0.00,,---,0.00,VWS V14.01,2013-03-13 15:48:00,
2013-03-13 08:49:00,71.8,52.7,29.97,North,10,0.0,0.0,51,0.00,,---,0.00,VWS V14.01,2013-03-13 15:49:00,
2013-03-13 08:50:00,71.7,52.6,29.97,North,9,0.0,0.0,51,0.00,,---,0.00,VWS V14.01,2013-03-13 15:50:00,
2013-03-13 08:51:00,71.5,52.4,29.97,North,10,0.0,0.0,51,0.00,,---,0.00,VWS V14.01,2013-03-13 15:51:00,
2013-03-13 08:52:00,71.2,52.7,29.97,North,10,0.0,0.0,52,0.00,,---,0.00,VWS V14.01,2013-03-13 15:52:00,
2013-03-13 08:53:00,71.1,52.6,29.97,North,10,0.0,0.0,52,0.00,,---,0.00,VWS V14.01,2013-03-13 15:53:00,
2013-03-13 08:54:00,71.1,52.6,29.97,North,10,0.0,0.0,52,0.00,,---,0.00,VWS V14.01,2013-03-13 15:54:00,
2013-03-13 08:55:00,70.9,52.9,29.97,North,10,0.0,0.0,53,0.00,,---,0.00,VWS V14.01,2013-03-13 15:55:00,
2013-03-13 08:56:00,70.8,53.3,29.97,North,11,0.0,0.0,54,0.00,,---,0.00,VWS V14.01,2013-03-13 15:56:00,
2013-03-13 08:57:00,70.7,53.3,29.97,North,11,0.0,0.0,54,0.00,,---,0.00,VWS V14.01,2013-03-13 15:57:00,
2013-03-13 08:58:00,70.5,53.1,29.96,North,10,0.0,0.0,54,0.00,,---,0.00,VWS V14.01,2013-03-13 15:58:00,
2013-03-13 08:59:00,70.3,53.4,29.96,North,11,0.0,0.0,55,0.00,,---,0.00,VWS V14.01,2013-03-13 15:59:00,
2013-03-13 09:00:00,70.1,53.2,29.96,North,10,0.0,0.0,55,0.00,,---,0.00,VWS V14.01,2013-03-13 16:00:00,
2013-03-13 09:01:00,69.9,53.0,29.96,North,10,0.0,0.0,55,0.00,,---,0.00,VWS V14.01,2013-03-13 16:01:00,
2013-03-13 09:02:00,69.7,53.3,29.96,North,10,1.0,0.0,56,0.00,,---,0.00,VWS V14.01,2013-03-13 16:02:00,
2013-03-13 09:03:00,69.6,53.2,29.96,North,10,0.0,0.0,56,0.00,,---,0.00,VWS V14.01,2013-03-13 16:03:00,
2013-03-13 09:04:00,69.4,53.0,29.96,North,10,0.0,0.0,56,0.00,,---,0.00,VWS V14.01,2013-03-13 16:04:00,
2013-03-13 09:05:00,69.3,53.0,29.97,North,10,0.0,0.0,56,0.00,,---,0.00,VWS V14.01,2013-03-13 16:05:00,
2013-03-13 09:06:00,69.2,52.8,29.97,North,10,0.0,0.0,56,0.00,,---,0.00,VWS V14.01,2013-03-13 16:06:00,
2013-03-13 09:07:00,69.1,52.8,29.97,North,10,0.0,0.0,56,0.00,,---,0.00,VWS V14.01,2013-03-13 16:07:00,
2013-03-13 09:08:00,68.9,52.6,29.97,North,10,0.0,0.0,56,0.00,,---,0.00,VWS V14.01,2013-03-13 16:08:00,
2013-03-13 09:09:00,68.8,52.5,29.97,North,10,0.0,0.0,56,0.00,,---,0.00,VWS V14.01,2013-03-13 16:09:00,
2013-03-13 09:10:00,68.7,52.4,29.97,North,10,0.0,0.0,56,0.00,,---,0.00,VWS V14.01,2013-03-13 16:10:00,
2013-03-13 09:11:00,68.5,52.2,29.97,North,10,0.0,0.0,56,0.00,,---,0.00,VWS V14.01,2013-03-13 16:11:00,
2013-03-13 09:12:00,68.4,52.1,29.97,North,10,0.0,0.0,56,0.00,,---,0.00,VWS V14.01,2013-03-13 16:12:00,
2013-03-13 09:13:00,68.3,52.0,29.97,North,10,0.0,0.0,56,0.00,,---,0.00,VWS V14.01,2013-03-13 16:13:00,
2013-03-13 09:14:00,68.1,51.8,29.97,North,11,0.0,0.0,56,0.00,,---,0.00,VWS V14.01,2013-03-13 16:14:00,
2013-03-13 09:15:00,68.0,51.7,29.97,North,10,0.0,0.0,56,0.00,,---,0.00,VWS V14.01,2013-03-13 16:15:00,
2013-03-13 09:16:00,67.9,51.6,29.97,North,10,0.0,0.0,56,0.00,,---,0.00,VWS V14.01,2013-03-13 16:16:00,
2013-03-13 09:17:00,67.8,52.0,29.97,North,10,0.0,0.0,57,0.00,,---,0.00,VWS V14.01,2013-03-13 16:17:00,
2013-03-13 09:18:00,67.7,51.9,29.97,North,10,0.0,0.0,57,0.00,,---,0.00,VWS V14.01,2013-03-13 16:18:00,
2013-03-13 09:19:00,67.6,51.8,29.97,North,10,0.0,0.0,57,0.00,,---,0.00,VWS V14.01,2013-03-13 16:19:00,
2013-03-13 09:20:00,67.5,51.8,29.97,North,10,0.0,0.0,57,0.00,,---,0.00,VWS V14.01,2013-03-13 16:20:00,
2013-03-13 09:21:00,67.4,51.2,29.97,North,10,0.0,0.0,56,0.00,,---,0.00,VWS V14.01,2013-03-13 16:21:00,
2013-03-13 09:22:00,67.3,51.1,29.97,North,10,0.0,0.0,56,0.00,,---,0.00,VWS V14.01,2013-03-13 16:22:00,
2013-03-13 09:23:00,67.2,50.5,29.97,North,10,0.0,0.0,55,0.00,,---,0.00,VWS V14.01,2013-03-13 16:23:00,
2013-03-13 09:24:00,67.1,50.4,29.97,North,10,0.0,0.0,55,0.00,,---,0.00,VWS V14.01,2013-03-13 16:24:00,
2013-03-13 09:25:00,67.0,50.8,29.97,North,10,0.0,0.0,56,0.00,,---,0.00,VWS V14.01,2013-03-13 16:25:00,
2013-03-13 09:26:00,66.9,50.7,29.97,North,11,0.0,0.0,56,0.00,,---,0.00,VWS V14.01,2013-03-13 16:26:00,
2013-03-13 09:27:00,66.8,50.6,29.97,North,10,0.0,0.0,56,0.00,,---,0.00,VWS V14.01,2013-03-13 16:27:00,
2013-03-13 09:28:00,66.7,50.0,29.97,North,10,0.0,0.0,55,0.00,,---,0.00,VWS V14.01,2013-03-13 16:28:00,
2013-03-13 09:29:00,66.7,50.5,29.97,North,10,0.0,0.0,56,0.00,,---,0.00,VWS V14.01,2013-03-13 16:29:00,
2013-03-13 09:30:00,66.6,50.4,29.97,North,10,0.0,0.0,56,0.00,,---,0.00,VWS V14.01,2013-03-13 16:30:00,
2013-03-13 09:31:00,66.5,50.3,29.97,North,10,0.0,0.0,56,0.00,,---,0.00,VWS V14.01,2013-03-13 16:31:00,
2013-03-13 09:32:00,66.5,50.3,29.97,North,10,0.0,0.0,56,0.00,,---,0.00,VWS V14.01,2013-03-13 16:32:00,
2013-03-13 09:33:00,66.4,50.2,29.97,North,10,0.0,0.0,56,0.00,,---,0.00,VWS V14.01,2013-03-13 16:33:00,
2013-03-13 09:34:00,66.3,49.7,29.97,North,10,0.0,0.0,55,0.00,,---,0.00,VWS V14.01,2013-03-13 16:34:00,
2013-03-13 09:35:00,66.3,49.7,29.97,North,11,0.0,0.0,55,0.00,,---,0.00,VWS V14.01,2013-03-13 16:35:00,
2013-03-13 09:36:00,66.3,50.2,29.97,North,10,0.0,0.0,56,0.00,,---,0.00,VWS V14.01,2013-03-13 16:36:00,
2013-03-13 09:37:00,66.2,50.1,29.97,North,10,0.0,0.0,56,0.00,,---,0.00,VWS V14.01,2013-03-13 16:37:00,
2013-03-13 09:38:00,66.2,50.5,29.97,North,10,0.0,0.0,57,0.00,,---,0.00,VWS V14.01,2013-03-13 16:38:00,
2013-03-13 09:39:00,66.2,50.5,29.97,North,10,0.0,0.0,57,0.00,,---,0.00,VWS V14.01,2013-03-13 16:39:00,
2013-03-13 09:40:00,66.2,50.5,29.97,North,10,0.0,0.0,57,0.00,,---,0.00,VWS V14.01,2013-03-13 16:40:00,
2013-03-13 09:41:00,66.2,51.0,29.97,North,10,0.0,0.0,58,0.00,,---,0.00,VWS V14.01,2013-03-13 16:41:00,
2013-03-13 09:42:00,66.2,51.0,29.97,North,10,0.0,0.0,58,0.00,,---,0.00,VWS V14.01,2013-03-13 16:42:00,
2013-03-13 09:43:00,66.2,51.5,29.97,North,10,0.0,0.0,59,0.00,,---,0.00,VWS V14.01,2013-03-13 16:43:00,
2013-03-13 09:44:00,66.2,51.0,29.97,North,10,0.0,0.0,58,0.00,,---,0.00,VWS V14.01,2013-03-13 16:44:00,
2013-03-13 09:45:00,66.2,51.0,29.97,North,10,0.0,0.0,58,0.00,,---,0.00,VWS V14.01,2013-03-13 16:45:00,
2013-03-13 09:46:00,66.1,50.9,29.97,North,10,0.0,0.0,58,0.00,,---,0.00,VWS V14.01,2013-03-13 16:46:00,
2013-03-13 09:47:00,66.1,50.9,29.97,North,10,0.0,0.0,58,0.00,,---,0.00,VWS V14.01,2013-03-13 16:47:00,
2013-03-13 09:48:00,66.1,50.9,29.97,North,10,0.0,0.0,58,0.00,,---,0.00,VWS V14.01,2013-03-13 16:48:00,
2013-03-13 09:49:00,66.0,50.8,29.97,North,10,0.0,0.0,58,0.00,,---,0.00,VWS V14.01,2013-03-13 16:49:00,
2013-03-13 09:50:00,66.0,50.8,29.97,North,10,0.0,0.0,58,0.00,,---,0.00,VWS V14.01,2013-03-13 16:50:00,
2013-03-13 09:51:00,65.9,50.7,29.97,North,10,0.0,0.0,58,0.00,,---,0.00,VWS V14.01,2013-03-13 16:51:00,
2013-03-13 09:52:00,65.9,50.7,29.97,North,10,0.0,0.0,58,0.00,,---,0.00,VWS V14.01,2013-03-13 16:52:00,
2013-03-13 09:53:00,65.8,50.6,29.97,North,10,0.0,0.0,58,0.00,,---,0.00,VWS V14.01,2013-03-13 16:53:00,
2013-03-13 09:54:00,65.8,51.1,29.97,North,10,0.0,0.0,59,0.00,,---,0.00,VWS V14.01,2013-03-13 16:54:00,
2013-03-13 09:55:00,65.7,51.0,29.97,North,11,0.0,0.0,59,0.00,,---,0.00,VWS V14.01,2013-03-13 16:55:00,
2013-03-13 09:56:00,65.6,51.4,29.97,North,10,0.0,0.0,60,0.00,,---,0.00,VWS V14.01,2013-03-13 16:56:00,
2013-03-13 09:57:00,65.6,51.4,29.97,North,10,0.0,0.0,60,0.00,,---,0.00,VWS V14.01,2013-03-13 16:57:00,
2013-03-13 09:58:00,65.5,51.3,29.97,North,10,0.0,0.0,60,0.00,,---,0.00,VWS V14.01,2013-03-13 16:58:00,
2013-03-13 09:59:00,65.5,51.3,29.97,North,10,0.0,0.0,60,0.00,,---,0.00,VWS V14.01,2013-03-13 16:59:00,
2013-03-13 10:00:00,65.4,51.2,29.97,North,10,0.0,0.0,60,0.00,,---,0.00,VWS V14.01,2013-03-13 17:00:00,
2013-03-13 10:01:00,65.4,51.2,29.97,North,10,0.0,0.0,60,0.00,,---,0.00,VWS V14.01,2013-03-13 17:01:00,
2013-03-13 10:02:00,65.3,51.5,29.97,North,10,0.0,0.0,61,0.00,,---,0.00,VWS V14.01,2013-03-13 17:02:00,
2013-03-13 10:03:00,65.3,51.5,29.97,North,10,0.0,0.0,61,0.00,,---,0.00,VWS V14.01,2013-03-13 17:03:00,
2013-03-13 10:04:00,65.2,51.4,29.97,North,10,0.0,0.0,61,0.00,,---,0.00,VWS V14.01,2013-03-13 17:04:00,
2013-03-13 10:05:00,65.2,51.4,29.97,North,10,0.0,0.0,61,0.00,,---,0.00,VWS V14.01,2013-03-13 17:05:00,
2013-03-13 10:06:00,65.1,51.3,29.97,North,9,0.0,0.0,61,0.00,,---,0.00,VWS V14.01,2013-03-13 17:06:00,
2013-03-13 10:07:00,65.0,51.2,29.97,North,10,0.0,0.0,61,0.00,,---,0.00,VWS V14.01,2013-03-13 17:07:00,
2013-03-13 10:08:00,65.0,51.2,29.97,North,10,0.0,0.0,61,0.00,,---,0.00,VWS V14.01,2013-03-13 17:08:00,
2013-03-13 10:09:00,64.9,51.2,29.97,North,10,0.0,0.0,61,0.00,,---,0.00,VWS V14.01,2013-03-13 17:09:00,
2013-03-13 10:10:00,64.8,51.0,29.97,North,10,0.0,0.0,61,0.00,,---,0.00,VWS V14.01,2013-03-13 17:10:00,
2013-03-13 10:11:00,64.7,51.0,29.97,North,10,0.0,0.0,61,0.00,,---,0.00,VWS V14.01,2013-03-13 17:11:00,
2013-03-13 10:12:00,64.7,51.0,29.97,North,10,0.0,0.0,61,0.00,,---,0.00,VWS V14.01,2013-03-13 17:12:00,
2013-03-13 10:13:00,64.6,50.9,29.97,North,9,0.0,0.0,61,0.00,,---,0.00,VWS V14.01,2013-03-13 17:13:00,
2013-03-13 10:14:00,64.5,50.8,29.97,North,10,0.0,0.0,61,0.00,,---,0.00,VWS V14.01,2013-03-13 17:14:00,
2013-03-13 10:15:00,64.5,50.8,29.97,North,11,0.0,0.0,61,0.00,,---,0.00,VWS V14.01,2013-03-13 17:15:00,
2013-03-13 10:16:00,64.4,50.7,29.97,North,11,0.0,0.0,61,0.00,,---,0.00,VWS V14.01,2013-03-13 17:16:00,
2013-03-13 10:17:00,64.3,50.6,29.97,North,10,0.0,0.0,61,0.00,,---,0.00,VWS V14.01,2013-03-13 17:17:00,
2013-03-13 10:18:00,64.3,50.6,29.97,North,10,0.0,0.0,61,0.00,,---,0.00,VWS V14.01,2013-03-13 17:18:00,
2013-03-13 10:19:00,64.2,50.5,29.97,North,10,0.0,0.0,61,0.00,,---,0.00,VWS V14.01,2013-03-13 17:19:00,
2013-03-13 10:20:00,64.1,50.4,29.97,North,10,0.0,0.0,61,0.00,,---,0.00,VWS V14.01,2013-03-13 17:20:00,
2013-03-13 10:21:00,64.1,50.4,29.97,North,11,0.0,0.0,61,0.00,,---,0.00,VWS V14.01,2013-03-13 17:21:00,
2013-03-13 10:22:00,64.0,50.3,29.97,North,10,0.0,0.0,61,0.00,,---,0.00,VWS V14.01,2013-03-13 17:22:00,
2013-03-13 10:23:00,64.0,50.7,29.97,North,10,0.0,0.0,62,0.00,,---,0.00,VWS V14.01,2013-03-13 17:23:00,
2013-03-13 10:24:00,63.9,50.6,29.97,North,10,0.0,0.0,62,0.00,,---,0.00,VWS V14.01,2013-03-13 17:24:00,
2013-03-13 10:25:00,63.9,50.6,29.97,North,10,0.0,0.0,62,0.00,,---,0.00,VWS V14.01,2013-03-13 17:25:00,
2013-03-13 10:26:00,63.8,50.5,29.97,North,11,0.0,0.0,62,0.00,,---,0.00,VWS V14.01,2013-03-13 17:26:00,
2013-03-13 10:27:00,63.7,50.5,29.97,North,10,0.0,0.0,62,0.00,,---,0.00,VWS V14.01,2013-03-13 17:27:00,
2013-03-13 10:28:00,63.7,50.5,29.97,North,10,0.0,0.0,62,0.00,,---,0.00,VWS V14.01,2013-03-13 17:28:00,
2013-03-13 10:29:00,63.6,50.4,29.97,North,10,0.0,0.0,62,0.00,,---,0.00,VWS V14.01,2013-03-13 17:29:00,
2013-03-13 10:30:00,63.6,50.4,29.97,North,10,0.0,0.0,62,0.00,,---,0.00,VWS V14.01,2013-03-13 17:30:00,
2013-03-13 10:31:00,63.5,50.3,29.97,North,10,0.0,0.0,62,0.00,,---,0.00,VWS V14.01,2013-03-13 17:31:00,
2013-03-13 10:32:00,63.4,50.2,29.97,North,10,0.0,0.0,62,0.00,,---,0.00,VWS V14.01,2013-03-13 17:32:00,
2013-03-13 10:33:00,63.4,50.2,29.97,North,11,0.0,0.0,62,0.00,,---,0.00,VWS V14.01,2013-03-13 17:33:00,
2013-03-13 10:34:00,63.3,50.1,29.97,North,10,0.0,0.0,62,0.00,,---,0.00,VWS V14.01,2013-03-13 17:34:00,
2013-03-13 10:35:00,63.3,50.1,29.97,North,10,0.0,0.0,62,0.00,,---,0.00,VWS V14.01,2013-03-13 17:35:00,
2013-03-13 10:36:00,63.2,50.0,29.97,North,10,0.0,0.0,62,0.00,,---,0.00,VWS V14.01,2013-03-13 17:36:00,
2013-03-13 10:37:00,63.1,50.3,29.97,North,10,0.0,0.0,63,0.00,,---,0.00,VWS V14.01,2013-03-13 17:37:00,
2013-03-13 10:38:00,63.1,50.3,29.97,North,10,0.0,0.0,63,0.00,,---,0.00,VWS V14.01,2013-03-13 17:38:00,
2013-03-13 10:39:00,63.0,50.2,29.97,North,10,0.0,0.0,63,0.00,,---,0.00,VWS V14.01,2013-03-13 17:39:00,
2013-03-13 10:40:00,63.0,50.2,29.97,North,10,0.0,0.0,63,0.00,,---,0.00,VWS V14.01,2013-03-13 17:40:00,
2013-03-13 10:41:00,62.9,50.1,29.97,North,10,0.0,0.0,63,0.00,,---,0.00,VWS V14.01,2013-03-13 17:41:00,
2013-03-13 10:42:00,62.8,50.0,29.97,North,10,0.0,0.0,63,0.00,,---,0.00,VWS V14.01,2013-03-13 17:42:00,
2013-03-13 10:43:00,62.7,49.9,29.97,North,10,0.0,0.0,63,0.00,,---,0.00,VWS V14.01,2013-03-13 17:43:00,
2013-03-13 10:44:00,62.7,49.9,29.97,North,10,0.0,0.0,63,0.00,,---,0.00,VWS V14.01,2013-03-13 17:44:00,
2013-03-13 10:45:00,62.6,49.8,29.97,North,10,0.0,0.0,63,0.00,,---,0.00,VWS V14.01,2013-03-13 17:45:00,
2013-03-13 10:46:00,62.6,49.8,29.97,North,10,0.0,0.0,63,0.00,,---,0.00,VWS V14.01,2013-03-13 17:46:00,
2013-03-13 10:47:00,62.5,50.2,29.97,North,10,0.0,0.0,64,0.00,,---,0.00,VWS V14.01,2013-03-13 17:47:00,
2013-03-13 10:48:00,62.5,49.8,29.97,North,10,0.0,0.0,63,0.00,,---,0.00,VWS V14.01,2013-03-13 17:48:00,
2013-03-13 10:49:00,62.4,50.1,29.97,North,10,0.0,0.0,64,0.00,,---,0.00,VWS V14.01,2013-03-13 17:49:00,
2013-03-13 10:50:00,62.4,50.1,29.97,North,10,0.0,0.0,64,0.00,,---,0.00,VWS V14.01,2013-03-13 17:50:00,
2013-03-13 10:51:00,62.3,50.0,29.97,North,10,0.0,0.0,64,0.00,,---,0.00,VWS V14.01,2013-03-13 17:51:00,
2013-03-13 10:52:00,62.3,50.0,29.97,North,10,0.0,0.0,64,0.00,,---,0.00,VWS V14.01,2013-03-13 17:52:00,
2013-03-13 10:53:00,62.2,49.9,29.97,North,10,0.0,0.0,64,0.00,,---,0.00,VWS V14.01,2013-03-13 17:53:00,
2013-03-13 10:54:00,62.2,49.9,29.97,North,11,0.0,0.0,64,0.00,,---,0.00,VWS V14.01,2013-03-13 17:54:00,
2013-03-13 10:55:00,62.1,49.8,29.97,North,10,0.0,0.0,64,0.00,,---,0.00,VWS V14.01,2013-03-13 17:55:00,
2013-03-13 10:56:00,62.0,49.7,29.97,North,10,0.0,0.0,64,0.00,,---,0.00,VWS V14.01,2013-03-13 17:56:00,
2013-03-13 10:57:00,62.0,49.7,29.97,North,10,0.0,0.0,64,0.00,,---,0.00,VWS V14.01,2013-03-13 17:57:00,
2013-03-13 10:58:00,61.9,50.0,29.97,North,10,0.0,0.0,65,0.00,,---,0.00,VWS V14.01,2013-03-13 17:58:00,
2013-03-13 10:59:00,61.9,50.0,29.97,North,10,0.0,0.0,65,0.00,,---,0.00,VWS V14.01,2013-03-13 17:59:00,
2013-03-13 11:00:00,61.9,50.0,29.97,North,10,0.0,0.0,65,0.00,,---,0.00,VWS V14.01,2013-03-13 18:00:00,
2013-03-13 11:01:00,61.8,49.9,29.97,North,10,0.0,0.0,65,0.00,,---,0.00,VWS V14.01,2013-03-13 18:01:00,
2013-03-13 11:02:00,61.7,49.8,29.97,North,11,0.0,0.0,65,0.00,,---,0.00,VWS V14.01,2013-03-13 18:02:00,
2013-03-13 11:03:00,61.7,49.8,29.97,NNE,12,0.0,0.0,65,0.00,,---,0.00,VWS V14.01,2013-03-13 18:03:00,
2013-03-13 11:04:00,61.6,49.7,29.97,North,10,0.0,0.0,65,0.00,,---,0.00,VWS V14.01,2013-03-13 18:04:00,
2013-03-13 11:05:00,61.6,49.7,29.97,North,10,0.0,0.0,65,0.00,,---,0.00,VWS V14.01,2013-03-13 18:05:00,
2013-03-13 11:06:00,61.5,49.6,29.97,North,10,0.0,0.0,65,0.00,,---,0.00,VWS V14.01,2013-03-13 18:06:00,
2013-03-13 11:07:00,61.5,50.0,29.97,North,11,0.0,0.0,66,0.00,,---,0.00,VWS V14.01,2013-03-13 18:07:00,
2013-03-13 11:08:00,61.5,50.0,29.97,North,11,0.0,0.0,66,0.00,,---,0.00,VWS V14.01,2013-03-13 18:08:00,
2013-03-13 11:09:00,61.4,49.5,29.97,North,10,0.0,0.0,65,0.00,,---,0.00,VWS V14.01,2013-03-13 18:09:00,
2013-03-13 11:10:00,61.4,50.0,29.97,North,10,0.0,0.0,66,0.00,,---,0.00,VWS V14.01,2013-03-13 18:10:00,
2013-03-13 11:11:00,61.3,49.5,29.97,North,10,0.0,0.0,65,0.00,,---,0.00,VWS V14.01,2013-03-13 18:11:00,
2013-03-13 11:12:00,61.3,49.9,29.97,North,10,0.0,0.0,66,0.00,,---,0.00,VWS V14.01,2013-03-13 18:12:00,
2013-03-13 11:13:00,61.2,49.8,29.97,North,10,0.0,0.0,66,0.00,,---,0.00,VWS V14.01,2013-03-13 18:13:00,
2013-03-13 11:14:00,61.2,49.8,29.97,North,10,0.0,0.0,66,0.00,,---,0.00,VWS V14.01,2013-03-13 18:14:00,
2013-03-13 11:15:00,61.1,49.3,29.97,North,10,0.0,0.0,65,0.00,,---,0.00,VWS V14.01,2013-03-13 18:15:00,
2013-03-13 11:16:00,61.1,49.3,29.97,North,10,0.0,0.0,65,0.00,,---,0.00,VWS V14.01,2013-03-13 18:16:00,
2013-03-13 11:17:00,61.0,49.6,29.97,North,10,0.0,0.0,66,0.00,,---,0.00,VWS V14.01,2013-03-13 18:17:00,
2013-03-13 11:18:00,61.0,49.6,29.97,North,10,0.0,0.0,66,0.00,,---,0.00,VWS V14.01,2013-03-13 18:18:00,
2013-03-13 11:19:00,60.9,49.5,29.97,North,9,0.0,0.0,66,0.00,,---,0.00,VWS V14.01,2013-03-13 18:19:00,
2013-03-13 11:20:00,60.9,49.5,29.97,North,10,0.0,0.0,66,0.00,,---,0.00,VWS V14.01,2013-03-13 18:20:00,
2013-03-13 11:21:00,60.8,49.4,29.97,North,10,0.0,0.0,66,0.00,,---,0.00,VWS V14.01,2013-03-13 18:21:00,
2013-03-13 11:22:00,60.8,49.4,29.97,North,10,0.0,0.0,66,0.00,,---,0.00,VWS V14.01,2013-03-13 18:22:00,
2013-03-13 11:23:00,60.8,49.4,29.97,North,10,0.0,0.0,66,0.00,,---,0.00,VWS V14.01,2013-03-13 18:23:00,
2013-03-13 11:24:00,60.7,49.3,29.97,North,10,0.0,0.0,66,0.00,,---,0.00,VWS V14.01,2013-03-13 18:24:00,
2013-03-13 11:25:00,60.7,49.3,29.97,North,10,0.0,0.0,66,0.00,,---,0.00,VWS V14.01,2013-03-13 18:25:00,
2013-03-13 11:26:00,60.7,49.3,29.97,North,10,0.0,0.0,66,0.00,,---,0.00,VWS V14.01,2013-03-13 18:26:00,
2013-03-13 11:27:00,60.6,49.2,29.97,North,10,0.0,0.0,66,0.00,,---,0.00,VWS V14.01,2013-03-13 18:27:00,
2013-03-13 11:28:00,60.6,49.2,29.98,North,10,0.0,0.0,66,0.00,,---,0.00,VWS V14.01,2013-03-13 18:28:00,
2013-03-13 11:29:00,60.5,49.1,29.98,North,11,0.0,0.0,66,0.00,,---,0.00,VWS V14.01,2013-03-13 18:29:00,
2013-03-13 11:30:00,60.5,49.1,29.98,North,10,0.0,0.0,66,0.00,,---,0.00,VWS V14.01,2013-03-13 18:30:00,
2013-03-13 11:31:00,60.5,49.1,29.98,North,10,0.0,0.0,66,0.00,,---,0.00,VWS V14.01,2013-03-13 18:31:00,
2013-03-13 11:32:00,60.4,49.0,29.98,North,11,0.0,0.0,66,0.00,,---,0.00,VWS V14.01,2013-03-13 18:32:00,
2013-03-13 11:33:00,60.4,49.0,29.98,North,10,0.0,0.0,66,0.00,,---,0.00,VWS V14.01,2013-03-13 18:33:00,
2013-03-13 11:34:00,60.4,49.0,29.98,North,10,0.0,0.0,66,0.00,,---,0.00,VWS V14.01,2013-03-13 18:34:00,
2013-03-13 11:35:00,60.4,49.0,29.98,North,11,0.0,0.0,66,0.00,,---,0.00,VWS V14.01,2013-03-13 18:35:00,
2013-03-13 11:36:00,60.3,48.9,29.98,North,10,0.0,0.0,66,0.00,,---,0.00,VWS V14.01,2013-03-13 18:36:00,
2013-03-13 11:37:00,60.3,49.3,29.98,North,10,0.0,0.0,67,0.00,,---,0.00,VWS V14.01,2013-03-13 18:37:00,
2013-03-13 11:38:00,60.3,48.9,29.98,North,10,0.0,0.0,66,0.00,,---,0.00,VWS V14.01,2013-03-13 18:38:00,
2013-03-13 11:39:00,60.3,48.9,29.98,North,10,0.0,0.0,66,0.00,,---,0.00,VWS V14.01,2013-03-13 18:39:00,
2013-03-13 11:40:00,60.2,48.8,29.98,North,10,0.0,0.0,66,0.00,,---,0.00,VWS V14.01,2013-03-13 18:40:00,
2013-03-13 11:41:00,60.2,48.8,29.98,North,10,0.0,0.0,66,0.00,,---,0.00,VWS V14.01,2013-03-13 18:41:00,
2013-03-13 11:42:00,60.2,48.8,29.98,North,10,0.0,0.0,66,0.00,,---,0.00,VWS V14.01,2013-03-13 18:42:00,
2013-03-13 11:43:00,60.2,48.8,29.98,North,10,0.0,0.0,66,0.00,,---,0.00,VWS V14.01,2013-03-13 18:43:00,
2013-03-13 11:44:00,60.1,48.7,29.98,North,10,0.0,0.0,66,0.00,,---,0.00,VWS V14.01,2013-03-13 18:44:00,
2013-03-13 11:45:00,60.1,48.7,29.98,North,10,0.0,0.0,66,0.00,,---,0.00,VWS V14.01,2013-03-13 18:45:00,
2013-03-13 11:46:00,60.1,48.7,29.98,North,10,0.0,0.0,66,0.00,,---,0.00,VWS V14.01,2013-03-13 18:46:00,
2013-03-13 11:47:00,60.1,49.1,29.98,North,10,0.0,0.0,67,0.00,,---,0.00,VWS V14.01,2013-03-13 18:47:00,
2013-03-13 11:48:00,60.0,49.0,29.98,North,10,0.0,0.0,67,0.00,,---,0.00,VWS V14.01,2013-03-13 18:48:00,
2013-03-13 11:49:00,60.0,49.0,29.98,North,10,1.0,0.0,67,0.00,,---,0.00,VWS V14.01,2013-03-13 18:49:00,
2013-03-13 11:50:00,60.0,49.0,29.98,North,10,0.0,0.0,67,0.00,,---,0.00,VWS V14.01,2013-03-13 18:50:00,
2013-03-13 11:51:00,60.0,49.0,29.98,North,10,0.0,0.0,67,0.00,,---,0.00,VWS V14.01,2013-03-13 18:51:00,
2013-03-13 11:52:00,59.9,48.9,29.98,North,10,0.0,0.0,67,0.00,,---,0.00,VWS V14.01,2013-03-13 18:52:00,
2013-03-13 11:53:00,59.9,48.9,29.98,North,10,0.0,0.0,67,0.00,,---,0.00,VWS V14.01,2013-03-13 18:53:00,
2013-03-13 11:54:00,59.9,48.9,29.98,North,10,0.0,0.0,67,0.00,,---,0.00,VWS V14.01,2013-03-13 18:54:00,
2013-03-13 11:55:00,59.9,48.9,29.98,North,10,0.0,0.0,67,0.00,,---,0.00,VWS V14.01,2013-03-13 18:55:00,
2013-03-13 11:56:00,59.8,48.8,29.98,North,10,0.0,0.0,67,0.00,,---,0.00,VWS V14.01,2013-03-13 18:56:00,
2013-03-13 11:57:00,59.8,48.8,29.99,North,10,0.0,0.0,67,0.00,,---,0.00,VWS V14.01,2013-03-13 18:57:00,
2013-03-13 11:58:00,59.8,48.8,29.99,North,10,0.0,0.0,67,0.00,,---,0.00,VWS V14.01,2013-03-13 18:58:00,
2013-03-13 11:59:00,59.8,48.8,29.99,North,10,0.0,0.0,67,0.00,,---,0.00,VWS V14.01,2013-03-13 18:59:00,
2013-03-13 12:00:00,59.8,48.8,29.99,North,10,0.0,0.0,67,0.00,,---,0.00,VWS V14.01,2013-03-13 19:00:00,
2013-03-13 12:01:00,59.8,48.8,29.99,North,10,0.0,0.0,67,0.00,,---,0.00,VWS V14.01,2013-03-13 19:01:00,
2013-03-13 12:02:00,59.7,48.7,29.99,North,10,0.0,0.0,67,0.00,,---,0.00,VWS V14.01,2013-03-13 19:02:00,
2013-03-13 12:03:00,59.7,48.7,29.99,North,10,0.0,0.0,67,0.00,,---,0.00,VWS V14.01,2013-03-13 19:03:00,
2013-03-13 12:04:00,59.6,49.0,29.99,North,10,0.0,0.0,68,0.00,,---,0.00,VWS V14.01,2013-03-13 19:04:00,
2013-03-13 12:05:00,59.6,49.0,29.99,North,10,0.0,0.0,68,0.00,,---,0.00,VWS V14.01,2013-03-13 19:05:00,
2013-03-13 12:06:00,59.6,49.0,29.99,North,10,0.0,0.0,68,0.00,,---,0.00,VWS V14.01,2013-03-13 19:06:00,
2013-03-13 12:07:00,59.5,48.9,29.99,North,10,0.0,0.0,68,0.00,,---,0.00,VWS V14.01,2013-03-13 19:07:00,
2013-03-13 12:08:00,59.5,48.5,29.99,North,10,0.0,0.0,67,0.00,,---,0.00,VWS V14.01,2013-03-13 19:08:00,
2013-03-13 12:09:00,59.5,48.9,29.99,North,10,0.0,0.0,68,0.00,,---,0.00,VWS V14.01,2013-03-13 19:09:00,
2013-03-13 12:10:00,59.4,48.8,29.99,North,10,0.0,0.0,68,0.00,,---,0.00,VWS V14.01,2013-03-13 19:10:00,
2013-03-13 12:11:00,59.4,48.8,29.99,North,11,0.0,0.0,68,0.00,,---,0.00,VWS V14.01,2013-03-13 19:11:00,
2013-03-13 12:12:00,59.4,48.8,29.99,North,10,0.0,0.0,68,0.00,,---,0.00,VWS V14.01,2013-03-13 19:12:00,
2013-03-13 12:13:00,59.3,48.8,29.99,North,11,0.0,0.0,68,0.00,,---,0.00,VWS V14.01,2013-03-13 19:13:00,
2013-03-13 12:14:00,59.3,48.8,29.99,North,11,0.0,0.0,68,0.00,,---,0.00,VWS V14.01,2013-03-13 19:14:00,
2013-03-13 12:15:00,59.3,48.8,29.99,North,10,0.0,0.0,68,0.00,,---,0.00,VWS V14.01,2013-03-13 19:15:00,
2013-03-13 12:16:00,59.3,48.8,29.99,North,11,0.0,0.0,68,0.00,,---,0.00,VWS V14.01,2013-03-13 19:16:00,
2013-03-13 12:17:00,59.2,48.7,29.99,North,10,0.0,0.0,68,0.00,,---,0.00,VWS V14.01,2013-03-13 19:17:00,
2013-03-13 12:18:00,59.2,48.7,29.99,North,10,0.0,0.0,68,0.00,,---,0.00,VWS V14.01,2013-03-13 19:18:00,
2013-03-13 12:19:00,59.1,48.6,29.99,North,10,0.0,0.0,68,0.00,,---,0.00,VWS V14.01,2013-03-13 19:19:00,
2013-03-13 12:20:00,59.1,48.6,29.99,North,10,0.0,0.0,68,0.00,,---,0.00,VWS V14.01,2013-03-13 19:20:00,
2013-03-13 12:21:00,59.1,48.6,29.99,North,10,0.0,0.0,68,0.00,,---,0.00,VWS V14.01,2013-03-13 19:21:00,
2013-03-13 12:22:00,59.0,48.9,29.99,North,10,0.0,0.0,69,0.00,,---,0.00,VWS V14.01,2013-03-13 19:22:00,
2013-03-13 12:23:00,59.0,48.9,29.99,North,10,0.0,0.0,69,0.00,,---,0.00,VWS V14.01,2013-03-13 19:23:00,
2013-03-13 12:24:00,59.0,48.5,29.99,North,11,0.0,0.0,68,0.00,,---,0.00,VWS V14.01,2013-03-13 19:24:00,
2013-03-13 12:25:00,59.0,48.9,29.99,North,10,0.0,0.0,69,0.00,,---,0.00,VWS V14.01,2013-03-13 19:25:00,
2013-03-13 12:26:00,58.9,48.8,29.99,North,10,0.0,0.0,69,0.00,,---,0.00,VWS V14.01,2013-03-13 19:26:00,
2013-03-13 12:27:00,58.9,48.8,29.99,North,10,0.0,0.0,69,0.00,,---,0.00,VWS V14.01,2013-03-13 19:27:00,
2013-03-13 12:28:00,58.9,48.4,29.99,North,10,0.0,0.0,68,0.00,,---,0.00,VWS V14.01,2013-03-13 19:28:00,
2013-03-13 12:29:00,58.9,48.4,29.99,North,10,0.0,0.0,68,0.00,,---,0.00,VWS V14.01,2013-03-13 19:29:00,
2013-03-13 12:30:00,58.9,48.8,29.99,North,10,0.0,0.0,69,0.00,,---,0.00,VWS V14.01,2013-03-13 19:30:00,
2013-03-13 12:31:00,58.9,48.8,29.99,North,10,0.0,0.0,69,0.00,,---,0.00,VWS V14.01,2013-03-13 19:31:00,
2013-03-13 12:32:00,58.8,48.7,29.99,North,10,0.0,0.0,69,0.00,,---,0.00,VWS V14.01,2013-03-13 19:32:00,
2013-03-13 12:33:00,58.8,48.7,29.99,North,10,0.0,0.0,69,0.00,,---,0.00,VWS V14.01,2013-03-13 19:33:00,
2013-03-13 12:34:00,58.8,48.7,29.99,North,10,0.0,0.0,69,0.00,,---,0.00,VWS V14.01,2013-03-13 19:34:00,
2013-03-13 12:35:00,58.8,48.7,29.99,North,10,0.0,0.0,69,0.00,,---,0.00,VWS V14.01,2013-03-13 19:35:00,
2013-03-13 12:36:00,58.8,48.7,29.99,North,10,0.0,0.0,69,0.00,,---,0.00,VWS V14.01,2013-03-13 19:36:00,
2013-03-13 12:37:00,58.7,48.6,29.99,North,10,0.0,0.0,69,0.00,,---,0.00,VWS V14.01,2013-03-13 19:37:00,
2013-03-13 12:38:00,58.7,48.6,29.99,North,10,0.0,0.0,69,0.00,,---,0.00,VWS V14.01,2013-03-13 19:38:00,
2013-03-13 12:39:00,58.7,48.6,29.99,North,10,0.0,0.0,69,0.00,,---,0.00,VWS V14.01,2013-03-13 19:39:00,
2013-03-13 12:40:00,58.7,48.6,29.99,North,10,0.0,0.0,69,0.00,,---,0.00,VWS V14.01,2013-03-13 19:40:00,
2013-03-13 12:41:00,58.6,48.5,29.99,North,10,0.0,0.0,69,0.00,,---,0.00,VWS V14.01,2013-03-13 19:41:00,
2013-03-13 12:42:00,58.6,48.9,29.99,North,10,0.0,0.0,70,0.00,,---,0.00,VWS V14.01,2013-03-13 19:42:00,
2013-03-13 12:43:00,58.6,48.9,29.99,North,10,0.0,0.0,70,0.00,,---,0.00,VWS V14.01,2013-03-13 19:43:00,
2013-03-13 12:44:00,58.5,48.8,29.99,North,10,0.0,0.0,70,0.00,,---,0.00,VWS V14.01,2013-03-13 19:44:00,
2013-03-13 12:45:00,58.5,48.4,29.99,North,10,0.0,0.0,69,0.00,,---,0.00,VWS V14.01,2013-03-13 19:45:00,
2013-03-13 12:46:00,58.4,48.7,29.99,North,10,0.0,0.0,70,0.00,,---,0.00,VWS V14.01,2013-03-13 19:46:00,
2013-03-13 12:47:00,58.4,48.3,29.99,North,10,0.0,0.0,69,0.00,,---,0.00,VWS V14.01,2013-03-13 19:47:00,
2013-03-13 12:48:00,58.4,48.7,29.99,North,10,0.0,0.0,70,0.00,,---,0.00,VWS V14.01,2013-03-13 19:48:00,
2013-03-13 12:49:00,58.3,48.6,29.99,North,10,0.0,0.0,70,0.00,,---,0.00,VWS V14.01,2013-03-13 19:49:00,
2013-03-13 12:50:00,58.3,48.6,29.99,North,10,0.0,0.0,70,0.00,,---,0.00,VWS V14.01,2013-03-13 19:50:00,
2013-03-13 12:51:00,58.2,48.1,29.99,North,10,0.0,0.0,69,0.00,,---,0.00,VWS V14.01,2013-03-13 19:51:00,
2013-03-13 12:52:00,58.3,48.2,29.99,North,10,0.0,0.0,69,0.00,,---,0.00,VWS V14.01,2013-03-13 19:52:00,
2013-03-13 12:53:00,58.2,48.1,29.99,North,10,0.0,0.0,69,0.00,,---,0.00,VWS V14.01,2013-03-13 19:53:00,
2013-03-13 12:54:00,58.2,48.5,29.99,North,10,0.0,0.0,70,0.00,,---,0.00,VWS V14.01,2013-03-13 19:54:00,
2013-03-13 12:55:00,58.2,48.1,29.99,North,10,0.0,0.0,69,0.00,,---,0.00,VWS V14.01,2013-03-13 19:55:00,
2013-03-13 12:56:00,58.2,48.1,29.99,North,10,0.0,0.0,69,0.00,,---,0.00,VWS V14.01,2013-03-13 19:56:00,
2013-03-13 12:57:00,58.2,48.1,29.99,North,11,0.0,0.0,69,0.00,,---,0.00,VWS V14.01,2013-03-13 19:57:00,
2013-03-13 12:58:00,58.2,48.5,29.99,North,10,0.0,0.0,70,0.00,,---,0.00,VWS V14.01,2013-03-13 19:58:00,
2013-03-13 12:59:00,58.2,48.5,29.99,North,10,0.0,0.0,70,0.00,,---,0.00,VWS V14.01,2013-03-13 19:59:00,
2013-03-13 13:00:00,58.2,48.1,29.99,North,10,0.0,0.0,69,0.00,,---,0.00,VWS V14.01,2013-03-13 20:00:00,
2013-03-13 13:01:00,58.2,48.5,29.99,North,10,0.0,0.0,70,0.00,,---,0.00,VWS V14.01,2013-03-13 20:01:00,
2013-03-13 13:02:00,58.1,48.4,29.99,North,10,0.0,0.0,70,0.00,,---,0.00,VWS V14.01,2013-03-13 20:02:00,
2013-03-13 13:03:00,58.1,48.4,29.99,North,10,0.0,0.0,70,0.00,,---,0.00,VWS V14.01,2013-03-13 20:03:00,
2013-03-13 13:04:00,58.1,48.4,29.99,North,10,0.0,0.0,70,0.00,,---,0.00,VWS V14.01,2013-03-13 20:04:00,
2013-03-13 13:05:00,58.1,48.4,29.99,East,81,0.0,0.0,70,0.00,,---,0.00,VWS V14.01,2013-03-13 20:05:00,
2013-03-13 13:06:00,58.1,48.0,29.99,East,81,0.0,0.0,69,0.00,,---,0.00,VWS V14.01,2013-03-13 20:06:00,
2013-03-13 13:07:00,58.1,48.4,29.99,East,81,0.0,0.0,70,0.00,,---,0.00,VWS V14.01,2013-03-13 20:07:00,
2013-03-13 13:08:00,58.1,48.0,29.99,East,80,0.0,0.0,69,0.00,,---,0.00,VWS V14.01,2013-03-13 20:08:00,
2013-03-13 13:09:00,58.0,48.3,29.99,East,80,0.0,0.0,70,0.00,,---,0.00,VWS V14.01,2013-03-13 20:09:00,
2013-03-13 13:10:00,58.0,48.3,29.99,East,80,0.0,0.0,70,0.00,,---,0.00,VWS V14.01,2013-03-13 20:10:00,
2013-03-13 13:11:00,58.0,48.3,29.99,East,81,0.0,0.0,70,0.00,,---,0.00,VWS V14.01,2013-03-13 20:11:00,
2013-03-13 13:12:00,58.0,48.3,29.99,East,81,0.0,0.0,70,0.00,,---,0.00,VWS V14.01,2013-03-13 20:12:00,
2013-03-13 13:13:00,58.0,48.3,29.99,East,81,0.0,0.0,70,0.00,,---,0.00,VWS V14.01,2013-03-13 20:13:00,
2013-03-13 13:14:00,58.0,48.3,29.99,East,82,0.0,0.0,70,0.00,,---,0.00,VWS V14.01,2013-03-13 20:14:00,
2013-03-13 13:15:00,57.9,48.2,29.99,East,81,0.0,0.0,70,0.00,,---,0.00,VWS V14.01,2013-03-13 20:15:00,
2013-03-13 13:16:00,57.9,47.8,29.99,East,81,0.0,0.0,69,0.00,,---,0.00,VWS V14.01,2013-03-13 20:16:00,
2013-03-13 13:17:00,57.9,47.8,29.99,East,80,0.0,0.0,69,0.00,,---,0.00,VWS V14.01,2013-03-13 20:17:00,
2013-03-13 13:18:00,57.9,48.2,29.99,East,81,0.0,0.0,70,0.00,,---,0.00,VWS V14.01,2013-03-13 20:18:00,
2013-03-13 13:19:00,57.9,48.2,29.99,East,94,0.0,0.0,70,0.00,,---,0.00,VWS V14.01,2013-03-13 20:19:00,
2013-03-13 13:20:00,57.8,48.1,29.99,East,94,0.0,0.0,70,0.00,,---,0.00,VWS V14.01,2013-03-13 20:20:00,
2013-03-13 13:21:00,57.8,48.1,29.99,East,90,0.0,0.0,70,0.00,,---,0.00,VWS V14.01,2013-03-13 20:21:00,
2013-03-13 13:22:00,57.8,48.1,30.00,East,90,1.0,0.0,70,0.00,,---,0.00,VWS V14.01,2013-03-13 20:22:00,
2013-03-13 13:23:00,57.8,48.1,30.00,East,90,0.0,0.0,70,0.00,,---,0.00,VWS V14.01,2013-03-13 20:23:00,
2013-03-13 13:24:00,57.8,48.1,30.00,East,90,0.0,0.0,70,0.00,,---,0.00,VWS V14.01,2013-03-13 20:24:00,
2013-03-13 13:25:00,57.7,48.0,30.00,East,90,0.0,0.0,70,0.00,,---,0.00,VWS V14.01,2013-03-13 20:25:00,
2013-03-13 13:26:00,57.7,48.0,30.00,East,91,0.0,0.0,70,0.00,,---,0.00,VWS V14.01,2013-03-13 20:26:00,
2013-03-13 13:27:00,57.7,48.4,30.00,East,91,0.0,0.0,71,0.00,,---,0.00,VWS V14.01,2013-03-13 20:27:00,
2013-03-13 13:28:00,57.7,48.0,30.00,East,91,0.0,0.0,70,0.00,,---,0.00,VWS V14.01,2013-03-13 20:28:00,
2013-03-13 13:29:00,57.6,47.9,30.00,East,94,0.0,0.0,70,0.00,,---,0.00,VWS V14.01,2013-03-13 20:29:00,
2013-03-13 13:30:00,57.6,47.9,30.00,East,100,1.0,0.0,70,0.00,,---,0.00,VWS V14.01,2013-03-13 20:30:00,
2013-03-13 13:31:00,57.6,47.9,30.00,East,100,0.0,0.0,70,0.00,,---,0.00,VWS V14.01,2013-03-13 20:31:00,
2013-03-13 13:32:00,57.6,47.9,30.00,East,98,2.0,0.0,70,0.00,,---,0.00,VWS V14.01,2013-03-13 20:32:00,
2013-03-13 13:33:00,57.7,48.0,30.00,ENE,67,0.0,0.0,70,0.00,,---,0.00,VWS V14.01,2013-03-13 20:33:00,
2013-03-13 13:34:00,57.7,48.0,30.00,ENE,70,1.0,0.0,70,0.00,,---,0.00,VWS V14.01,2013-03-13 20:34:00,
2013-03-13 13:35:00,57.7,48.0,30.00,ENE,70,0.0,0.0,70,0.00,,---,0.00,VWS V14.01,2013-03-13 20:35:00,
2013-03-13 13:36:00,57.7,48.0,30.00,ENE,70,0.0,0.0,70,0.00,,---,0.00,VWS V14.01,2013-03-13 20:36:00,
2013-03-13 13:37:00,57.8,48.1,30.00,East,91,0.0,0.0,70,0.00,,---,0.00,VWS V14.01,2013-03-13 20:37:00,
2013-03-13 13:38:00,57.8,48.1,30.00,ESE,107,0.0,0.0,70,0.00,,---,0.00,VWS V14.01,2013-03-13 20:38:00,
2013-03-13 13:39:00,57.8,47.7,30.00,SE,131,1.0,0.0,69,0.00,,---,0.00,VWS V14.01,2013-03-13 20:39:00,
2013-03-13 13:40:00,57.9,48.2,30.00,SE,126,0.0,0.0,70,0.00,,---,0.00,VWS V14.01,2013-03-13 20:40:00,
2013-03-13 13:41:00,57.9,48.2,30.00,SE,126,0.0,0.0,70,0.00,,---,0.00,VWS V14.01,2013-03-13 20:41:00,
2013-03-13 13:42:00,58.0,47.9,30.00,SE,126,0.0,0.0,69,0.00,,---,0.00,VWS V14.01,2013-03-13 20:42:00,
2013-03-13 13:43:00,58.0,47.9,30.00,SE,126,0.0,0.0,69,0.00,,---,0.00,VWS V14.01,2013-03-13 20:43:00,
2013-03-13 13:44:00,58.1,48.0,30.00,SE,126,0.0,0.0,69,0.00,,---,0.00,VWS V14.01,2013-03-13 20:44:00,
2013-03-13 13:45:00,58.1,48.0,30.00,SE,126,0.0,0.0,69,0.00,,---,0.00,VWS V14.01,2013-03-13 20:45:00,
2013-03-13 13:46:00,58.1,48.0,30.00,SE,126,0.0,0.0,69,0.00,,---,0.00,VWS V14.01,2013-03-13 20:46:00,
2013-03-13 13:47:00,58.1,48.0,30.00,SE,126,0.0,0.0,69,0.00,,---,0.00,VWS V14.01,2013-03-13 20:47:00,
2013-03-13 13:48:00,58.1,48.0,30.00,East,89,1.0,0.0,69,0.00,,---,0.00,VWS V14.01,2013-03-13 20:48:00,
2013-03-13 13:49:00,58.2,48.1,29.99,ESE,102,0.0,0.0,69,0.00,,---,0.00,VWS V14.01,2013-03-13 20:49:00,
2013-03-13 13:50:00,58.2,48.1,29.99,ESE,113,0.0,0.0,69,0.00,,---,0.00,VWS V14.01,2013-03-13 20:50:00,
2013-03-13 13:51:00,58.1,48.0,29.99,SE,144,0.0,0.0,69,0.00,,---,0.00,VWS V14.01,2013-03-13 20:51:00,
2013-03-13 13:52:00,58.2,47.7,29.99,SE,144,0.0,0.0,68,0.00,,---,0.00,VWS V14.01,2013-03-13 20:52:00,
2013-03-13 13:53:00,58.1,48.0,29.99,SE,143,0.0,0.0,69,0.00,,---,0.00,VWS V14.01,2013-03-13 20:53:00,
2013-03-13 13:54:00,58.1,48.0,29.99,SE,144,0.0,0.0,69,0.00,,---,0.00,VWS V14.01,2013-03-13 20:54:00,
2013-03-13 13:55:00,58.1,48.0,29.99,SE,144,0.0,0.0,69,0.00,,---,0.00,VWS V14.01,2013-03-13 20:55:00,
2013-03-13 13:56:00,58.1,48.0,29.99,SE,144,0.0,0.0,69,0.00,,---,0.00,VWS V14.01,2013-03-13 20:56:00,
2013-03-13 13:57:00,58.0,47.9,29.99,SE,144,0.0,0.0,69,0.00,,---,0.00,VWS V14.01,2013-03-13 20:57:00,
2013-03-13 13:58:00,58.0,47.9,29.99,SE,143,0.0,0.0,69,0.00,,---,0.00,VWS V14.01,2013-03-13 20:58:00,
2013-03-13 13:59:00,58.0,47.9,29.99,SE,144,0.0,0.0,69,0.00,,---,0.00,VWS V14.01,2013-03-13 20:59:00,
2013-03-13 14:00:00,58.0,47.9,29.99,SE,144,0.0,0.0,69,0.00,,---,0.00,VWS V14.01,2013-03-13 21:00:00,
2013-03-13 14:01:00,57.9,47.8,29.99,SE,130,0.0,0.0,69,0.00,,---,0.00,VWS V14.01,2013-03-13 21:01:00,
2013-03-13 14:02:00,57.9,47.8,29.99,SE,128,0.0,0.0,69,0.00,,---,0.00,VWS V14.01,2013-03-13 21:02:00,
2013-03-13 14:03:00,57.9,47.8,29.99,SE,130,0.0,0.0,69,0.00,,---,0.00,VWS V14.01,2013-03-13 21:03:00,
2013-03-13 14:04:00,57.9,47.8,29.99,SE,130,0.0,0.0,69,0.00,,---,0.00,VWS V14.01,2013-03-13 21:04:00,
2013-03-13 14:05:00,57.8,48.1,29.99,SE,130,0.0,0.0,70,0.00,,---,0.00,VWS V14.01,2013-03-13 21:05:00,
2013-03-13 14:06:00,57.8,48.1,29.99,SE,130,0.0,0.0,70,0.00,,---,0.00,VWS V14.01,2013-03-13 21:06:00,
2013-03-13 14:07:00,57.8,48.1,29.99,SE,130,0.0,0.0,70,0.00,,---,0.00,VWS V14.01,2013-03-13 21:07:00,
2013-03-13 14:08:00,57.7,48.0,29.99,SE,130,0.0,0.0,70,0.00,,---,0.00,VWS V14.01,2013-03-13 21:08:00,
2013-03-13 14:09:00,57.7,48.0,29.99,SE,129,0.0,0.0,70,0.00,,---,0.00,VWS V14.01,2013-03-13 21:09:00,
2013-03-13 14:10:00,57.7,48.0,29.99,SE,129,0.0,0.0,70,0.00,,---,0.00,VWS V14.01,2013-03-13 21:10:00,
2013-03-13 14:11:00,57.6,47.9,29.99,SE,130,0.0,0.0,70,0.00,,---,0.00,VWS V14.01,2013-03-13 21:11:00,
2013-03-13 14:12:00,57.6,47.9,29.99,SE,130,0.0,0.0,70,0.00,,---,0.00,VWS V14.01,2013-03-13 21:12:00,
2013-03-13 14:13:00,57.5,47.8,29.99,SE,130,0.0,0.0,70,0.00,,---,0.00,VWS V14.01,2013-03-13 21:13:00,
2013-03-13 14:14:00,57.5,47.8,29.99,SE,130,0.0,0.0,70,0.00,,---,0.00,VWS V14.01,2013-03-13 21:14:00,
2013-03-13 14:15:00,57.5,47.8,29.99,SE,130,0.0,0.0,70,0.00,,---,0.00,VWS V14.01,2013-03-13 21:15:00,
2013-03-13 14:16:00,57.5,47.8,29.99,SE,130,0.0,0.0,70,0.00,,---,0.00,VWS V14.01,2013-03-13 21:16:00,
2013-03-13 14:17:00,57.4,47.7,29.99,SE,130,0.0,0.0,70,0.00,,---,0.00,VWS V14.01,2013-03-13 21:17:00,
2013-03-13 14:18:00,57.4,47.7,29.99,SE,130,0.0,0.0,70,0.00,,---,0.00,VWS V14.01,2013-03-13 21:18:00,
2013-03-13 14:19:00,57.4,47.7,29.99,SE,130,0.0,0.0,70,0.00,,---,0.00,VWS V14.01,2013-03-13 21:19:00,
2013-03-13 14:20:00,57.3,47.6,29.98,SE,130,0.0,0.0,70,0.00,,---,0.00,VWS V14.01,2013-03-13 21:20:00,
2013-03-13 14:21:00,57.3,47.6,29.99,SE,130,0.0,0.0,70,0.00,,---,0.00,VWS V14.01,2013-03-13 21:21:00,
2013-03-13 14:22:00,57.3,48.0,29.98,SE,130,0.0,0.0,71,0.00,,---,0.00,VWS V14.01,2013-03-13 21:22:00,
2013-03-13 14:23:00,57.2,47.5,29.99,SE,129,0.0,0.0,70,0.00,,---,0.00,VWS V14.01,2013-03-13 21:23:00,
2013-03-13 14:24:00,57.2,47.5,29.99,SE,130,0.0,0.0,70,0.00,,---,0.00,VWS V14.01,2013-03-13 21:24:00,
2013-03-13 14:25:00,57.2,47.5,29.99,SE,130,0.0,0.0,70,0.00,,---,0.00,VWS V14.01,2013-03-13 21:25:00,
2013-03-13 14:26:00,57.2,47.5,29.99,ESE,105,0.0,0.0,70,0.00,,---,0.00,VWS V14.01,2013-03-13 21:26:00,
2013-03-13 14:27:00,57.1,47.8,29.98,SE,138,0.0,0.0,71,0.00,,---,0.00,VWS V14.01,2013-03-13 21:27:00,
2013-03-13 14:28:00,57.1,47.8,29.99,ESE,108,0.0,0.0,71,0.00,,---,0.00,VWS V14.01,2013-03-13 21:28:00,
2013-03-13 14:29:00,57.1,47.8,29.98,East,91,1.0,0.0,71,0.00,,---,0.00,VWS V14.01,2013-03-13 21:29:00,
2013-03-13 14:30:00,57.1,47.8,29.98,East,91,0.0,0.0,71,0.00,,---,0.00,VWS V14.01,2013-03-13 21:30:00,
2013-03-13 14:31:00,57.0,47.7,29.98,SSE,151,0.0,0.0,71,0.00,,---,0.00,VWS V14.01,2013-03-13 21:31:00,
2013-03-13 14:32:00,57.0,47.3,29.98,SE,139,0.0,0.0,70,0.00,,---,0.00,VWS V14.01,2013-03-13 21:32:00,
2013-03-13 14:33:00,57.0,47.3,29.98,SE,139,0.0,0.0,70,0.00,,---,0.00,VWS V14.01,2013-03-13 21:33:00,
2013-03-13 14:34:00,57.0,47.3,29.98,SE,139,0.0,0.0,70,0.00,,---,0.00,VWS V14.01,2013-03-13 21:34:00,
2013-03-13 14:35:00,57.0,47.3,29.98,SE,139,0.0,0.0,70,0.00,,---,0.00,VWS V14.01,2013-03-13 21:35:00,
2013-03-13 14:36:00,57.0,47.3,29.98,SE,140,0.0,0.0,70,0.00,,---,0.00,VWS V14.01,2013-03-13 21:36:00,
2013-03-13 14:37:00,57.0,47.7,29.98,SE,140,0.0,0.0,71,0.00,,---,0.00,VWS V14.01,2013-03-13 21:37:00,
2013-03-13 14:38:00,57.0,47.3,29.98,SE,140,0.0,0.0,70,0.00,,---,0.00,VWS V14.01,2013-03-13 21:38:00,
2013-03-13 14:39:00,57.0,47.3,29.98,SE,140,0.0,0.0,70,0.00,,---,0.00,VWS V14.01,2013-03-13 21:39:00,
2013-03-13 14:40:00,57.0,47.7,29.98,SE,139,0.0,0.0,71,0.00,,---,0.00,VWS V14.01,2013-03-13 21:40:00,
2013-03-13 14:41:00,57.0,47.3,29.98,SE,139,0.0,0.0,70,0.00,,---,0.00,VWS V14.01,2013-03-13 21:41:00,
2013-03-13 14:42:00,57.0,47.3,29.98,East,92,0.0,0.0,70,0.00,,---,0.00,VWS V14.01,2013-03-13 21:42:00,
2013-03-13 14:43:00,57.0,47.3,29.98,East,92,0.0,0.0,70,0.00,,---,0.00,VWS V14.01,2013-03-13 21:43:00,
2013-03-13 14:44:00,57.0,47.3,29.98,East,93,0.0,0.0,70,0.00,,---,0.00,VWS V14.01,2013-03-13 21:44:00,
2013-03-13 14:45:00,57.0,47.3,29.98,East,93,0.0,0.0,70,0.00,,---,0.00,VWS V14.01,2013-03-13 21:45:00,
2013-03-13 14:46:00,57.0,47.3,29.98,East,92,0.0,0.0,70,0.00,,---,0.00,VWS V14.01,2013-03-13 21:46:00,
2013-03-13 14:47:00,57.0,47.3,29.98,East,93,0.0,0.0,70,0.00,,---,0.00,VWS V14.01,2013-03-13 21:47:00,
2013-03-13 14:48:00,57.0,47.3,29.98,East,92,0.0,0.0,70,0.00,,---,0.00,VWS V14.01,2013-03-13 21:48:00,
2013-03-13 14:49:00,56.9,47.2,29.98,East,92,0.0,0.0,70,0.00,,---,0.00,VWS V14.01,2013-03-13 21:49:00,
2013-03-13 14:50:00,57.0,47.3,29.98,East,92,0.0,0.0,70,0.00,,---,0.00,VWS V14.01,2013-03-13 21:50:00,
2013-03-13 14:51:00,56.9,47.2,29.98,East,94,0.0,0.0,70,0.00,,---,0.00,VWS V14.01,2013-03-13 21:51:00,
2013-03-13 14:52:00,56.9,47.6,29.98,East,92,0.0,0.0,71,0.00,,---,0.00,VWS V14.01,2013-03-13 21:52:00,
2013-03-13 14:53:00,56.9,47.6,29.98,East,92,0.0,0.0,71,0.00,,---,0.00,VWS V14.01,2013-03-13 21:53:00,
2013-03-13 14:54:00,56.9,47.2,29.98,NNE,32,1.0,0.0,70,0.00,,---,0.00,VWS V14.01,2013-03-13 21:54:00,
2013-03-13 14:55:00,56.9,47.2,29.98,NNE,32,0.0,0.0,70,0.00,,---,0.00,VWS V14.01,2013-03-13 21:55:00,
2013-03-13 14:56:00,56.8,47.5,29.98,NNE,32,0.0,0.0,71,0.00,,---,0.00,VWS V14.01,2013-03-13 21:56:00,
2013-03-13 14:57:00,56.8,47.5,29.98,NNE,32,0.0,0.0,71,0.00,,---,0.00,VWS V14.01,2013-03-13 21:57:00,
2013-03-13 14:58:00,56.8,47.5,29.98,NNE,31,0.0,0.0,71,0.00,,---,0.00,VWS V14.01,2013-03-13 21:58:00,
2013-03-13 14:59:00,56.7,47.4,29.98,NNE,32,0.0,0.0,71,0.00,,---,0.00,VWS V14.01,2013-03-13 21:59:00,
2013-03-13 15:00:00,56.7,47.0,29.98,NNE,31,0.0,0.0,70,0.00,,---,0.00,VWS V14.01,2013-03-13 22:00:00,
2013-03-13 15:01:00,56.7,47.0,29.98,NNE,32,0.0,0.0,70,0.00,,---,0.00,VWS V14.01,2013-03-13 22:01:00,
2013-03-13 15:02:00,56.7,47.0,29.98,NNE,32,0.0,0.0,70,0.00,,---,0.00,VWS V14.01,2013-03-13 22:02:00,
2013-03-13 15:03:00,56.7,47.0,29.98,NNE,32,0.0,0.0,70,0.00,,---,0.00,VWS V14.01,2013-03-13 22:03:00,
2013-03-13 15:04:00,56.7,47.0,29.98,ESE,103,0.0,0.0,70,0.00,,---,0.00,VWS V14.01,2013-03-13 22:04:00,
2013-03-13 15:05:00,56.7,47.0,29.98,ESE,103,0.0,0.0,70,0.00,,---,0.00,VWS V14.01,2013-03-13 22:05:00,
2013-03-13 15:06:00,56.7,47.0,29.98,ESE,103,0.0,0.0,70,0.00,,---,0.00,VWS V14.01,2013-03-13 22:06:00,
2013-03-13 15:07:00,56.7,47.0,29.98,ESE,115,0.0,0.0,70,0.00,,---,0.00,VWS V14.01,2013-03-13 22:07:00,
2013-03-13 15:08:00,56.7,47.0,29.98,ESE,114,0.0,0.0,70,0.00,,---,0.00,VWS V14.01,2013-03-13 22:08:00,
2013-03-13 15:09:00,56.7,47.0,29.98,ESE,113,0.0,0.0,70,0.00,,---,0.00,VWS V14.01,2013-03-13 22:09:00,
2013-03-13 15:10:00,56.7,47.0,29.98,ESE,114,0.0,0.0,70,0.00,,---,0.00,VWS V14.01,2013-03-13 22:10:00,
2013-03-13 15:11:00,56.7,47.0,29.98,ESE,114,0.0,0.0,70,0.00,,---,0.00,VWS V14.01,2013-03-13 22:11:00,
2013-03-13 15:12:00,56.7,47.0,29.98,ESE,115,0.0,0.0,70,0.00,,---,0.00,VWS V14.01,2013-03-13 22:12:00,
2013-03-13 15:13:00,56.7,47.0,29.98,ESE,114,0.0,0.0,70,0.00,,---,0.00,VWS V14.01,2013-03-13 22:13:00,
2013-03-13 15:14:00,56.7,47.0,29.98,ESE,114,0.0,0.0,70,0.00,,---,0.00,VWS V14.01,2013-03-13 22:14:00,
2013-03-13 15:15:00,56.7,47.0,29.98,ESE,113,0.0,0.0,70,0.00,,---,0.00,VWS V14.01,2013-03-13 22:15:00,
2013-03-13 15:16:00,56.7,47.0,29.98,ESE,114,0.0,0.0,70,0.00,,---,0.00,VWS V14.01,2013-03-13 22:16:00,
2013-03-13 15:17:00,56.7,47.0,29.98,ESE,114,0.0,0.0,70,0.00,,---,0.00,VWS V14.01,2013-03-13 22:17:00,
2013-03-13 15:18:00,56.7,47.4,29.98,ESE,114,0.0,0.0,71,0.00,,---,0.00,VWS V14.01,2013-03-13 22:18:00,
2013-03-13 15:19:00,56.7,47.0,29.98,ESE,114,0.0,0.0,70,0.00,,---,0.00,VWS V14.01,2013-03-13 22:19:00,
2013-03-13 15:20:00,56.6,47.3,29.98,ESE,114,0.0,0.0,71,0.00,,---,0.00,VWS V14.01,2013-03-13 22:20:00,
2013-03-13 15:21:00,56.6,46.9,29.98,ESE,115,0.0,0.0,70,0.00,,---,0.00,VWS V14.01,2013-03-13 22:21:00,
2013-03-13 15:22:00,56.6,47.3,29.98,ESE,114,0.0,0.0,71,0.00,,---,0.00,VWS V14.01,2013-03-13 22:22:00,
2013-03-13 15:23:00,56.5,47.2,29.98,ESE,115,0.0,0.0,71,0.00,,---,0.00,VWS V14.01,2013-03-13 22:23:00,
2013-03-13 15:24:00,56.5,47.2,29.98,ESE,114,0.0,0.0,71,0.00,,---,0.00,VWS V14.01,2013-03-13 22:24:00,
2013-03-13 15:25:00,56.5,47.2,29.98,ESE,115,1.0,0.0,71,0.00,,---,0.00,VWS V14.01,2013-03-13 22:25:00,
2013-03-13 15:26:00,56.5,47.2,29.98,ESE,114,0.0,0.0,71,0.00,,---,0.00,VWS V14.01,2013-03-13 22:26:00,
2013-03-13 15:27:00,56.5,47.2,29.98,ESE,114,0.0,0.0,71,0.00,,---,0.00,VWS V14.01,2013-03-13 22:27:00,
2013-03-13 15:28:00,56.4,47.1,29.98,ESE,114,0.0,0.0,71,0.00,,---,0.00,VWS V14.01,2013-03-13 22:28:00,
2013-03-13 15:29:00,56.4,47.1,29.98,ESE,115,0.0,0.0,71,0.00,,---,0.00,VWS V14.01,2013-03-13 22:29:00,
2013-03-13 15:30:00,56.4,47.1,29.98,ESE,114,0.0,0.0,71,0.00,,---,0.00,VWS V14.01,2013-03-13 22:30:00,
2013-03-13 15:31:00,56.4,46.8,29.98,ESE,115,0.0,0.0,70,0.00,,---,0.00,VWS V14.01,2013-03-13 22:31:00,
2013-03-13 15:32:00,56.4,47.1,29.98,ESE,114,0.0,0.0,71,0.00,,---,0.00,VWS V14.01,2013-03-13 22:32:00,
2013-03-13 15:33:00,56.4,47.1,29.98,ESE,115,0.0,0.0,71,0.00,,---,0.00,VWS V14.01,2013-03-13 22:33:00,
2013-03-13 15:34:00,56.4,47.1,29.98,ESE,114,0.0,0.0,71,0.00,,---,0.00,VWS V14.01,2013-03-13 22:34:00,
2013-03-13 15:35:00,56.4,47.1,29.98,ESE,114,0.0,0.0,71,0.00,,---,0.00,VWS V14.01,2013-03-13 22:35:00,
2013-03-13 15:36:00,56.4,47.1,29.98,ESE,114,0.0,0.0,71,0.00,,---,0.00,VWS V14.01,2013-03-13 22:36:00,
2013-03-13 15:37:00,56.4,47.1,29.98,ESE,114,0.0,0.0,71,0.00,,---,0.00,VWS V14.01,2013-03-13 22:37:00,
2013-03-13 15:38:00,56.4,47.1,29.98,ESE,114,0.0,0.0,71,0.00,,---,0.00,VWS V14.01,2013-03-13 22:38:00,
2013-03-13 15:39:00,56.4,47.1,29.98,ESE,114,0.0,0.0,71,0.00,,---,0.00,VWS V14.01,2013-03-13 22:39:00,
2013-03-13 15:40:00,56.3,47.0,29.98,ESE,114,0.0,0.0,71,0.00,,---,0.00,VWS V14.01,2013-03-13 22:40:00,
2013-03-13 15:41:00,56.3,47.0,29.98,East,94,1.0,0.0,71,0.00,,---,0.00,VWS V14.01,2013-03-13 22:41:00,
2013-03-13 15:42:00,56.3,47.0,29.98,East,95,0.0,0.0,71,0.00,,---,0.00,VWS V14.01,2013-03-13 22:42:00,
2013-03-13 15:43:00,56.3,47.0,29.98,ESE,105,0.0,0.0,71,0.00,,---,0.00,VWS V14.01,2013-03-13 22:43:00,
2013-03-13 15:44:00,56.3,47.0,29.98,ESE,105,0.0,0.0,71,0.00,,---,0.00,VWS V14.01,2013-03-13 22:44:00,
2013-03-13 15:45:00,56.3,47.0,29.98,ESE,105,0.0,0.0,71,0.00,,---,0.00,VWS V14.01,2013-03-13 22:45:00,
2013-03-13 15:46:00,56.3,47.0,29.98,SE,135,1.0,0.0,71,0.00,,---,0.00,VWS V14.01,2013-03-13 22:46:00,
2013-03-13 15:47:00,56.3,47.0,29.98,SE,135,1.0,0.0,71,0.00,,---,0.00,VWS V14.01,2013-03-13 22:47:00,
2013-03-13 15:48:00,56.3,47.0,29.98,SE,135,0.0,0.0,71,0.00,,---,0.00,VWS V14.01,2013-03-13 22:48:00,
2013-03-13 15:49:00,56.3,47.0,29.98,SE,135,0.0,0.0,71,0.00,,---,0.00,VWS V14.01,2013-03-13 22:49:00,
2013-03-13 15:50:00,56.3,47.0,29.98,ESE,123,0.0,0.0,71,0.00,,---,0.00,VWS V14.01,2013-03-13 22:50:00,
2013-03-13 15:51:00,56.3,47.0,29.98,ESE,123,0.0,0.0,71,0.00,,---,0.00,VWS V14.01,2013-03-13 22:51:00,
2013-03-13 15:52:00,56.3,47.0,29.98,ESE,123,0.0,0.0,71,0.00,,---,0.00,VWS V14.01,2013-03-13 22:52:00,
2013-03-13 15:53:00,56.3,47.0,29.98,ESE,123,0.0,0.0,71,0.00,,---,0.00,VWS V14.01,2013-03-13 22:53:00,
2013-03-13 15:54:00,56.3,47.0,29.98,ESE,123,0.0,0.0,71,0.00,,---,0.00,VWS V14.01,2013-03-13 22:54:00,
2013-03-13 15:55:00,56.3,47.0,29.98,ESE,123,0.0,0.0,71,0.00,,---,0.00,VWS V14.01,2013-03-13 22:55:00,
2013-03-13 15:56:00,56.3,47.0,29.98,ESE,123,0.0,0.0,71,0.00,,---,0.00,VWS V14.01,2013-03-13 22:56:00,
2013-03-13 15:57:00,56.3,47.0,29.98,ESE,123,0.0,0.0,71,0.00,,---,0.00,VWS V14.01,2013-03-13 22:57:00,
2013-03-13 15:58:00,56.3,47.0,29.98,ESE,123,0.0,0.0,71,0.00,,---,0.00,VWS V14.01,2013-03-13 22:58:00,
2013-03-13 15:59:00,56.2,46.9,29.98,ESE,123,0.0,0.0,71,0.00,,---,0.00,VWS V14.01,2013-03-13 22:59:00,
2013-03-13 16:00:00,56.2,46.9,29.98,ESE,123,0.0,0.0,71,0.00,,---,0.00,VWS V14.01,2013-03-13 23:00:00,
2013-03-13 16:01:00,56.2,46.9,29.98,ESE,123,0.0,0.0,71,0.00,,---,0.00,VWS V14.01,2013-03-13 23:01:00,
2013-03-13 16:02:00,56.2,46.9,29.98,ESE,123,0.0,0.0,71,0.00,,---,0.00,VWS V14.01,2013-03-13 23:02:00,
2013-03-13 16:03:00,56.2,46.9,29.98,ESE,123,0.0,0.0,71,0.00,,---,0.00,VWS V14.01,2013-03-13 23:03:00,
2013-03-13 16:04:00,56.2,46.9,29.98,ESE,123,0.0,0.0,71,0.00,,---,0.00,VWS V14.01,2013-03-13 23:04:00,
2013-03-13 16:05:00,56.2,46.9,29.98,ESE,122,0.0,0.0,71,0.00,,---,0.00,VWS V14.01,2013-03-13 23:05:00,
2013-03-13 16:06:00,56.1,46.8,29.98,ESE,123,0.0,0.0,71,0.00,,---,0.00,VWS V14.01,2013-03-13 23:06:00,
2013-03-13 16:07:00,56.1,46.8,29.99,ESE,123,0.0,0.0,71,0.00,,---,0.00,VWS V14.01,2013-03-13 23:07:00,
2013-03-13 16:08:00,56.1,46.8,29.99,ESE,123,0.0,0.0,71,0.00,,---,0.00,VWS V14.01,2013-03-13 23:08:00,
2013-03-13 16:09:00,56.1,46.8,29.99,ESE,123,0.0,0.0,71,0.00,,---,0.00,VWS V14.01,2013-03-13 23:09:00,
2013-03-13 16:10:00,56.1,46.8,29.99,ESE,123,0.0,0.0,71,0.00,,---,0.00,VWS V14.01,2013-03-13 23:10:00,
2013-03-13 16:11:00,56.0,46.7,29.99,East,100,1.0,0.0,71,0.00,,---,0.00,VWS V14.01,2013-03-13 23:11:00,
2013-03-13 16:12:00,56.0,46.7,29.99,East,100,1.0,0.0,71,0.00,,---,0.00,VWS V14.01,2013-03-13 23:12:00,
2013-03-13 16:13:00,56.0,46.7,29.99,ENE,72,0.0,0.0,71,0.00,,---,0.00,VWS V14.01,2013-03-13 23:13:00,
2013-03-13 16:14:00,56.0,46.7,29.99,East,89,1.0,0.0,71,0.00,,---,0.00,VWS V14.01,2013-03-13 23:14:00,
2013-03-13 16:15:00,56.0,46.7,29.99,ESE,112,1.0,0.0,71,0.00,,---,0.00,VWS V14.01,2013-03-13 23:15:00,
2013-03-13 16:16:00,55.9,46.7,29.99,ESE,110,0.0,0.0,71,0.00,,---,0.00,VWS V14.01,2013-03-13 23:16:00,
2013-03-13 16:17:00,55.9,46.7,29.99,ESE,110,0.0,0.0,71,0.00,,---,0.00,VWS V14.01,2013-03-13 23:17:00,
2013-03-13 16:18:00,55.9,46.7,29.99,ESE,110,0.0,0.0,71,0.00,,---,0.00,VWS V14.01,2013-03-13 23:18:00,
2013-03-13 16:19:00,55.9,46.7,29.99,ESE,110,0.0,0.0,71,0.00,,---,0.00,VWS V14.01,2013-03-13 23:19:00,
2013-03-13 16:20:00,55.9,47.0,29.99,ESE,110,0.0,0.0,72,0.00,,---,0.00,VWS V14.01,2013-03-13 23:20:00,
2013-03-13 16:21:00,55.8,46.9,29.99,East,101,0.0,0.0,72,0.00,,---,0.00,VWS V14.01,2013-03-13 23:21:00,
2013-03-13 16:22:00,55.8,46.5,29.99,ESE,102,0.0,0.0,71,0.00,,---,0.00,VWS V14.01,2013-03-13 23:22:00,
2013-03-13 16:23:00,55.8,46.5,29.99,East,101,0.0,0.0,71,0.00,,---,0.00,VWS V14.01,2013-03-13 23:23:00,
2013-03-13 16:24:00,55.8,46.5,29.99,ESE,102,0.0,0.0,71,0.00,,---,0.00,VWS V14.01,2013-03-13 23:24:00,
2013-03-13 16:25:00,55.8,46.5,29.99,East,100,2.0,0.0,71,0.00,,---,0.00,VWS V14.01,2013-03-13 23:25:00,
2013-03-13 16:26:00,55.8,46.5,29.99,East,100,0.0,0.0,71,0.00,,---,0.00,VWS V14.01,2013-03-13 23:26:00,
2013-03-13 16:27:00,55.7,46.5,29.99,East,90,0.0,0.0,71,0.00,,---,0.00,VWS V14.01,2013-03-13 23:27:00,
2013-03-13 16:28:00,55.7,46.5,29.99,ESE,108,4.0,0.0,71,0.00,,---,0.00,VWS V14.01,2013-03-13 23:28:00,
2013-03-13 16:29:00,55.7,46.5,29.99,East,101,0.0,0.0,71,0.00,,---,0.00,VWS V14.01,2013-03-13 23:29:00,
2013-03-13 16:30:00,55.7,46.5,29.99,East,90,2.0,0.0,71,0.00,,---,0.00,VWS V14.01,2013-03-13 23:30:00,
2013-03-13 16:31:00,55.7,46.5,29.99,East,82,0.0,0.0,71,0.00,,---,0.00,VWS V14.01,2013-03-13 23:31:00,
2013-03-13 16:32:00,55.6,46.4,29.99,East,101,0.0,0.0,71,0.00,,---,0.00,VWS V14.01,2013-03-13 23:32:00,
2013-03-13 16:33:00,55.6,46.4,29.99,ENE,78,0.0,0.0,71,0.00,,---,0.00,VWS V14.01,2013-03-13 23:33:00,
2013-03-13 16:34:00,55.6,46.4,29.99,ENE,78,0.0,0.0,71,0.00,,---,0.00,VWS V14.01,2013-03-13 23:34:00,
2013-03-13 16:35:00,55.6,46.4,29.99,ENE,77,0.0,0.0,71,0.00,,---,0.00,VWS V14.01,2013-03-13 23:35:00,
2013-03-13 16:36:00,55.6,46.4,29.99,East,95,1.0,0.0,71,0.00,,---,0.00,VWS V14.01,2013-03-13 23:36:00,
2013-03-13 16:37:00,55.6,46.4,29.99,ENE,76,1.0,0.0,71,0.00,,---,0.00,VWS V14.01,2013-03-13 23:37:00,
2013-03-13 16:38:00,55.6,46.4,29.99,ESE,102,1.0,0.0,71,0.00,,---,0.00,VWS V14.01,2013-03-13 23:38:00,
2013-03-13 16:39:00,55.6,46.4,29.99,East,96,0.0,0.0,71,0.00,,---,0.00,VWS V14.01,2013-03-13 23:39:00,
2013-03-13 16:40:00,55.5,46.6,29.99,East,95,0.0,0.0,72,0.00,,---,0.00,VWS V14.01,2013-03-13 23:40:00,
2013-03-13 16:41:00,55.5,46.6,29.99,East,96,0.0,0.0,72,0.00,,---,0.00,VWS V14.01,2013-03-13 23:41:00,
2013-03-13 16:42:00,55.5,46.6,29.99,East,95,0.0,0.0,72,0.00,,---,0.00,VWS V14.01,2013-03-13 23:42:00,
2013-03-13 16:43:00,55.5,46.6,29.99,East,96,0.0,0.0,72,0.00,,---,0.00,VWS V14.01,2013-03-13 23:43:00,
2013-03-13 16:44:00,55.4,46.5,29.99,East,96,0.0,0.0,72,0.00,,---,0.00,VWS V14.01,2013-03-13 23:44:00,
2013-03-13 16:45:00,55.4,46.5,29.99,East,96,0.0,0.0,72,0.00,,---,0.00,VWS V14.01,2013-03-13 23:45:00,
2013-03-13 16:46:00,55.3,46.4,29.99,East,96,0.0,0.0,72,0.00,,---,0.00,VWS V14.01,2013-03-13 23:46:00,
2013-03-13 16:47:00,55.3,46.4,29.99,East,95,0.0,0.0,72,0.00,,---,0.00,VWS V14.01,2013-03-13 23:47:00,
2013-03-13 16:48:00,55.3,46.4,29.99,East,96,0.0,0.0,72,0.00,,---,0.00,VWS V14.01,2013-03-13 23:48:00,
2013-03-13 16:49:00,55.2,46.3,29.99,East,96,0.0,0.0,72,0.00,,---,0.00,VWS V14.01,2013-03-13 23:49:00,
2013-03-13 16:50:00,55.2,46.3,29.99,East,96,0.0,0.0,72,0.00,,---,0.00,VWS V14.01,2013-03-13 23:50:00,
2013-03-13 16:51:00,55.1,46.2,29.99,East,96,0.0,0.0,72,0.00,,---,0.00,VWS V14.01,2013-03-13 23:51:00,
2013-03-13 16:52:00,55.1,46.2,29.99,East,96,0.0,0.0,72,0.00,,---,0.00,VWS V14.01,2013-03-13 23:52:00,
2013-03-13 16:53:00,55.1,46.6,29.99,East,96,0.0,0.0,73,0.00,,---,0.00,VWS V14.01,2013-03-13 23:53:00,
2013-03-13 16:54:00,55.1,46.6,29.99,East,96,0.0,0.0,73,0.00,,---,0.00,VWS V14.01,2013-03-13 23:54:00,
2013-03-13 16:55:00,55.0,46.5,29.99,East,96,0.0,0.0,73,0.00,,---,0.00,VWS V14.01,2013-03-13 23:55:00,
2013-03-13 16:56:00,55.0,46.2,29.99,East,96,0.0,0.0,72,0.00,,---,0.00,VWS V14.01,2013-03-13 23:56:00,
2013-03-13 16:57:00,55.0,46.2,29.99,NE,53,0.0,0.0,72,0.00,,---,0.00,VWS V14.01,2013-03-13 23:57:00,
2013-03-13 16:58:00,55.0,46.2,29.99,ENE,74,0.0,0.0,72,0.00,,---,0.00,VWS V14.01,2013-03-13 23:58:00,
2013-03-13 16:59:00,55.0,46.2,29.99,ENE,74,0.0,0.0,72,0.00,,---,0.00,VWS V14.01,2013-03-13 23:59:00,
2013-03-13 17:00:00,55.0,46.5,29.99,ENE,74,0.0,0.0,73,0.00,,---,0.00,VWS V14.01,2013-03-14 00:00:00,
2013-03-13 17:01:00,55.0,46.2,29.99,ESE,106,0.0,0.0,72,0.00,,---,0.00,VWS V14.01,2013-03-14 00:01:00,
2013-03-13 17:02:00,55.0,46.2,29.98,ESE,106,0.0,0.0,72,0.00,,---,0.00,VWS V14.01,2013-03-14 00:02:00,
2013-03-13 17:03:00,55.0,46.2,29.98,East,99,0.0,0.0,72,0.00,,---,0.00,VWS V14.01,2013-03-14 00:03:00,
2013-03-13 17:04:00,55.0,46.2,29.98,East,98,0.0,0.0,72,0.00,,---,0.00,VWS V14.01,2013-03-14 00:04:00,
2013-03-13 17:05:00,55.0,46.2,29.98,East,98,1.0,0.0,72,0.00,,---,0.00,VWS V14.01,2013-03-14 00:05:00,
2013-03-13 17:06:00,55.0,46.2,29.98,East,99,0.0,0.0,72,0.00,,---,0.00,VWS V14.01,2013-03-14 00:06:00,
2013-03-13 17:07:00,55.0,46.2,29.98,East,99,0.0,0.0,72,0.00,,---,0.00,VWS V14.01,2013-03-14 00:07:00,
2013-03-13 17:08:00,55.0,46.2,29.98,East,94,0.0,0.0,72,0.00,,---,0.00,VWS V14.01,2013-03-14 00:08:00,
2013-03-13 17:09:00,55.0,46.5,29.98,East,94,0.0,0.0,73,0.00,,---,0.00,VWS V14.01,2013-03-14 00:09:00,
2013-03-13 17:10:00,55.0,46.5,29.98,East,94,0.0,0.0,73,0.00,,---,0.00,VWS V14.01,2013-03-14 00:10:00,
2013-03-13 17:11:00,55.0,46.5,29.98,East,94,0.0,0.0,73,0.00,,---,0.00,VWS V14.01,2013-03-14 00:11:00,
2013-03-13 17:12:00,55.0,46.2,29.98,East,94,0.0,0.0,72,0.00,,---,0.00,VWS V14.01,2013-03-14 00:12:00,
2013-03-13 17:13:00,54.9,46.1,29.98,East,94,0.0,0.0,72,0.00,,---,0.00,VWS V14.01,2013-03-14 00:13:00,
2013-03-13 17:14:00,54.9,46.1,29.98,East,94,1.0,0.0,72,0.00,,---,0.00,VWS V14.01,2013-03-14 00:14:00,
2013-03-13 17:15:00,54.8,46.0,29.98,East,99,1.0,0.0,72,0.00,,---,0.00,VWS V14.01,2013-03-14 00:15:00,
2013-03-13 17:16:00,54.8,46.0,29.98,East,99,0.0,0.0,72,0.00,,---,0.00,VWS V14.01,2013-03-14 00:16:00,
2013-03-13 17:17:00,54.8,46.0,29.98,East,99,0.0,0.0,72,0.00,,---,0.00,VWS V14.01,2013-03-14 00:17:00,
2013-03-13 17:18:00,54.8,46.0,29.98,East,99,0.0,0.0,72,0.00,,---,0.00,VWS V14.01,2013-03-14 00:18:00,
2013-03-13 17:19:00,54.7,45.9,29.98,East,99,0.0,0.0,72,0.00,,---,0.00,VWS V14.01,2013-03-14 00:19:00,
2013-03-13 17:20:00,54.7,45.9,29.98,East,99,0.0,0.0,72,0.00,,---,0.00,VWS V14.01,2013-03-14 00:20:00,
2013-03-13 17:21:00,54.7,45.9,29.98,East,99,0.0,0.0,72,0.00,,---,0.00,VWS V14.01,2013-03-14 00:21:00,
2013-03-13 17:22:00,54.7,45.9,29.98,East,99,0.0,0.0,72,0.00,,---,0.00,VWS V14.01,2013-03-14 00:22:00,
2013-03-13 17:23:00,54.7,45.9,29.98,East,99,0.0,0.0,72,0.00,,---,0.00,VWS V14.01,2013-03-14 00:23:00,
2013-03-13 17:24:00,54.7,45.9,29.98,East,99,0.0,0.0,72,0.00,,---,0.00,VWS V14.01,2013-03-14 00:24:00,
2013-03-13 17:25:00,54.6,45.8,29.98,East,99,0.0,0.0,72,0.00,,---,0.00,VWS V14.01,2013-03-14 00:25:00,
2013-03-13 17:26:00,54.7,45.9,29.98,East,99,0.0,0.0,72,0.00,,---,0.00,VWS V14.01,2013-03-14 00:26:00,
2013-03-13 17:27:00,54.6,45.8,29.98,East,99,0.0,0.0,72,0.00,,---,0.00,VWS V14.01,2013-03-14 00:27:00,
2013-03-13 17:28:00,54.6,45.8,29.98,East,99,0.0,0.0,72,0.00,,---,0.00,VWS V14.01,2013-03-14 00:28:00,
2013-03-13 17:29:00,54.6,45.8,29.98,East,99,0.0,0.0,72,0.00,,---,0.00,VWS V14.01,2013-03-14 00:29:00,
2013-03-13 17:30:00,54.6,45.8,29.98,East,101,0.0,0.0,72,0.00,,---,0.00,VWS V14.01,2013-03-14 00:30:00,
2013-03-13 17:31:00,54.6,45.8,29.98,East,99,0.0,0.0,72,0.00,,---,0.00,VWS V14.01,2013-03-14 00:31:00,
2013-03-13 17:32:00,54.6,45.8,29.98,East,99,0.0,0.0,72,0.00,,---,0.00,VWS V14.01,2013-03-14 00:32:00,
2013-03-13 17:33:00,54.6,45.8,29.98,East,99,0.0,0.0,72,0.00,,---,0.00,VWS V14.01,2013-03-14 00:33:00,
2013-03-13 17:34:00,54.6,45.8,29.98,East,99,0.0,0.0,72,0.00,,---,0.00,VWS V14.01,2013-03-14 00:34:00,
2013-03-13 17:35:00,54.6,45.8,29.98,East,99,0.0,0.0,72,0.00,,---,0.00,VWS V14.01,2013-03-14 00:35:00,
2013-03-13 17:36:00,54.6,45.8,29.98,East,99,0.0,0.0,72,0.00,,---,0.00,VWS V14.01,2013-03-14 00:36:00,
2013-03-13 17:37:00,54.6,45.8,29.97,East,99,0.0,0.0,72,0.00,,---,0.00,VWS V14.01,2013-03-14 00:37:00,
2013-03-13 17:38:00,54.5,45.7,29.98,East,99,0.0,0.0,72,0.00,,---,0.00,VWS V14.01,2013-03-14 00:38:00,
2013-03-13 17:39:00,54.5,45.7,29.98,East,99,0.0,0.0,72,0.00,,---,0.00,VWS V14.01,2013-03-14 00:39:00,
2013-03-13 17:40:00,54.5,46.0,29.98,East,99,0.0,0.0,73,0.00,,---,0.00,VWS V14.01,2013-03-14 00:40:00,
2013-03-13 17:41:00,54.5,46.0,29.98,East,98,0.0,0.0,73,0.00,,---,0.00,VWS V14.01,2013-03-14 00:41:00,
2013-03-13 17:42:00,54.5,46.0,29.98,East,99,0.0,0.0,73,0.00,,---,0.00,VWS V14.01,2013-03-14 00:42:00,
2013-03-13 17:43:00,54.4,45.9,29.98,East,99,0.0,0.0,73,0.00,,---,0.00,VWS V14.01,2013-03-14 00:43:00,
2013-03-13 17:44:00,54.4,45.6,29.98,East,99,0.0,0.0,72,0.00,,---,0.00,VWS V14.01,2013-03-14 00:44:00,
2013-03-13 17:45:00,54.4,45.6,29.98,East,99,0.0,0.0,72,0.00,,---,0.00,VWS V14.01,2013-03-14 00:45:00,
2013-03-13 17:46:00,54.4,45.6,29.98,East,99,0.0,0.0,72,0.00,,---,0.00,VWS V14.01,2013-03-14 00:46:00,
2013-03-13 17:47:00,54.4,45.6,29.98,East,99,0.0,0.0,72,0.00,,---,0.00,VWS V14.01,2013-03-14 00:47:00,
2013-03-13 17:48:00,54.4,45.6,29.98,East,99,0.0,0.0,72,0.00,,---,0.00,VWS V14.01,2013-03-14 00:48:00,
2013-03-13 17:49:00,54.4,45.6,29.98,East,99,0.0,0.0,72,0.00,,---,0.00,VWS V14.01,2013-03-14 00:49:00,
2013-03-13 17:50:00,54.4,45.6,29.98,East,99,0.0,0.0,72,0.00,,---,0.00,VWS V14.01,2013-03-14 00:50:00,
2013-03-13 17:51:00,54.4,45.6,29.98,East,99,0.0,0.0,72,0.00,,---,0.00,VWS V14.01,2013-03-14 00:51:00,
2013-03-13 17:52:00,54.4,45.6,29.98,East,99,0.0,0.0,72,0.00,,---,0.00,VWS V14.01,2013-03-14 00:52:00,
2013-03-13 17:53:00,54.4,45.6,29.98,East,99,0.0,0.0,72,0.00,,---,0.00,VWS V14.01,2013-03-14 00:53:00,
2013-03-13 17:54:00,54.4,45.6,29.98,East,99,0.0,0.0,72,0.00,,---,0.00,VWS V14.01,2013-03-14 00:54:00,
2013-03-13 17:55:00,54.4,45.6,29.98,East,88,0.0,0.0,72,0.00,,---,0.00,VWS V14.01,2013-03-14 00:55:00,
2013-03-13 17:56:00,54.4,45.6,29.98,East,88,0.0,0.0,72,0.00,,---,0.00,VWS V14.01,2013-03-14 00:56:00,
2013-03-13 17:57:00,54.3,45.5,29.98,East,88,0.0,0.0,72,0.00,,---,0.00,VWS V14.01,2013-03-14 00:57:00,
2013-03-13 17:58:00,54.3,45.5,29.98,East,88,0.0,0.0,72,0.00,,---,0.00,VWS V14.01,2013-03-14 00:58:00,
2013-03-13 17:59:00,54.3,45.5,29.97,East,88,0.0,0.0,72,0.00,,---,0.00,VWS V14.01,2013-03-14 00:59:00,
2013-03-13 18:00:00,54.3,45.5,29.97,East,88,0.0,0.0,72,0.00,,---,0.00,VWS V14.01,2013-03-14 01:00:00,
2013-03-13 18:01:00,54.3,45.5,29.97,East,88,0.0,0.0,72,0.00,,---,0.00,VWS V14.01,2013-03-14 01:01:00,
2013-03-13 18:02:00,54.3,45.5,29.98,East,88,0.0,0.0,72,0.00,,---,0.00,VWS V14.01,2013-03-14 01:02:00,
2013-03-13 18:03:00,54.2,45.4,29.98,East,88,0.0,0.0,72,0.00,,---,0.00,VWS V14.01,2013-03-14 01:03:00,
2013-03-13 18:04:00,54.2,45.4,29.98,East,88,0.0,0.0,72,0.00,,---,0.00,VWS V14.01,2013-03-14 01:04:00,
2013-03-13 18:05:00,54.2,45.4,29.98,East,88,0.0,0.0,72,0.00,,---,0.00,VWS V14.01,2013-03-14 01:05:00,
2013-03-13 18:06:00,54.2,45.4,29.98,East,88,0.0,0.0,72,0.00,,---,0.00,VWS V14.01,2013-03-14 01:06:00,
2013-03-13 18:07:00,54.2,45.4,29.98,East,88,0.0,0.0,72,0.00,,---,0.00,VWS V14.01,2013-03-14 01:07:00,
2013-03-13 18:08:00,54.1,45.3,29.98,East,88,0.0,0.0,72,0.00,,---,0.00,VWS V14.01,2013-03-14 01:08:00,
2013-03-13 18:09:00,54.1,45.3,29.98,East,88,0.0,0.0,72,0.00,,---,0.00,VWS V14.01,2013-03-14 01:09:00,
2013-03-13 18:10:00,54.1,45.3,29.98,East,88,0.0,0.0,72,0.00,,---,0.00,VWS V14.01,2013-03-14 01:10:00,
2013-03-13 18:11:00,54.1,45.3,29.98,East,88,0.0,0.0,72,0.00,,---,0.00,VWS V14.01,2013-03-14 01:11:00,
2013-03-13 18:12:00,54.1,45.3,29.98,East,88,0.0,0.0,72,0.00,,---,0.00,VWS V14.01,2013-03-14 01:12:00,
2013-03-13 18:13:00,54.1,45.3,29.98,East,88,0.0,0.0,72,0.00,,---,0.00,VWS V14.01,2013-03-14 01:13:00,
2013-03-13 18:14:00,54.1,45.3,29.98,East,88,0.0,0.0,72,0.00,,---,0.00,VWS V14.01,2013-03-14 01:14:00,
2013-03-13 18:15:00,54.1,45.7,29.98,East,88,0.0,0.0,73,0.00,,---,0.00,VWS V14.01,2013-03-14 01:15:00,
2013-03-13 18:16:00,54.1,45.3,29.98,East,88,0.0,0.0,72,0.00,,---,0.00,VWS V14.01,2013-03-14 01:16:00,
2013-03-13 18:17:00,54.1,45.7,29.97,East,88,0.0,0.0,73,0.00,,---,0.00,VWS V14.01,2013-03-14 01:17:00,
2013-03-13 18:18:00,54.1,45.7,29.97,East,88,0.0,0.0,73,0.00,,---,0.00,VWS V14.01,2013-03-14 01:18:00,
2013-03-13 18:19:00,54.1,45.7,29.97,East,88,0.0,0.0,73,0.00,,---,0.00,VWS V14.01,2013-03-14 01:19:00,
2013-03-13 18:20:00,54.1,45.7,29.98,East,88,0.0,0.0,73,0.00,,---,0.00,VWS V14.01,2013-03-14 01:20:00,
2013-03-13 18:21:00,54.1,45.7,29.98,East,88,0.0,0.0,73,0.00,,---,0.00,VWS V14.01,2013-03-14 01:21:00,
2013-03-13 18:22:00,54.1,45.3,29.98,East,88,0.0,0.0,72,0.00,,---,0.00,VWS V14.01,2013-03-14 01:22:00,
2013-03-13 18:23:00,54.1,45.3,29.97,East,88,0.0,0.0,72,0.00,,---,0.00,VWS V14.01,2013-03-14 01:23:00,
2013-03-13 18:24:00,54.1,45.7,29.97,East,88,0.0,0.0,73,0.00,,---,0.00,VWS V14.01,2013-03-14 01:24:00,
2013-03-13 18:25:00,54.1,45.7,29.97,East,88,0.0,0.0,73,0.00,,---,0.00,VWS V14.01,2013-03-14 01:25:00,
2013-03-13 18:26:00,54.1,45.3,29.97,East,88,0.0,0.0,72,0.00,,---,0.00,VWS V14.01,2013-03-14 01:26:00,
2013-03-13 18:27:00,54.1,45.7,29.97,East,88,0.0,0.0,73,0.00,,---,0.00,VWS V14.01,2013-03-14 01:27:00,
2013-03-13 18:28:00,54.1,45.3,29.97,East,88,1.0,0.0,72,0.00,,---,0.00,VWS V14.01,2013-03-14 01:28:00,
2013-03-13 18:29:00,54.1,45.3,29.97,East,88,0.0,0.0,72,0.00,,---,0.00,VWS V14.01,2013-03-14 01:29:00,
2013-03-13 18:30:00,54.1,45.3,29.97,East,88,0.0,0.0,72,0.00,,---,0.00,VWS V14.01,2013-03-14 01:30:00,
2013-03-13 18:31:00,54.1,45.3,29.97,East,88,0.0,0.0,72,0.00,,---,0.00,VWS V14.01,2013-03-14 01:31:00,
2013-03-13 18:32:00,54.1,45.3,29.97,East,88,0.0,0.0,72,0.00,,---,0.00,VWS V14.01,2013-03-14 01:32:00,
2013-03-13 18:33:00,54.1,45.3,29.97,East,88,0.0,0.0,72,0.00,,---,0.00,VWS V14.01,2013-03-14 01:33:00,
2013-03-13 18:34:00,54.2,45.8,29.97,East,88,0.0,0.0,73,0.00,,---,0.00,VWS V14.01,2013-03-14 01:34:00,
2013-03-13 18:35:00,54.1,45.7,29.97,East,88,0.0,0.0,73,0.00,,---,0.00,VWS V14.01,2013-03-14 01:35:00,
2013-03-13 18:36:00,54.1,45.3,29.97,East,88,0.0,0.0,72,0.00,,---,0.00,VWS V14.01,2013-03-14 01:36:00,
2013-03-13 18:37:00,54.1,45.3,29.97,East,88,0.0,0.0,72,0.00,,---,0.00,VWS V14.01,2013-03-14 01:37:00,
2013-03-13 18:38:00,54.1,45.3,29.97,East,88,1.0,0.0,72,0.00,,---,0.00,VWS V14.01,2013-03-14 01:38:00,
2013-03-13 18:39:00,54.1,45.3,29.97,East,88,0.0,0.0,72,0.00,,---,0.00,VWS V14.01,2013-03-14 01:39:00,
2013-03-13 18:40:00,54.1,45.3,29.97,East,88,0.0,0.0,72,0.00,,---,0.00,VWS V14.01,2013-03-14 01:40:00,
2013-03-13 18:41:00,54.1,45.3,29.97,East,88,0.0,0.0,72,0.00,,---,0.00,VWS V14.01,2013-03-14 01:41:00,
2013-03-13 18:42:00,54.1,45.3,29.97,East,88,0.0,0.0,72,0.00,,---,0.00,VWS V14.01,2013-03-14 01:42:00,
2013-03-13 18:43:00,54.1,45.3,29.97,East,88,0.0,0.0,72,0.00,,---,0.00,VWS V14.01,2013-03-14 01:43:00,
2013-03-13 18:44:00,54.1,45.3,29.97,East,88,0.0,0.0,72,0.00,,---,0.00,VWS V14.01,2013-03-14 01:44:00,
2013-03-13 18:45:00,54.1,45.3,29.97,East,89,0.0,0.0,72,0.00,,---,0.00,VWS V14.01,2013-03-14 01:45:00,
2013-03-13 18:46:00,54.1,45.3,29.97,East,88,0.0,0.0,72,0.00,,---,0.00,VWS V14.01,2013-03-14 01:46:00,
2013-03-13 18:47:00,54.1,45.3,29.97,East,88,0.0,0.0,72,0.00,,---,0.00,VWS V14.01,2013-03-14 01:47:00,
2013-03-13 18:48:00,54.1,44.9,29.97,East,88,0.0,0.0,71,0.00,,---,0.00,VWS V14.01,2013-03-14 01:48:00,
2013-03-13 18:49:00,54.1,44.9,29.97,East,88,1.0,0.0,71,0.00,,---,0.00,VWS V14.01,2013-03-14 01:49:00,
2013-03-13 18:50:00,54.1,44.9,29.97,East,88,0.0,0.0,71,0.00,,---,0.00,VWS V14.01,2013-03-14 01:50:00,
2013-03-13 18:51:00,54.1,44.9,29.97,East,88,0.0,0.0,71,0.00,,---,0.00,VWS V14.01,2013-03-14 01:51:00,
2013-03-13 18:52:00,54.1,45.3,29.97,East,87,0.0,0.0,72,0.00,,---,0.00,VWS V14.01,2013-03-14 01:52:00,
2013-03-13 18:53:00,54.1,44.9,29.97,East,88,0.0,0.0,71,0.00,,---,0.00,VWS V14.01,2013-03-14 01:53:00,
2013-03-13 18:54:00,54.1,44.9,29.97,East,88,0.0,0.0,71,0.00,,---,0.00,VWS V14.01,2013-03-14 01:54:00,
2013-03-13 18:55:00,54.1,44.9,29.97,East,88,0.0,0.0,71,0.00,,---,0.00,VWS V14.01,2013-03-14 01:55:00,
2013-03-13 18:56:00,54.1,45.3,29.97,East,89,0.0,0.0,72,0.00,,---,0.00,VWS V14.01,2013-03-14 01:56:00,
2013-03-13 18:57:00,54.1,44.9,29.97,East,88,0.0,0.0,71,0.00,,---,0.00,VWS V14.01,2013-03-14 01:57:00,
2013-03-13 18:58:00,54.1,44.9,29.97,East,87,0.0,0.0,71,0.00,,---,0.00,VWS V14.01,2013-03-14 01:58:00,
2013-03-13 18:59:00,54.1,44.9,29.97,East,88,0.0,0.0,71,0.00,,---,0.00,VWS V14.01,2013-03-14 01:59:00,
2013-03-13 19:00:00,54.1,44.9,29.97,East,88,0.0,0.0,71,0.00,,---,0.00,VWS V14.01,2013-03-14 02:00:00,
2013-03-13 19:01:00,54.1,44.9,29.97,East,88,0.0,0.0,71,0.00,,---,0.00,VWS V14.01,2013-03-14 02:01:00,
2013-03-13 19:02:00,54.1,44.9,29.97,East,88,0.0,0.0,71,0.00,,---,0.00,VWS V14.01,2013-03-14 02:02:00,
2013-03-13 19:03:00,54.1,44.9,29.97,East,88,0.0,0.0,71,0.00,,---,0.00,VWS V14.01,2013-03-14 02:03:00,
2013-03-13 19:04:00,54.1,44.9,29.97,East,88,0.0,0.0,71,0.00,,---,0.00,VWS V14.01,2013-03-14 02:04:00,
2013-03-13 19:05:00,54.1,44.9,29.97,East,88,0.0,0.0,71,0.00,,---,0.00,VWS V14.01,2013-03-14 02:05:00,
2013-03-13 19:06:00,54.1,44.9,29.97,East,88,0.0,0.0,71,0.00,,---,0.00,VWS V14.01,2013-03-14 02:06:00,
2013-03-13 19:07:00,54.1,45.3,29.97,East,88,0.0,0.0,72,0.00,,---,0.00,VWS V14.01,2013-03-14 02:07:00,
2013-03-13 19:08:00,54.1,44.9,29.97,East,88,0.0,0.0,71,0.00,,---,0.00,VWS V14.01,2013-03-14 02:08:00,
2013-03-13 19:09:00,54.0,44.8,29.97,East,88,1.0,0.0,71,0.00,,---,0.00,VWS V14.01,2013-03-14 02:09:00,
2013-03-13 19:10:00,54.0,44.8,29.97,East,88,0.0,0.0,71,0.00,,---,0.00,VWS V14.01,2013-03-14 02:10:00,
2013-03-13 19:11:00,54.0,44.8,29.96,East,88,0.0,0.0,71,0.00,,---,0.00,VWS V14.01,2013-03-14 02:11:00,
2013-03-13 19:12:00,54.0,44.8,29.97,East,88,0.0,0.0,71,0.00,,---,0.00,VWS V14.01,2013-03-14 02:12:00,
2013-03-13 19:13:00,54.0,44.8,29.96,East,88,0.0,0.0,71,0.00,,---,0.00,VWS V14.01,2013-03-14 02:13:00,
2013-03-13 19:14:00,54.0,44.8,29.97,East,88,0.0,0.0,71,0.00,,---,0.00,VWS V14.01,2013-03-14 02:14:00,
2013-03-13 19:15:00,54.0,44.8,29.96,East,88,0.0,0.0,71,0.00,,---,0.00,VWS V14.01,2013-03-14 02:15:00,
2013-03-13 19:16:00,54.0,44.8,29.96,East,88,0.0,0.0,71,0.00,,---,0.00,VWS V14.01,2013-03-14 02:16:00,
2013-03-13 19:17:00,54.0,44.8,29.96,East,88,0.0,0.0,71,0.00,,---,0.00,VWS V14.01,2013-03-14 02:17:00,
2013-03-13 19:18:00,54.0,44.8,29.96,East,88,0.0,0.0,71,0.00,,---,0.00,VWS V14.01,2013-03-14 02:18:00,
2013-03-13 19:19:00,54.0,44.5,29.96,East,88,0.0,0.0,70,0.00,,---,0.00,VWS V14.01,2013-03-14 02:19:00,
2013-03-13 19:20:00,54.0,44.5,29.96,East,88,0.0,0.0,70,0.00,,---,0.00,VWS V14.01,2013-03-14 02:20:00,
2013-03-13 19:21:00,54.0,44.5,29.96,East,88,0.0,0.0,70,0.00,,---,0.00,VWS V14.01,2013-03-14 02:21:00,
2013-03-13 19:22:00,54.0,44.5,29.96,East,88,0.0,0.0,70,0.00,,---,0.00,VWS V14.01,2013-03-14 02:22:00,
2013-03-13 19:23:00,54.0,44.5,29.96,East,88,0.0,0.0,70,0.00,,---,0.00,VWS V14.01,2013-03-14 02:23:00,
2013-03-13 19:24:00,54.0,44.5,29.97,East,88,0.0,0.0,70,0.00,,---,0.00,VWS V14.01,2013-03-14 02:24:00,
2013-03-13 19:25:00,54.1,44.5,29.97,East,88,0.0,0.0,70,0.00,,---,0.00,VWS V14.01,2013-03-14 02:25:00,
2013-03-13 19:26:00,54.1,44.5,29.97,East,88,0.0,0.0,70,0.00,,---,0.00,VWS V14.01,2013-03-14 02:26:00,
2013-03-13 19:27:00,54.1,44.5,29.97,East,88,0.0,0.0,70,0.00,,---,0.00,VWS V14.01,2013-03-14 02:27:00,
2013-03-13 19:28:00,54.1,44.5,29.97,East,88,0.0,0.0,70,0.00,,---,0.00,VWS V14.01,2013-03-14 02:28:00,
2013-03-13 19:29:00,54.1,44.5,29.97,East,96,0.0,0.0,70,0.00,,---,0.00,VWS V14.01,2013-03-14 02:29:00,
2013-03-13 19:30:00,54.1,44.5,29.97,East,96,0.0,0.0,70,0.00,,---,0.00,VWS V14.01,2013-03-14 02:30:00,
2013-03-13 19:31:00,54.1,44.5,29.97,ESE,105,5.0,0.0,70,0.00,,---,0.00,VWS V14.01,2013-03-14 02:31:00,
2013-03-13 19:32:00,54.1,44.2,29.97,East,101,2.0,0.0,69,0.00,,---,0.00,VWS V14.01,2013-03-14 02:32:00,
2013-03-13 19:33:00,54.1,44.2,29.97,East,97,0.0,0.0,69,0.00,,---,0.00,VWS V14.01,2013-03-14 02:33:00,
2013-03-13 19:34:00,54.2,44.3,29.97,ESE,104,1.0,0.0,69,0.00,,---,0.00,VWS V14.01,2013-03-14 02:34:00,
2013-03-13 19:35:00,54.2,44.3,29.97,East,95,2.0,0.0,69,0.00,,---,0.00,VWS V14.01,2013-03-14 02:35:00,
2013-03-13 19:36:00,54.2,44.3,29.97,East,95,1.0,0.0,69,0.00,,---,0.00,VWS V14.01,2013-03-14 02:36:00,
2013-03-13 19:37:00,54.3,44.4,29.97,East,100,0.0,0.0,69,0.00,,---,0.00,VWS V14.01,2013-03-14 02:37:00,
2013-03-13 19:38:00,54.3,44.4,29.97,East,101,0.0,0.0,69,0.00,,---,0.00,VWS V14.01,2013-03-14 02:38:00,
2013-03-13 19:39:00,54.4,44.8,29.97,East,101,0.0,0.0,70,0.00,,---,0.00,VWS V14.01,2013-03-14 02:39:00,
2013-03-13 19:40:00,54.4,44.5,29.97,East,101,0.0,0.0,69,0.00,,---,0.00,VWS V14.01,2013-03-14 02:40:00,
2013-03-13 19:41:00,54.4,44.5,29.97,SE,126,0.0,0.0,69,0.00,,---,0.00,VWS V14.01,2013-03-14 02:41:00,
2013-03-13 19:42:00,54.5,44.5,29.97,SE,134,0.0,0.0,69,0.00,,---,0.00,VWS V14.01,2013-03-14 02:42:00,
2013-03-13 19:43:00,54.5,44.5,29.97,SE,134,0.0,0.0,69,0.00,,---,0.00,VWS V14.01,2013-03-14 02:43:00,
2013-03-13 19:44:00,54.6,44.7,29.97,SE,134,0.0,0.0,69,0.00,,---,0.00,VWS V14.01,2013-03-14 02:44:00,
2013-03-13 19:45:00,54.6,44.3,29.97,SE,134,0.0,0.0,68,0.00,,---,0.00,VWS V14.01,2013-03-14 02:45:00,
2013-03-13 19:46:00,54.7,44.7,29.97,SE,134,0.0,0.0,69,0.00,,---,0.00,VWS V14.01,2013-03-14 02:46:00,
2013-03-13 19:47:00,54.7,44.4,29.97,SE,134,0.0,0.0,68,0.00,,---,0.00,VWS V14.01,2013-03-14 02:47:00,
2013-03-13 19:48:00,54.7,44.7,29.97,SE,134,0.0,0.0,69,0.00,,---,0.00,VWS V14.01,2013-03-14 02:48:00,
2013-03-13 19:49:00,54.8,44.8,29.97,SE,134,0.0,0.0,69,0.00,,---,0.00,VWS V14.01,2013-03-14 02:49:00,
2013-03-13 19:50:00,54.8,44.8,29.97,NNW,335,1.0,0.0,69,0.00,,---,0.00,VWS V14.01,2013-03-14 02:50:00,
2013-03-13 19:51:00,54.8,44.5,29.97,NNE,26,0.0,0.0,68,0.00,,---,0.00,VWS V14.01,2013-03-14 02:51:00,
2013-03-13 19:52:00,54.8,44.8,29.97,North,5,0.0,0.0,69,0.00,,---,0.00,VWS V14.01,2013-03-14 02:52:00,
2013-03-13 19:53:00,54.7,44.4,29.97,North,5,0.0,0.0,68,0.00,,---,0.00,VWS V14.01,2013-03-14 02:53:00,
2013-03-13 19:54:00,54.7,44.4,29.97,North,5,0.0,0.0,68,0.00,,---,0.00,VWS V14.01,2013-03-14 02:54:00,
2013-03-13 19:55:00,54.7,44.4,29.97,North,5,0.0,0.0,68,0.00,,---,0.00,VWS V14.01,2013-03-14 02:55:00,
2013-03-13 19:56:00,54.7,44.4,29.97,North,9,0.0,0.0,68,0.00,,---,0.00,VWS V14.01,2013-03-14 02:56:00,
2013-03-13 19:57:00,54.7,44.4,29.97,North,5,0.0,0.0,68,0.00,,---,0.00,VWS V14.01,2013-03-14 02:57:00,
2013-03-13 19:58:00,54.7,44.7,29.97,North,5,0.0,0.0,69,0.00,,---,0.00,VWS V14.01,2013-03-14 02:58:00,
2013-03-13 19:59:00,54.7,44.4,29.97,North,5,0.0,0.0,68,0.00,,---,0.00,VWS V14.01,2013-03-14 02:59:00,
2013-03-13 20:00:00,54.7,44.4,29.97,North,5,0.0,0.0,68,0.00,,---,0.00,VWS V14.01,2013-03-14 03:00:00,
2013-03-13 20:01:00,54.7,44.4,29.97,North,9,0.0,0.0,68,0.00,,---,0.00,VWS V14.01,2013-03-14 03:01:00,
2013-03-13 20:02:00,54.6,43.9,29.97,North,9,0.0,0.0,67,0.00,,---,0.00,VWS V14.01,2013-03-14 03:02:00,
2013-03-13 20:03:00,54.6,44.3,29.97,North,9,0.0,0.0,68,0.00,,---,0.00,VWS V14.01,2013-03-14 03:03:00,
2013-03-13 20:04:00,54.7,44.4,29.97,North,9,0.0,0.0,68,0.00,,---,0.00,VWS V14.01,2013-03-14 03:04:00,
2013-03-13 20:05:00,54.6,44.3,29.97,North,9,0.0,0.0,68,0.00,,---,0.00,VWS V14.01,2013-03-14 03:05:00,
2013-03-13 20:06:00,54.6,44.3,29.97,North,9,0.0,0.0,68,0.00,,---,0.00,VWS V14.01,2013-03-14 03:06:00,
2013-03-13 20:07:00,54.6,44.3,29.97,North,9,0.0,0.0,68,0.00,,---,0.00,VWS V14.01,2013-03-14 03:07:00,
2013-03-13 20:08:00,54.6,44.3,29.97,North,5,0.0,0.0,68,0.00,,---,0.00,VWS V14.01,2013-03-14 03:08:00,
2013-03-13 20:09:00,54.5,44.2,29.97,North,5,0.0,0.0,68,0.00,,---,0.00,VWS V14.01,2013-03-14 03:09:00,
2013-03-13 20:10:00,54.5,44.2,29.97,North,5,0.0,0.0,68,0.00,,---,0.00,VWS V14.01,2013-03-14 03:10:00,
2013-03-13 20:11:00,54.5,43.8,29.97,North,5,0.0,0.0,67,0.00,,---,0.00,VWS V14.01,2013-03-14 03:11:00,
2013-03-13 20:12:00,54.5,43.8,29.97,North,11,0.0,0.0,67,0.00,,---,0.00,VWS V14.01,2013-03-14 03:12:00,
2013-03-13 20:13:00,54.4,43.7,29.97,North,11,0.0,0.0,67,0.00,,---,0.00,VWS V14.01,2013-03-14 03:13:00,
2013-03-13 20:14:00,54.4,43.7,29.97,North,11,0.0,0.0,67,0.00,,---,0.00,VWS V14.01,2013-03-14 03:14:00,
2013-03-13 20:15:00,54.4,43.7,29.97,North,11,0.0,0.0,67,0.00,,---,0.00,VWS V14.01,2013-03-14 03:15:00,
2013-03-13 20:16:00,54.4,43.7,29.97,North,11,0.0,0.0,67,0.00,,---,0.00,VWS V14.01,2013-03-14 03:16:00,
2013-03-13 20:17:00,54.4,43.7,29.97,North,11,0.0,0.0,67,0.00,,---,0.00,VWS V14.01,2013-03-14 03:17:00,
2013-03-13 20:18:00,54.4,44.1,29.97,North,11,0.0,0.0,68,0.00,,---,0.00,VWS V14.01,2013-03-14 03:18:00,
2013-03-13 20:19:00,54.4,44.1,29.97,North,11,0.0,0.0,68,0.00,,---,0.00,VWS V14.01,2013-03-14 03:19:00,
2013-03-13 20:20:00,54.4,44.1,29.97,North,11,0.0,0.0,68,0.00,,---,0.00,VWS V14.01,2013-03-14 03:20:00,
2013-03-13 20:21:00,54.4,44.1,29.97,North,11,0.0,0.0,68,0.00,,---,0.00,VWS V14.01,2013-03-14 03:21:00,
2013-03-13 20:22:00,54.4,44.1,29.97,North,11,0.0,0.0,68,0.00,,---,0.00,VWS V14.01,2013-03-14 03:22:00,
2013-03-13 20:23:00,54.3,44.0,29.98,North,11,0.0,0.0,68,0.00,,---,0.00,VWS V14.01,2013-03-14 03:23:00,
2013-03-13 20:24:00,54.3,44.0,29.98,North,11,0.0,0.0,68,0.00,,---,0.00,VWS V14.01,2013-03-14 03:24:00,
2013-03-13 20:25:00,54.3,44.0,29.97,North,9,0.0,0.0,68,0.00,,---,0.00,VWS V14.01,2013-03-14 03:25:00,
2013-03-13 20:26:00,54.2,43.9,29.98,North,11,0.0,0.0,68,0.00,,---,0.00,VWS V14.01,2013-03-14 03:26:00,
2013-03-13 20:27:00,54.2,43.9,29.98,North,11,0.0,0.0,68,0.00,,---,0.00,VWS V14.01,2013-03-14 03:27:00,
2013-03-13 20:28:00,54.2,43.9,29.98,North,11,0.0,0.0,68,0.00,,---,0.00,VWS V14.01,2013-03-14 03:28:00,
2013-03-13 20:29:00,54.1,43.8,29.98,North,11,0.0,0.0,68,0.00,,---,0.00,VWS V14.01,2013-03-14 03:29:00,
2013-03-13 20:30:00,54.1,44.2,29.98,North,11,0.0,0.0,69,0.00,,---,0.00,VWS V14.01,2013-03-14 03:30:00,
2013-03-13 20:31:00,54.1,44.2,29.98,WNW,299,0.0,0.0,69,0.00,,---,0.00,VWS V14.01,2013-03-14 03:31:00,
2013-03-13 20:32:00,54.0,43.7,29.98,WNW,299,0.0,0.0,68,0.00,,---,0.00,VWS V14.01,2013-03-14 03:32:00,
2013-03-13 20:33:00,54.0,44.1,29.98,WNW,299,0.0,0.0,69,0.00,,---,0.00,VWS V14.01,2013-03-14 03:33:00,
2013-03-13 20:34:00,53.9,44.0,29.98,WNW,299,0.0,0.0,69,0.00,,---,0.00,VWS V14.01,2013-03-14 03:34:00,
2013-03-13 20:35:00,53.9,44.0,29.98,WNW,299,0.0,0.0,69,0.00,,---,0.00,VWS V14.01,2013-03-14 03:35:00,
2013-03-13 20:36:00,53.9,43.6,29.98,WNW,299,0.0,0.0,68,0.00,,---,0.00,VWS V14.01,2013-03-14 03:36:00,
2013-03-13 20:37:00,53.8,43.9,29.98,WNW,299,0.0,0.0,69,0.00,,---,0.00,VWS V14.01,2013-03-14 03:37:00,
2013-03-13 20:38:00,53.8,43.9,29.98,WNW,299,0.0,0.0,69,0.00,,---,0.00,VWS V14.01,2013-03-14 03:38:00,
2013-03-13 20:39:00,53.8,43.5,29.98,WNW,299,0.0,0.0,68,0.00,,---,0.00,VWS V14.01,2013-03-14 03:39:00,
2013-03-13 20:40:00,53.8,43.5,29.98,WNW,300,0.0,0.0,68,0.00,,---,0.00,VWS V14.01,2013-03-14 03:40:00,
2013-03-13 20:41:00,53.8,43.9,29.98,NE,35,1.0,0.0,69,0.00,,---,0.00,VWS V14.01,2013-03-14 03:41:00,
2013-03-13 20:42:00,53.7,43.4,29.98,NE,35,0.0,0.0,68,0.00,,---,0.00,VWS V14.01,2013-03-14 03:42:00,
2013-03-13 20:43:00,53.7,43.8,29.98,NE,34,0.0,0.0,69,0.00,,---,0.00,VWS V14.01,2013-03-14 03:43:00,
2013-03-13 20:44:00,53.7,43.8,29.98,NE,34,0.0,0.0,69,0.00,,---,0.00,VWS V14.01,2013-03-14 03:44:00,
2013-03-13 20:45:00,53.6,43.7,29.98,NE,34,0.0,0.0,69,0.00,,---,0.00,VWS V14.01,2013-03-14 03:45:00,
2013-03-13 20:46:00,53.6,43.7,29.98,NE,34,0.0,0.0,69,0.00,,---,0.00,VWS V14.01,2013-03-14 03:46:00,
2013-03-13 20:47:00,53.6,43.7,29.98,NE,34,0.0,0.0,69,0.00,,---,0.00,VWS V14.01,2013-03-14 03:47:00,
2013-03-13 20:48:00,53.6,43.3,29.98,NE,35,0.0,0.0,68,0.00,,---,0.00,VWS V14.01,2013-03-14 03:48:00,
2013-03-13 20:49:00,53.5,43.6,29.98,NE,34,0.0,0.0,69,0.00,,---,0.00,VWS V14.01,2013-03-14 03:49:00,
2013-03-13 20:50:00,53.5,43.6,29.98,NE,34,0.0,0.0,69,0.00,,---,0.00,VWS V14.01,2013-03-14 03:50:00,
2013-03-13 20:51:00,53.5,43.6,29.98,NE,34,0.0,0.0,69,0.00,,---,0.00,VWS V14.01,2013-03-14 03:51:00,
2013-03-13 20:52:00,53.4,43.5,29.98,NE,34,0.0,0.0,69,0.00,,---,0.00,VWS V14.01,2013-03-14 03:52:00,
2013-03-13 20:53:00,53.4,43.5,29.98,NE,34,0.0,0.0,69,0.00,,---,0.00,VWS V14.01,2013-03-14 03:53:00,
2013-03-13 20:54:00,53.3,43.4,29.98,NE,34,0.0,0.0,69,0.00,,---,0.00,VWS V14.01,2013-03-14 03:54:00,
2013-03-13 20:55:00,53.3,43.4,29.98,NE,34,0.0,0.0,69,0.00,,---,0.00,VWS V14.01,2013-03-14 03:55:00,
2013-03-13 20:56:00,53.3,43.8,29.98,NE,34,0.0,0.0,70,0.00,,---,0.00,VWS V14.01,2013-03-14 03:56:00,
2013-03-13 20:57:00,53.2,43.7,29.98,NE,34,0.0,0.0,70,0.00,,---,0.00,VWS V14.01,2013-03-14 03:57:00,
2013-03-13 20:58:00,53.2,43.7,29.98,NE,34,0.0,0.0,70,0.00,,---,0.00,VWS V14.01,2013-03-14 03:58:00,
2013-03-13 20:59:00,53.2,43.7,29.98,NE,34,0.0,0.0,70,0.00,,---,0.00,VWS V14.01,2013-03-14 03:59:00,
2013-03-13 21:00:00,53.1,43.6,29.98,NE,34,0.0,0.0,70,0.00,,---,0.00,VWS V14.01,2013-03-14 04:00:00,
2013-03-13 21:01:00,53.1,43.6,29.98,NE,34,0.0,0.0,70,0.00,,---,0.00,VWS V14.01,2013-03-14 04:01:00,
2013-03-13 21:02:00,53.0,43.5,29.98,NE,34,0.0,0.0,70,0.00,,---,0.00,VWS V14.01,2013-03-14 04:02:00,
2013-03-13 21:03:00,53.0,43.5,29.98,NE,34,0.0,0.0,70,0.00,,---,0.00,VWS V14.01,2013-03-14 04:03:00,
2013-03-13 21:04:00,53.0,43.5,29.98,NE,34,0.0,0.0,70,0.00,,---,0.00,VWS V14.01,2013-03-14 04:04:00,
2013-03-13 21:05:00,53.0,43.5,29.98,NE,34,0.0,0.0,70,0.00,,---,0.00,VWS V14.01,2013-03-14 04:05:00,
2013-03-13 21:06:00,53.0,43.5,29.98,NE,34,0.0,0.0,70,0.00,,---,0.00,VWS V14.01,2013-03-14 04:06:00,
2013-03-13 21:07:00,53.0,43.5,29.98,NE,34,0.0,0.0,70,0.00,,---,0.00,VWS V14.01,2013-03-14 04:07:00,
2013-03-13 21:08:00,52.9,43.4,29.98,NE,34,0.0,0.0,70,0.00,,---,0.00,VWS V14.01,2013-03-14 04:08:00,
2013-03-13 21:09:00,52.9,43.8,29.98,NE,34,0.0,0.0,71,0.00,,---,0.00,VWS V14.01,2013-03-14 04:09:00,
2013-03-13 21:10:00,52.8,43.3,29.98,NE,34,0.0,0.0,70,0.00,,---,0.00,VWS V14.01,2013-03-14 04:10:00,
2013-03-13 21:11:00,52.8,43.7,29.98,NE,34,0.0,0.0,71,0.00,,---,0.00,VWS V14.01,2013-03-14 04:11:00,
2013-03-13 21:12:00,52.8,43.3,29.98,NE,34,0.0,0.0,70,0.00,,---,0.00,VWS V14.01,2013-03-14 04:12:00,
2013-03-13 21:13:00,52.7,43.2,29.98,NE,34,0.0,0.0,70,0.00,,---,0.00,VWS V14.01,2013-03-14 04:13:00,
2013-03-13 21:14:00,52.7,43.6,29.98,NE,34,0.0,0.0,71,0.00,,---,0.00,VWS V14.01,2013-03-14 04:14:00,
2013-03-13 21:15:00,52.7,43.2,29.98,NE,34,0.0,0.0,70,0.00,,---,0.00,VWS V14.01,2013-03-14 04:15:00,
2013-03-13 21:16:00,52.7,43.2,29.98,NE,34,0.0,0.0,70,0.00,,---,0.00,VWS V14.01,2013-03-14 04:16:00,
2013-03-13 21:17:00,52.7,43.2,29.98,NE,34,0.0,0.0,70,0.00,,---,0.00,VWS V14.01,2013-03-14 04:17:00,
2013-03-13 21:18:00,52.7,43.2,29.98,NE,34,0.0,0.0,70,0.00,,---,0.00,VWS V14.01,2013-03-14 04:18:00,
2013-03-13 21:19:00,52.7,43.2,29.99,NE,34,0.0,0.0,70,0.00,,---,0.00,VWS V14.01,2013-03-14 04:19:00,
2013-03-13 21:20:00,52.7,43.2,29.98,NE,34,0.0,0.0,70,0.00,,---,0.00,VWS V14.01,2013-03-14 04:20:00,
2013-03-13 21:21:00,52.7,43.2,29.98,NE,34,0.0,0.0,70,0.00,,---,0.00,VWS V14.01,2013-03-14 04:21:00,
2013-03-13 21:22:00,52.7,43.2,29.98,NE,34,0.0,0.0,70,0.00,,---,0.00,VWS V14.01,2013-03-14 04:22:00,
2013-03-13 21:23:00,52.7,43.2,29.98,NE,35,0.0,0.0,70,0.00,,---,0.00,VWS V14.01,2013-03-14 04:23:00,
2013-03-13 21:24:00,52.6,43.1,29.98,NE,34,0.0,0.0,70,0.00,,---,0.00,VWS V14.01,2013-03-14 04:24:00,
2013-03-13 21:25:00,52.7,43.2,29.98,NE,34,0.0,0.0,70,0.00,,---,0.00,VWS V14.01,2013-03-14 04:25:00,
2013-03-13 21:26:00,52.6,43.1,29.98,NE,34,0.0,0.0,70,0.00,,---,0.00,VWS V14.01,2013-03-14 04:26:00,
2013-03-13 21:27:00,52.7,43.2,29.98,NE,34,0.0,0.0,70,0.00,,---,0.00,VWS V14.01,2013-03-14 04:27:00,
2013-03-13 21:28:00,52.6,43.5,29.98,NE,34,0.0,0.0,71,0.00,,---,0.00,VWS V14.01,2013-03-14 04:28:00,
2013-03-13 21:29:00,52.6,43.1,29.98,NE,34,0.0,0.0,70,0.00,,---,0.00,VWS V14.01,2013-03-14 04:29:00,
2013-03-13 21:30:00,52.6,43.1,29.98,NE,34,0.0,0.0,70,0.00,,---,0.00,VWS V14.01,2013-03-14 04:30:00,
2013-03-13 21:31:00,52.6,43.1,29.98,NE,34,0.0,0.0,70,0.00,,---,0.00,VWS V14.01,2013-03-14 04:31:00,
2013-03-13 21:32:00,52.6,43.1,29.98,NE,34,0.0,0.0,70,0.00,,---,0.00,VWS V14.01,2013-03-14 04:32:00,
2013-03-13 21:33:00,52.6,43.1,29.98,NE,34,0.0,0.0,70,0.00,,---,0.00,VWS V14.01,2013-03-14 04:33:00,
2013-03-13 21:34:00,52.6,43.1,29.98,NE,34,0.0,0.0,70,0.00,,---,0.00,VWS V14.01,2013-03-14 04:34:00,
2013-03-13 21:35:00,52.6,43.5,29.98,NE,34,0.0,0.0,71,0.00,,---,0.00,VWS V14.01,2013-03-14 04:35:00,
2013-03-13 21:36:00,52.6,43.5,29.98,NE,35,0.0,0.0,71,0.00,,---,0.00,VWS V14.01,2013-03-14 04:36:00,
2013-03-13 21:37:00,52.6,43.5,29.98,NE,34,0.0,0.0,71,0.00,,---,0.00,VWS V14.01,2013-03-14 04:37:00,
2013-03-13 21:38:00,52.6,43.5,29.98,NE,34,0.0,0.0,71,0.00,,---,0.00,VWS V14.01,2013-03-14 04:38:00,
2013-03-13 21:39:00,52.6,43.1,29.98,NE,34,0.0,0.0,70,0.00,,---,0.00,VWS V14.01,2013-03-14 04:39:00,
2013-03-13 21:40:00,52.6,43.1,29.98,NE,34,0.0,0.0,70,0.00,,---,0.00,VWS V14.01,2013-03-14 04:40:00,
2013-03-13 21:41:00,52.6,43.1,29.98,NE,34,0.0,0.0,70,0.00,,---,0.00,VWS V14.01,2013-03-14 04:41:00,
2013-03-13 21:42:00,52.7,43.2,29.98,NE,34,0.0,0.0,70,0.00,,---,0.00,VWS V14.01,2013-03-14 04:42:00,
2013-03-13 21:43:00,52.6,43.1,29.98,NE,34,0.0,0.0,70,0.00,,---,0.00,VWS V14.01,2013-03-14 04:43:00,
2013-03-13 21:44:00,52.7,43.2,29.98,NE,35,0.0,0.0,70,0.00,,---,0.00,VWS V14.01,2013-03-14 04:44:00,
2013-03-13 21:45:00,52.7,43.2,29.98,NE,35,0.0,0.0,70,0.00,,---,0.00,VWS V14.01,2013-03-14 04:45:00,
2013-03-13 21:46:00,52.7,43.2,29.98,NE,34,0.0,0.0,70,0.00,,---,0.00,VWS V14.01,2013-03-14 04:46:00,
2013-03-13 21:47:00,52.7,43.2,29.98,NE,34,0.0,0.0,70,0.00,,---,0.00,VWS V14.01,2013-03-14 04:47:00,
2013-03-13 21:48:00,52.7,43.2,29.99,NE,34,0.0,0.0,70,0.00,,---,0.00,VWS V14.01,2013-03-14 04:48:00,
2013-03-13 21:49:00,52.7,43.6,29.99,NE,34,0.0,0.0,71,0.00,,---,0.00,VWS V14.01,2013-03-14 04:49:00,
2013-03-13 21:50:00,52.7,43.2,29.98,NE,34,0.0,0.0,70,0.00,,---,0.00,VWS V14.01,2013-03-14 04:50:00,
2013-03-13 21:51:00,52.7,43.2,29.98,NE,34,0.0,0.0,70,0.00,,---,0.00,VWS V14.01,2013-03-14 04:51:00,
2013-03-13 21:52:00,52.8,43.3,29.98,NE,34,0.0,0.0,70,0.00,,---,0.00,VWS V14.01,2013-03-14 04:52:00,
2013-03-13 21:53:00,52.8,43.3,29.98,NE,34,0.0,0.0,70,0.00,,---,0.00,VWS V14.01,2013-03-14 04:53:00,
2013-03-13 21:54:00,52.8,43.3,29.98,NE,34,0.0,0.0,70,0.00,,---,0.00,VWS V14.01,2013-03-14 04:54:00,
2013-03-13 21:55:00,52.9,43.4,29.98,NE,34,0.0,0.0,70,0.00,,---,0.00,VWS V14.01,2013-03-14 04:55:00,
2013-03-13 21:56:00,52.9,43.4,29.98,NE,34,0.0,0.0,70,0.00,,---,0.00,VWS V14.01,2013-03-14 04:56:00,
2013-03-13 21:57:00,52.9,43.0,29.99,NE,34,0.0,0.0,69,0.00,,---,0.00,VWS V14.01,2013-03-14 04:57:00,
2013-03-13 21:58:00,52.9,43.0,29.99,NE,34,0.0,0.0,69,0.00,,---,0.00,VWS V14.01,2013-03-14 04:58:00,
2013-03-13 21:59:00,53.0,43.1,29.99,NE,35,0.0,0.0,69,0.00,,---,0.00,VWS V14.01,2013-03-14 04:59:00,
2013-03-13 22:00:00,53.0,43.1,29.99,NE,34,0.0,0.0,69,0.00,,---,0.00,VWS V14.01,2013-03-14 05:00:00,
2013-03-13 22:01:00,53.0,43.5,29.99,NE,34,0.0,0.0,70,0.00,,---,0.00,VWS V14.01,2013-03-14 05:01:00,
2013-03-13 22:02:00,53.1,43.6,29.99,NE,34,0.0,0.0,70,0.00,,---,0.00,VWS V14.01,2013-03-14 05:02:00,
2013-03-13 22:03:00,53.1,43.2,29.99,NE,35,0.0,0.0,69,0.00,,---,0.00,VWS V14.01,2013-03-14 05:03:00,
2013-03-13 22:04:00,53.1,43.6,29.99,NE,34,0.0,0.0,70,0.00,,---,0.00,VWS V14.01,2013-03-14 05:04:00,
2013-03-13 22:05:00,53.1,43.6,29.99,NE,35,0.0,0.0,70,0.00,,---,0.00,VWS V14.01,2013-03-14 05:05:00,
2013-03-13 22:06:00,53.1,43.6,29.99,NE,34,0.0,0.0,70,0.00,,---,0.00,VWS V14.01,2013-03-14 05:06:00,
2013-03-13 22:07:00,53.1,43.6,29.99,NE,34,0.0,0.0,70,0.00,,---,0.00,VWS V14.01,2013-03-14 05:07:00,
2013-03-13 22:08:00,53.1,43.6,29.99,NE,34,0.0,0.0,70,0.00,,---,0.00,VWS V14.01,2013-03-14 05:08:00,
2013-03-13 22:09:00,53.1,43.6,29.99,NE,34,0.0,0.0,70,0.00,,---,0.00,VWS V14.01,2013-03-14 05:09:00,
2013-03-13 22:10:00,53.1,43.6,29.99,NE,34,0.0,0.0,70,0.00,,---,0.00,VWS V14.01,2013-03-14 05:10:00,
2013-03-13 22:11:00,53.2,43.7,29.99,NE,34,0.0,0.0,70,0.00,,---,0.00,VWS V14.01,2013-03-14 05:11:00,
2013-03-13 22:12:00,53.2,43.7,29.99,NE,34,0.0,0.0,70,0.00,,---,0.00,VWS V14.01,2013-03-14 05:12:00,
2013-03-13 22:13:00,53.2,43.7,29.99,NE,34,0.0,0.0,70,0.00,,---,0.00,VWS V14.01,2013-03-14 05:13:00,
2013-03-13 22:14:00,53.2,44.0,29.99,NE,34,0.0,0.0,71,0.00,,---,0.00,VWS V14.01,2013-03-14 05:14:00,
2013-03-13 22:15:00,53.2,43.7,29.99,NE,34,0.0,0.0,70,0.00,,---,0.00,VWS V14.01,2013-03-14 05:15:00,
2013-03-13 22:16:00,53.2,43.7,29.99,NE,34,0.0,0.0,70,0.00,,---,0.00,VWS V14.01,2013-03-14 05:16:00,
2013-03-13 22:17:00,53.2,43.7,29.99,NE,34,0.0,0.0,70,0.00,,---,0.00,VWS V14.01,2013-03-14 05:17:00,
2013-03-13 22:18:00,53.2,43.7,29.99,NE,34,0.0,0.0,70,0.00,,---,0.00,VWS V14.01,2013-03-14 05:18:00,
2013-03-13 22:19:00,53.2,43.7,29.99,NE,35,0.0,0.0,70,0.00,,---,0.00,VWS V14.01,2013-03-14 05:19:00,
2013-03-13 22:20:00,53.2,43.7,29.99,NE,34,0.0,0.0,70,0.00,,---,0.00,VWS V14.01,2013-03-14 05:20:00,
2013-03-13 22:21:00,53.3,43.8,29.99,NE,34,0.0,0.0,70,0.00,,---,0.00,VWS V14.01,2013-03-14 05:21:00,
2013-03-13 22:22:00,53.3,43.8,29.99,NE,34,0.0,0.0,70,0.00,,---,0.00,VWS V14.01,2013-03-14 05:22:00,
2013-03-13 22:23:00,53.3,43.8,29.99,NE,34,0.0,0.0,70,0.00,,---,0.00,VWS V14.01,2013-03-14 05:23:00,
2013-03-13 22:24:00,53.3,43.8,29.99,NE,34,0.0,0.0,70,0.00,,---,0.00,VWS V14.01,2013-03-14 05:24:00,
2013-03-13 22:25:00,53.4,43.9,29.99,ESE,107,0.0,0.0,70,0.00,,---,0.00,VWS V14.01,2013-03-14 05:25:00,
2013-03-13 22:26:00,53.4,43.9,29.99,ESE,109,0.0,0.0,70,0.00,,---,0.00,VWS V14.01,2013-03-14 05:26:00,
2013-03-13 22:27:00,53.4,43.9,29.99,ESE,107,0.0,0.0,70,0.00,,---,0.00,VWS V14.01,2013-03-14 05:27:00,
2013-03-13 22:28:00,53.5,44.0,30.00,ESE,107,0.0,0.0,70,0.00,,---,0.00,VWS V14.01,2013-03-14 05:28:00,
2013-03-13 22:29:00,53.5,44.0,30.00,ESE,107,0.0,0.0,70,0.00,,---,0.00,VWS V14.01,2013-03-14 05:29:00,
2013-03-13 22:30:00,53.5,44.0,30.00,ESE,107,0.0,0.0,70,0.00,,---,0.00,VWS V14.01,2013-03-14 05:30:00,
2013-03-13 22:31:00,53.5,43.6,30.00,ESE,107,0.0,0.0,69,0.00,,---,0.00,VWS V14.01,2013-03-14 05:31:00,
2013-03-13 22:32:00,53.5,43.6,30.00,ESE,107,0.0,0.0,69,0.00,,---,0.00,VWS V14.01,2013-03-14 05:32:00,
2013-03-13 22:33:00,53.5,43.6,30.00,ESE,107,0.0,0.0,69,0.00,,---,0.00,VWS V14.01,2013-03-14 05:33:00,
2013-03-13 22:34:00,53.5,43.6,30.00,ESE,107,0.0,0.0,69,0.00,,---,0.00,VWS V14.01,2013-03-14 05:34:00,
2013-03-13 22:35:00,53.6,43.7,30.00,NNW,333,0.0,0.0,69,0.00,,---,0.00,VWS V14.01,2013-03-14 05:35:00,
2013-03-13 22:36:00,53.6,43.7,30.00,NNW,333,0.0,0.0,69,0.00,,---,0.00,VWS V14.01,2013-03-14 05:36:00,
2013-03-13 22:37:00,53.6,44.1,30.00,NNW,333,0.0,0.0,70,0.00,,---,0.00,VWS V14.01,2013-03-14 05:37:00,
2013-03-13 22:38:00,53.6,44.1,30.00,NNW,334,0.0,0.0,70,0.00,,---,0.00,VWS V14.01,2013-03-14 05:38:00,
2013-03-13 22:39:00,53.6,43.7,30.00,NNW,333,0.0,0.0,69,0.00,,---,0.00,VWS V14.01,2013-03-14 05:39:00,
2013-03-13 22:40:00,53.6,43.7,30.00,NNW,334,0.0,0.0,69,0.00,,---,0.00,VWS V14.01,2013-03-14 05:40:00,
2013-03-13 22:41:00,53.7,43.8,30.00,NNW,333,0.0,0.0,69,0.00,,---,0.00,VWS V14.01,2013-03-14 05:41:00,
2013-03-13 22:42:00,53.7,43.4,30.00,NE,40,0.0,0.0,68,0.00,,---,0.00,VWS V14.01,2013-03-14 05:42:00,
2013-03-13 22:43:00,53.7,43.8,30.00,NE,41,0.0,0.0,69,0.00,,---,0.00,VWS V14.01,2013-03-14 05:43:00,
2013-03-13 22:44:00,53.8,43.9,30.00,NE,40,0.0,0.0,69,0.00,,---,0.00,VWS V14.01,2013-03-14 05:44:00,
2013-03-13 22:45:00,53.8,43.9,30.00,NE,40,0.0,0.0,69,0.00,,---,0.00,VWS V14.01,2013-03-14 05:45:00,
2013-03-13 22:46:00,53.8,44.3,30.00,NE,40,0.0,0.0,70,0.00,,---,0.00,VWS V14.01,2013-03-14 05:46:00,
2013-03-13 22:47:00,53.9,44.3,30.00,NE,40,0.0,0.0,70,0.00,,---,0.00,VWS V14.01,2013-03-14 05:47:00,
2013-03-13 22:48:00,54.0,44.8,30.00,NE,40,0.0,0.0,71,0.00,,---,0.00,VWS V14.01,2013-03-14 05:48:00,
2013-03-13 22:49:00,54.0,44.8,30.00,NE,40,0.0,0.0,71,0.00,,---,0.00,VWS V14.01,2013-03-14 05:49:00,
2013-03-13 22:50:00,54.0,44.5,30.00,NE,40,0.0,0.0,70,0.00,,---,0.00,VWS V14.01,2013-03-14 05:50:00,
2013-03-13 22:51:00,54.1,44.9,30.00,NE,40,0.0,0.0,71,0.00,,---,0.00,VWS V14.01,2013-03-14 05:51:00,
2013-03-13 22:52:00,54.1,44.5,30.00,NE,40,0.0,0.0,70,0.00,,---,0.00,VWS V14.01,2013-03-14 05:52:00,
2013-03-13 22:53:00,54.2,44.3,30.00,NE,40,0.0,0.0,69,0.00,,---,0.00,VWS V14.01,2013-03-14 05:53:00,
2013-03-13 22:54:00,54.3,44.7,30.00,NE,40,0.0,0.0,70,0.00,,---,0.00,VWS V14.01,2013-03-14 05:54:00,
2013-03-13 22:55:00,54.4,44.8,30.00,NE,40,0.0,0.0,70,0.00,,---,0.00,VWS V14.01,2013-03-14 05:55:00,
2013-03-13 22:56:00,54.4,44.5,30.00,NE,40,0.0,0.0,69,0.00,,---,0.00,VWS V14.01,2013-03-14 05:56:00,
2013-03-13 22:57:00,54.5,44.2,30.01,NE,40,0.0,0.0,68,0.00,,---,0.00,VWS V14.01,2013-03-14 05:57:00,
2013-03-13 22:58:00,54.6,44.7,30.00,NE,40,0.0,0.0,69,0.00,,---,0.00,VWS V14.01,2013-03-14 05:58:00,
2013-03-13 22:59:00,54.6,44.7,30.01,NE,40,0.0,0.0,69,0.00,,---,0.00,VWS V14.01,2013-03-14 05:59:00,
2013-03-13 23:00:00,54.7,44.7,30.01,NE,40,0.0,0.0,69,0.00,,---,0.00,VWS V14.01,2013-03-14 06:00:00,
2013-03-13 23:01:00,54.8,44.5,30.01,NE,40,1.0,0.0,68,0.00,,---,0.00,VWS V14.01,2013-03-14 06:01:00,
2013-03-13 23:02:00,54.8,44.5,30.01,NE,40,0.0,0.0,68,0.00,,---,0.00,VWS V14.01,2013-03-14 06:02:00,
2013-03-13 23:03:00,54.9,44.5,30.01,NE,40,0.0,0.0,68,0.00,,---,0.00,VWS V14.01,2013-03-14 06:03:00,
2013-03-13 23:04:00,54.9,44.2,30.01,ENE,63,0.0,0.0,67,0.00,,---,0.00,VWS V14.01,2013-03-14 06:04:00,
2013-03-13 23:05:00,55.0,44.3,30.01,ENE,63,0.0,0.0,67,0.00,,---,0.00,VWS V14.01,2013-03-14 06:05:00,
2013-03-13 23:06:00,55.1,44.0,30.01,ENE,72,2.0,0.0,66,0.00,,---,0.00,VWS V14.01,2013-03-14 06:06:00,
2013-03-13 23:07:00,55.2,43.7,30.01,ENE,77,0.0,0.0,65,0.00,,---,0.00,VWS V14.01,2013-03-14 06:07:00,
2013-03-13 23:08:00,55.3,43.8,30.01,East,80,1.0,0.0,65,0.00,,---,0.00,VWS V14.01,2013-03-14 06:08:00,
2013-03-13 23:09:00,55.4,43.8,30.01,East,80,0.0,0.0,65,0.00,,---,0.00,VWS V14.01,2013-03-14 06:09:00,
2013-03-13 23:10:00,55.5,43.9,30.01,East,80,0.0,0.0,65,0.00,,---,0.00,VWS V14.01,2013-03-14 06:10:00,
2013-03-13 23:11:00,55.7,44.1,30.01,East,80,0.0,0.0,65,0.00,,---,0.00,VWS V14.01,2013-03-14 06:11:00,
2013-03-13 23:12:00,55.8,45.0,30.01,East,80,0.0,0.0,67,0.00,,---,0.00,VWS V14.01,2013-03-14 06:12:00,
2013-03-13 23:13:00,55.9,44.7,30.01,East,80,0.0,0.0,66,0.00,,---,0.00,VWS V14.01,2013-03-14 06:13:00,
2013-03-13 23:14:00,55.9,44.3,30.01,East,80,0.0,0.0,65,0.00,,---,0.00,VWS V14.01,2013-03-14 06:14:00,
2013-03-13 23:15:00,56.0,44.4,30.01,East,79,1.0,0.0,65,0.00,,---,0.00,VWS V14.01,2013-03-14 06:15:00,
2013-03-13 23:16:00,56.1,44.1,30.01,East,82,0.0,0.0,64,0.00,,---,0.00,VWS V14.01,2013-03-14 06:16:00,
2013-03-13 23:17:00,56.2,44.2,30.02,East,80,1.0,0.0,64,0.00,,---,0.00,VWS V14.01,2013-03-14 06:17:00,
2013-03-13 23:18:00,56.3,44.3,30.01,ESE,115,0.0,0.0,64,0.00,,---,0.00,VWS V14.01,2013-03-14 06:18:00,
2013-03-13 23:19:00,56.4,44.4,30.01,ESE,115,0.0,0.0,64,0.00,,---,0.00,VWS V14.01,2013-03-14 06:19:00,
2013-03-13 23:20:00,56.5,44.1,30.01,East,95,0.0,0.0,63,0.00,,---,0.00,VWS V14.01,2013-03-14 06:20:00,
2013-03-13 23:21:00,56.6,44.2,30.01,East,94,0.0,0.0,63,0.00,,---,0.00,VWS V14.01,2013-03-14 06:21:00,
2013-03-13 23:22:00,56.7,44.3,30.02,East,94,0.0,0.0,63,0.00,,---,0.00,VWS V14.01,2013-03-14 06:22:00,
2013-03-13 23:23:00,56.8,44.8,30.02,East,95,0.0,0.0,64,0.00,,---,0.00,VWS V14.01,2013-03-14 06:23:00,
2013-03-13 23:24:00,56.8,44.3,30.02,East,95,0.0,0.0,63,0.00,,---,0.00,VWS V14.01,2013-03-14 06:24:00,
2013-03-13 23:25:00,57.0,45.0,30.02,East,95,1.0,0.0,64,0.00,,---,0.00,VWS V14.01,2013-03-14 06:25:00,
2013-03-13 23:26:00,57.0,45.0,30.02,East,95,0.0,0.0,64,0.00,,---,0.00,VWS V14.01,2013-03-14 06:26:00,
2013-03-13 23:27:00,57.2,44.7,30.02,East,95,0.0,0.0,63,0.00,,---,0.00,VWS V14.01,2013-03-14 06:27:00,
2013-03-13 23:28:00,57.2,44.3,30.02,East,98,1.0,0.0,62,0.00,,---,0.00,VWS V14.01,2013-03-14 06:28:00,
2013-03-13 23:29:00,57.3,44.8,30.02,East,96,0.0,0.0,63,0.00,,---,0.00,VWS V14.01,2013-03-14 06:29:00,
2013-03-13 23:30:00,57.5,44.6,30.02,East,96,0.0,0.0,62,0.00,,---,0.00,VWS V14.01,2013-03-14 06:30:00,
2013-03-13 23:31:00,57.6,44.7,30.02,East,98,0.0,0.0,62,0.00,,---,0.00,VWS V14.01,2013-03-14 06:31:00,
2013-03-13 23:32:00,57.7,44.8,30.02,East,96,0.0,0.0,62,0.00,,---,0.00,VWS V14.01,2013-03-14 06:32:00,
2013-03-13 23:33:00,57.8,45.3,30.02,East,96,0.0,0.0,63,0.00,,---,0.00,VWS V14.01,2013-03-14 06:33:00,
2013-03-13 23:34:00,57.9,45.4,30.02,East,96,0.0,0.0,63,0.00,,---,0.00,VWS V14.01,2013-03-14 06:34:00,
2013-03-13 23:35:00,58.0,45.5,30.02,East,96,0.0,0.0,63,0.00,,---,0.00,VWS V14.01,2013-03-14 06:35:00,
2013-03-13 23:36:00,58.1,44.7,30.02,East,90,1.0,0.0,61,0.00,,---,0.00,VWS V14.01,2013-03-14 06:36:00,
2013-03-13 23:37:00,58.3,44.5,30.02,East,90,0.0,0.0,60,0.00,,---,0.00,VWS V14.01,2013-03-14 06:37:00,
2013-03-13 23:38:00,58.4,45.0,30.02,East,90,2.0,0.0,61,0.00,,---,0.00,VWS V14.01,2013-03-14 06:38:00,
2013-03-13 23:39:00,58.6,44.3,30.02,ENE,71,1.0,0.0,59,0.00,,---,0.00,VWS V14.01,2013-03-14 06:39:00,
2013-03-13 23:40:00,58.7,44.4,30.02,East,87,2.0,0.0,59,0.00,,---,0.00,VWS V14.01,2013-03-14 06:40:00,
2013-03-13 23:41:00,58.9,44.6,30.02,East,87,0.0,0.0,59,0.00,,---,0.00,VWS V14.01,2013-03-14 06:41:00,
2013-03-13 23:42:00,59.0,43.8,30.02,East,86,0.0,0.0,57,0.00,,---,0.00,VWS V14.01,2013-03-14 06:42:00,
2013-03-13 23:43:00,59.2,44.0,30.02,East,86,0.0,0.0,57,0.00,,---,0.00,VWS V14.01,2013-03-14 06:43:00,
2013-03-13 23:44:00,59.3,44.1,30.02,East,88,1.0,0.0,57,0.00,,---,0.00,VWS V14.01,2013-03-14 06:44:00,
2013-03-13 23:45:00,59.5,44.7,30.02,East,88,0.0,0.0,58,0.00,,---,0.00,VWS V14.01,2013-03-14 06:45:00,
2013-03-13 23:46:00,59.7,44.9,30.02,ENE,73,1.0,0.0,58,0.00,,---,0.00,VWS V14.01,2013-03-14 06:46:00,
2013-03-13 23:47:00,59.9,44.2,30.02,ENE,73,1.0,0.0,56,0.00,,---,0.00,VWS V14.01,2013-03-14 06:47:00,
2013-03-13 23:48:00,60.0,44.3,30.02,ENE,76,2.0,0.0,56,0.00,,---,0.00,VWS V14.01,2013-03-14 06:48:00,
2013-03-13 23:49:00,60.2,44.5,30.02,ENE,76,0.0,0.0,56,0.00,,---,0.00,VWS V14.01,2013-03-14 06:49:00,
2013-03-13 23:50:00,60.4,44.7,30.02,ENE,76,0.0,0.0,56,0.00,,---,0.00,VWS V14.01,2013-03-14 06:50:00,
2013-03-13 23:51:00,60.5,44.7,30.03,ENE,76,0.0,0.0,56,0.00,,---,0.00,VWS V14.01,2013-03-14 06:51:00,
2013-03-13 23:52:00,60.7,44.9,30.03,ENE,75,0.0,0.0,56,0.00,,---,0.00,VWS V14.01,2013-03-14 06:52:00,
2013-03-13 23:53:00,60.9,44.6,30.02,ENE,76,0.0,0.0,55,0.00,,---,0.00,VWS V14.01,2013-03-14 06:53:00,
2013-03-13 23:54:00,61.0,44.7,30.03,ENE,76,1.0,0.0,55,0.00,,---,0.00,VWS V14.01,2013-03-14 06:54:00,
2013-03-13 23:55:00,61.2,44.9,30.03,ENE,76,1.0,0.0,55,0.00,,---,0.00,VWS V14.01,2013-03-14 06:55:00,
2013-03-13 23:56:00,61.3,44.5,30.03,ENE,76,0.0,0.0,54,0.00,,---,0.00,VWS V14.01,2013-03-14 06:56:00,
2013-03-13 23:57:00,61.5,44.7,30.03,ENE,76,0.0,0.0,54,0.00,,---,0.00,VWS V14.01,2013-03-14 06:57:00,
2013-03-13 23:58:00,61.6,44.8,30.03,ENE,76,0.0,0.0,54,0.00,,---,0.00,VWS V14.01,2013-03-14 06:58:00,
2013-03-13 23:59:00,61.8,45.0,30.03,ENE,76,0.0,0.0,54,0.00,,---,0.00,VWS V14.01,2013-03-14 06:59:00,